[[{"header":{"parameterUnit":"m.s-1","parameterCategory":1,"la1":30.6,"la2":28.766,"lo1":-90.7593,"lo2":-88.6598,"dx":0.0162,"dy":0.0183,"nx":116,"ny":114,"refTime":"2023-02-14T06:00:00:Z","depth":0,"parameterNumber":2,"parameterNumberName":"U-component_of_WINDS"},"data":[0.0,0.0,0.0,0.0,0.0,0.0,0.0,0.0,0.0,0.0,0.0,0.0,0.0,0.0,0.0,0.0,0.0,0.0,0.0,0.0,0.0,0.0,0.0,0.0,0.0,0.0,0.0,0.0,0.0,0.0,0.0,0.0,0.0,0.0,0.0,0.0,0.0,0.0,0.0,0.0,0.0,0.0,0.0,0.0,0.0,0.0,0.0,0.0,0.0,0.0,0.0,0.0,0.0,0.0,0.0,0.0,0.0,0.0,0.0,0.0,0.0,0.0,0.0,0.0,0.0,0.0,0.0,0.0,0.0,0.0,0.0,0.0,0.0,0.0,0.0,0.0,0.0,0.0,0.0,0.0,0.0,0.0,0.0,0.0,0.0,0.0,0.0,0.0,0.0,0.0,0.0,0.0,0.0,0.0,0.0,0.0,0.0,0.0,0.0,0.0,0.0,0.0,0.0,0.0,0.0,0.0,0.0,0.0,0.0,0.0,0.0,0.0,0.0,0.0,0.0,0.0,0.0,0.0,0.0,0.0,0.0,0.0,0.0,0.0,0.0,0.0,0.0,0.0,0.0,0.0,0.0,0.0,0.0,0.0,0.0,0.0,0.0,0.0,0.0,0.0,0.0,0.0,0.0,0.0,0.0,0.0,0.0,0.0,0.0,0.0,0.0,0.0,0.0,0.0,0.0,0.0,0.0,0.0,0.0,0.0,0.0,0.0,0.0,0.0,0.0,0.0,0.0,0.0,0.0,0.0,0.0,0.0,0.0,0.0,0.0,0.0,0.0,0.0,0.0,0.0,0.0,0.0,0.0,0.0,0.0,0.0,0.0,0.0,0.0,0.0,0.0,0.0,0.0,0.0,0.0,0.0,0.0,0.0,0.0,0.0,0.0,0.0,0.0,0.0,0.0,0.0,0.0,0.0,0.0,0.0,0.0,0.0,0.0,0.0,0.0,0.0,0.0,0.0,0.0,0.0,0.0,0.0,0.0,0.0,0.0,0.0,0.0,0.0,0.0,0.0,0.0,0.0,0.0,0.0,0.0,0.0,0.0,0.0,0.0,0.0,0.0,0.0,0.0,0.0,0.0,0.0,0.0,0.0,0.0,0.0,0.0,0.0,0.0,0.0,0.0,0.0,0.0,0.0,0.0,0.0,0.0,0.0,0.0,0.0,0.0,0.0,0.0,0.0,0.0,0.0,0.0,0.0,0.0,0.0,0.0,0.0,0.0,0.0,0.0,0.0,0.0,0.0,0.0,0.0,0.0,0.0,0.0,0.0,0.0,0.0,0.0,0.0,0.0,0.0,0.0,0.0,0.0,0.0,0.0,0.0,0.0,0.0,0.0,0.0,0.0,0.0,0.0,0.0,0.0,0.0,0.0,0.0,0.0,0.0,0.0,0.0,0.0,0.0,0.0,0.0,0.0,0.0,0.0,0.0,0.0,0.0,0.0,0.0,0.0,0.0,0.0,0.0,0.0,0.0,0.0,0.0,0.0,0.0,0.0,0.0,0.0,0.0,0.0,0.0,0.0,0.0,0.0,0.0,0.0,0.0,0.0,0.0,0.0,0.0,0.0,0.0,0.0,0.0,0.0,0.0,0.0,0.0,0.0,0.0,0.0,0.0,0.0,0.0,0.0,0.0,0.0,0.0,0.0,0.0,0.0,0.0,0.0,0.0,0.0,0.0,0.0,0.0,0.0,0.0,0.0,0.0,0.0,0.0,0.0,0.0,0.0,0.0,0.0,0.0,0.0,0.0,0.0,0.0,0.0,0.0,0.0,0.0,0.0,0.0,0.0,0.0,0.0,0.0,0.0,0.0,0.0,0.0,0.0,0.0,0.0,0.0,0.0,0.0,0.0,0.0,0.0,0.0,0.0,0.0,0.0,0.0,0.0,0.0,0.0,0.0,0.0,0.0,0.0,0.0,0.0,0.0,0.0,0.0,0.0,0.0,0.0,0.0,0.0,0.0,0.0,0.0,0.0,0.0,0.0,0.0,0.0,0.0,0.0,0.0,0.0,0.0,0.0,0.0,0.0,0.0,0.0,0.0,0.0,0.0,0.0,0.0,0.0,0.0,0.0,0.0,0.0,0.0,0.0,0.0,0.0,0.0,0.0,0.0,0.0,0.0,0.0,0.0,0.0,0.0,0.0,0.0,0.0,0.0,0.0,0.0,0.0,0.0,0.0,0.0,0.0,0.0,0.0,0.0,0.0,0.0,0.0,0.0,0.0,0.0,0.0,0.0,0.0,0.0,0.0,0.0,0.0,0.0,0.0,0.0,0.0,0.0,0.0,0.0,0.0,0.0,0.0,0.0,0.0,0.0,0.0,0.0,0.0,0.0,0.0,0.0,0.0,0.0,0.0,0.0,0.0,0.0,0.0,0.0,0.0,0.0,0.0,0.0,0.0,0.0,0.0,0.0,0.0,0.0,0.0,0.0,0.0,0.0,0.0,0.0,0.0,0.0,0.0,0.0,0.0,0.0,0.0,0.0,0.0,0.0,0.0,0.0,0.0,0.0,0.0,0.0,0.0,0.0,0.0,0.0,0.0,0.0,0.0,0.0,0.0,0.0,0.0,0.0,0.0,0.0,0.0,0.0,0.0,0.0,0.0,0.0,0.0,0.0,0.0,0.0,0.0,0.0,0.0,0.0,0.0,0.0,0.0,0.0,0.0,0.0,0.0,0.0,0.0,0.0,0.0,0.0,0.0,0.0,0.0,0.0,0.0,0.0,0.0,0.0,0.0,0.0,0.0,0.0,0.0,0.0,0.0,0.0,0.0,0.0,0.0,0.0,0.0,0.0,0.0,0.0,0.0,0.0,0.0,0.0,0.0,0.0,0.0,0.0,0.0,0.0,0.0,0.0,0.0,0.0,0.0,0.0,0.0,0.0,0.0,0.0,0.0,0.0,0.0,0.0,0.0,0.0,0.0,0.0,0.0,0.0,0.0,0.0,0.0,0.0,0.0,0.0,0.0,0.0,0.0,0.0,0.0,0.0,0.0,0.0,0.0,0.0,0.0,0.0,0.0,0.0,0.0,0.0,0.0,0.0,0.0,0.0,0.0,0.0,0.0,0.0,0.0,0.0,0.0,0.0,0.0,0.0,0.0,0.0,0.0,0.0,0.0,0.0,0.0,0.0,0.0,0.0,0.0,0.0,0.0,0.0,0.0,0.0,0.0,0.0,0.0,0.0,0.0,0.0,0.0,0.0,0.0,0.0,0.0,0.0,0.0,0.0,0.0,0.0,0.0,0.0,0.0,0.0,0.0,0.0,0.0,0.0,0.0,0.0,0.0,0.0,0.0,0.0,0.0,0.0,0.0,0.0,0.0,0.0,0.0,0.0,0.0,0.0,0.0,0.0,0.0,0.0,0.0,0.0,0.0,0.0,0.0,0.0,0.0,0.0,0.0,0.0,0.0,0.0,0.0,0.0,0.0,0.0,0.0,0.0,0.0,0.0,0.0,0.0,0.0,0.0,0.0,0.0,0.0,0.0,0.0,0.0,0.0,0.0,0.0,0.0,0.0,0.0,0.0,0.0,0.0,0.0,0.0,0.0,0.0,0.0,0.0,0.0,0.0,0.0,0.0,0.0,0.0,0.0,0.0,0.0,0.0,0.0,0.0,0.0,0.0,0.0,0.0,0.0,0.0,0.0,0.0,0.0,0.0,0.0,0.0,0.0,0.0,0.0,0.0,0.0,0.0,0.0,0.0,0.0,0.0,0.0,0.0,0.0,0.0,0.0,0.0,0.0,0.0,0.0,0.0,0.0,0.0,0.0,0.0,0.0,0.0,0.0,0.0,0.0,0.0,0.0,0.0,0.0,0.0,0.0,0.0,0.0,0.0,0.0,0.0,0.0,0.0,0.0,0.0,0.0,0.0,0.0,0.0,0.0,0.0,0.0,0.0,0.0,0.0,0.0,0.0,0.0,0.0,0.0,0.0,0.0,0.0,0.0,0.0,0.0,0.0,0.0,0.0,0.0,0.0,0.0,0.0,0.0,0.0,0.0,0.0,0.0,0.0,0.0,0.0,0.0,0.0,0.0,0.0,0.0,0.0,0.0,0.0,0.0,0.0,0.0,0.0,0.0,0.0,0.0,0.0,0.0,0.0,0.0,0.0,0.0,0.0,0.0,0.0,0.0,0.0,0.0,0.0,0.0,0.0,0.0,0.0,0.0,0.0,0.0,0.0,0.0,0.0,0.0,0.0,0.0,0.0,0.0,0.0,0.0,0.0,0.0,0.0,0.0,0.0,0.0,0.0,0.0,0.0,0.0,0.0,0.0,0.0,0.0,0.0,0.0,0.0,0.0,0.0,0.0,0.0,0.0,0.0,0.0,0.0,0.0,0.0,0.0,0.0,0.0,0.0,0.0,0.0,0.0,0.0,0.0,0.0,0.0,0.0,0.0,0.0,0.0,0.0,0.0,0.0,0.0,0.0,0.0,0.0,0.0,0.0,0.0,0.0,0.0,0.0,0.0,0.0,0.0,0.0,0.0,0.0,0.0,0.0,0.0,0.0,0.0,0.0,0.0,0.0,0.0,0.0,0.0,0.0,0.0,0.0,0.0,0.0,0.0,0.0,0.0,0.0,0.0,0.0,0.0,0.0,0.0,0.0,0.0,0.0,0.0,0.0,0.0,0.0,0.0,0.0,0.0,0.0,0.0,0.0,0.0,0.0,0.0,0.0,0.0,0.0,0.0,0.0,0.0,0.0,0.0,0.0,0.0,0.0,0.0,0.0,0.0,0.0,0.0,0.0,0.0,0.0,0.0,0.0,0.0,0.0,0.0,0.0,0.0,0.0,0.0,0.0,0.0,0.0,0.0,0.0,0.0,0.0,0.0,0.0,0.0,0.0,0.0,0.0,0.0,0.0,0.0,0.0,0.0,0.0,0.0,0.0,0.0,0.0,0.0,0.0,0.0,0.0,0.0,0.0,0.0,0.0,0.0,0.0,0.0,0.0,0.0,0.0,0.0,0.0,0.0,0.0,0.0,0.0,0.0,0.0,0.0,0.0,0.0,0.0,0.0,0.0,0.0,0.0,0.0,0.0,0.0,0.0,0.0,0.0,0.0,0.0,0.0,0.0,0.0,0.0,0.0,0.0,0.0,0.0,0.0,0.0,0.0,0.0,0.0,0.0,0.0,0.0,0.0,0.0,0.0,0.0,0.0,0.0,0.0,0.0,0.0,0.0,0.0,0.0,0.0,0.0,0.0,0.0,0.0,0.0,0.0,0.0,0.0,0.0,0.0,0.0,0.0,0.0,0.0,0.0,0.0,0.0,0.0,0.0,0.0,0.0,0.0,0.0,0.0,0.0,0.0,0.0,0.0,0.0,0.0,0.0,0.0,0.0,0.0,0.0,0.0,0.0,0.0,0.0,0.0,0.0,0.0,0.0,0.0,0.0,0.0,0.0,0.0,0.0,0.0,0.0,0.0,0.0,0.0,0.0,0.0,0.0,0.0,0.0,0.0,0.0,0.0,0.0,0.0,0.0,0.0,0.0,0.0,0.0,0.0,0.0,0.0,0.0,0.0,0.0,0.0,0.0,0.0,0.0,0.0,0.0,0.0,0.0,0.0,0.0,0.0,0.0,0.0,0.0,0.0,0.0,0.0,0.0,0.0,0.0,0.0,0.0,0.0,0.0,0.0,0.0,0.0,0.0,0.0,0.0,0.0,0.0,0.0,0.0,0.0,0.0,0.0,0.0,0.0,0.0,0.0,0.0,0.0,0.0,0.0,0.0,0.0,0.0,0.0,0.0,0.0,0.0,0.0,0.0,0.0,0.0,0.0,0.0,0.0,0.0,0.0,0.0,0.0,0.0,0.0,0.0,0.0,0.0,0.0,0.0,0.0,0.0,0.0,0.0,0.0,0.0,0.0,0.0,0.0,0.0,0.0,0.0,0.0,0.0,0.0,0.0,0.0,0.0,0.0,0.0,0.0,0.0,0.0,0.0,0.0,0.0,0.0,0.0,0.0,0.0,0.0,0.0,0.0,0.0,0.0,0.0,0.0,0.0,0.0,0.0,0.0,0.0,0.0,0.0,0.0,0.0,0.0,0.0,0.0,0.0,0.0,0.0,0.0,0.0,0.0,0.0,0.0,0.0,0.0,0.0,0.0,-1.9206,0.0,0.0,0.0,0.0,0.0,0.0,0.0,0.0,0.0,0.0,0.0,0.0,0.0,0.0,0.0,0.0,0.0,0.0,0.0,0.0,0.0,0.0,0.0,0.0,0.0,0.0,0.0,0.0,0.0,0.0,0.0,0.0,0.0,0.0,0.0,0.0,0.0,0.0,0.0,0.0,0.0,0.0,0.0,0.0,0.0,0.0,0.0,0.0,0.0,0.0,0.0,0.0,0.0,0.0,0.0,0.0,0.0,0.0,0.0,0.0,0.0,0.0,0.0,0.0,0.0,0.0,0.0,0.0,0.0,0.0,0.0,0.0,0.0,0.0,0.0,0.0,0.0,0.0,0.0,0.0,0.0,0.0,0.0,0.0,0.0,0.0,0.0,0.0,0.0,0.0,0.0,0.0,0.0,0.0,0.0,0.0,0.0,0.0,0.0,0.0,0.0,0.0,0.0,0.0,0.0,0.0,0.0,0.0,0.0,0.0,0.0,0.0,0.0,0.0,0.0,0.0,-1.9406,0.0,0.0,0.0,0.0,0.0,0.0,0.0,0.0,0.0,0.0,0.0,0.0,0.0,0.0,0.0,0.0,0.0,0.0,0.0,0.0,0.0,0.0,0.0,0.0,0.0,0.0,0.0,0.0,0.0,0.0,0.0,0.0,0.0,0.0,0.0,0.0,0.0,0.0,0.0,0.0,0.0,0.0,0.0,0.0,0.0,0.0,0.0,0.0,0.0,0.0,0.0,0.0,0.0,0.0,0.0,0.0,0.0,0.0,0.0,0.0,0.0,0.0,0.0,0.0,0.0,0.0,0.0,0.0,0.0,0.0,0.0,0.0,0.0,0.0,0.0,0.0,0.0,0.0,0.0,0.0,0.0,0.0,0.0,0.0,0.0,0.0,0.0,0.0,0.0,0.0,0.0,0.0,0.0,0.0,0.0,0.0,0.0,0.0,0.0,0.0,0.0,0.0,0.0,0.0,0.0,0.0,0.0,0.0,0.0,0.0,-2.4742,-2.4495,-2.3745,-2.2607,-2.1884,-2.1015,-2.0103,0.0,0.0,0.0,0.0,0.0,0.0,0.0,0.0,0.0,0.0,0.0,0.0,0.0,0.0,0.0,0.0,0.0,0.0,0.0,0.0,0.0,0.0,0.0,0.0,0.0,0.0,0.0,0.0,0.0,0.0,0.0,0.0,0.0,0.0,0.0,0.0,0.0,0.0,0.0,0.0,0.0,0.0,0.0,0.0,0.0,0.0,0.0,0.0,0.0,0.0,0.0,0.0,0.0,0.0,0.0,0.0,0.0,0.0,0.0,0.0,0.0,0.0,0.0,0.0,0.0,0.0,0.0,0.0,0.0,0.0,0.0,0.0,0.0,0.0,0.0,0.0,0.0,0.0,0.0,0.0,0.0,0.0,0.0,0.0,0.0,0.0,0.0,-2.2638,-2.4633,0.0,0.0,0.0,0.0,0.0,0.0,0.0,0.0,0.0,0.0,0.0,0.0,0.0,0.0,-2.2712,-2.4356,-2.5232,-2.5332,-2.6562,-2.7251,-2.7346,-2.6591,-2.6576,-2.7121,-2.5098,0.0,-2.0495,-2.023,0.0,0.0,0.0,0.0,0.0,0.0,0.0,0.0,0.0,0.0,0.0,0.0,0.0,0.0,0.0,0.0,0.0,0.0,0.0,0.0,0.0,0.0,0.0,0.0,0.0,0.0,0.0,0.0,0.0,0.0,0.0,0.0,0.0,0.0,0.0,0.0,0.0,0.0,0.0,0.0,0.0,0.0,0.0,0.0,0.0,0.0,0.0,0.0,0.0,0.0,0.0,0.0,0.0,0.0,0.0,0.0,0.0,0.0,0.0,0.0,0.0,0.0,0.0,0.0,0.0,0.0,0.0,0.0,0.0,0.0,0.0,0.0,0.0,0.0,0.0,0.0,0.0,0.0,0.0,0.0,0.0,0.0,0.0,0.0,0.0,-2.1056,-2.3892,-2.501,-2.547,-2.5733,0.0,0.0,0.0,0.0,0.0,0.0,0.0,0.0,0.0,-2.2807,-2.3198,-2.3884,-2.4925,-2.6196,-2.7165,-2.7817,-2.941,-3.0284,-3.0376,-3.0484,-3.0176,-2.9454,-2.8612,-2.7163,-2.5252,-2.2611,-2.155,-2.1497,0.0,0.0,0.0,0.0,0.0,-2.115,0.0,0.0,0.0,0.0,0.0,0.0,0.0,0.0,0.0,0.0,0.0,0.0,0.0,0.0,0.0,0.0,0.0,0.0,0.0,0.0,0.0,0.0,0.0,0.0,0.0,0.0,0.0,0.0,0.0,0.0,0.0,0.0,0.0,0.0,0.0,0.0,0.0,0.0,0.0,0.0,0.0,0.0,0.0,0.0,0.0,0.0,0.0,0.0,0.0,0.0,0.0,0.0,0.0,0.0,0.0,0.0,0.0,0.0,0.0,0.0,0.0,0.0,0.0,0.0,0.0,0.0,0.0,0.0,0.0,0.0,0.0,0.0,0.0,0.0,0.0,0.0,0.0,-2.1897,-2.4373,-2.5082,-2.654,-2.7378,0.0,0.0,0.0,0.0,0.0,0.0,-2.2694,-2.1934,-2.1865,-2.266,-2.3619,-2.4955,-2.671,-2.8416,-2.9629,-3.0387,-3.2393,-3.3323,-3.3295,-3.3952,-3.3437,-3.1982,-3.1972,-3.1345,-2.9976,-2.5452,-2.3365,-2.2982,-2.2369,-2.2054,0.0,-2.1801,-2.1945,-2.2095,0.0,0.0,0.0,0.0,0.0,0.0,0.0,0.0,0.0,0.0,0.0,0.0,0.0,0.0,0.0,0.0,0.0,0.0,0.0,0.0,0.0,0.0,0.0,0.0,0.0,0.0,0.0,0.0,0.0,0.0,0.0,0.0,0.0,0.0,0.0,0.0,0.0,0.0,0.0,0.0,0.0,0.0,0.0,0.0,0.0,0.0,0.0,0.0,0.0,0.0,0.0,0.0,0.0,0.0,0.0,0.0,0.0,0.0,0.0,0.0,0.0,0.0,0.0,0.0,0.0,0.0,0.0,0.0,0.0,0.0,0.0,0.0,0.0,0.0,0.0,0.0,0.0,0.0,0.0,-2.5435,-2.7408,0.0,0.0,0.0,0.0,-2.6254,-2.4683,-2.3344,-2.2377,-2.2343,-2.2453,-2.2668,-2.4462,-2.595,-2.704,-3.0486,-3.2265,-3.2391,-3.4917,-3.6017,-3.5923,-3.5959,-3.5901,-3.5672,-3.4936,-3.4134,-3.2976,-2.807,-2.6499,-2.6981,-2.472,-2.3906,-2.3946,-2.3946,-2.3744,-2.3383,0.0,0.0,0.0,0.0,0.0,0.0,0.0,0.0,0.0,0.0,0.0,0.0,0.0,0.0,0.0,0.0,0.0,0.0,0.0,0.0,0.0,0.0,0.0,0.0,0.0,0.0,0.0,0.0,0.0,0.0,0.0,0.0,0.0,0.0,0.0,0.0,0.0,0.0,0.0,0.0,0.0,0.0,0.0,0.0,0.0,0.0,0.0,0.0,0.0,0.0,0.0,0.0,0.0,0.0,0.0,0.0,0.0,0.0,0.0,0.0,0.0,0.0,0.0,0.0,0.0,0.0,0.0,0.0,0.0,0.0,0.0,0.0,0.0,0.0,0.0,0.0,0.0,0.0,0.0,-2.9041,-3.0363,0.0,0.0,-3.0449,-2.9826,-2.9867,-2.7002,-2.5355,-2.5498,-2.4632,-2.4254,-2.4497,-2.6729,-2.8719,-3.0296,-3.2347,-3.3927,-3.5009,-3.6602,-3.7258,-3.721,-3.7727,-3.7603,-3.6941,-3.6648,-3.6296,-3.5702,-3.2903,-3.0399,-2.8202,-2.6929,-2.6045,-2.5463,-2.5549,-2.5419,-2.5134,0.0,0.0,0.0,0.0,0.0,0.0,0.0,0.0,0.0,0.0,0.0,0.0,0.0,0.0,0.0,0.0,0.0,0.0,0.0,0.0,0.0,0.0,0.0,0.0,0.0,0.0,0.0,0.0,0.0,0.0,0.0,0.0,0.0,0.0,0.0,0.0,0.0,0.0,0.0,0.0,0.0,0.0,-3.1069,0.0,0.0,0.0,0.0,0.0,0.0,0.0,0.0,0.0,0.0,0.0,0.0,0.0,0.0,0.0,0.0,0.0,0.0,0.0,0.0,0.0,0.0,0.0,0.0,0.0,0.0,0.0,0.0,0.0,0.0,0.0,0.0,0.0,0.0,0.0,-3.0295,-3.2225,-3.3776,-3.4686,-3.4614,-3.3668,-3.3141,-3.3241,-3.0174,-2.8363,-2.8638,-2.7507,-2.6979,-2.7263,-2.951,-3.1642,-3.3444,-3.4651,-3.592,-3.7275,-3.796,-3.8396,-3.8608,-3.8868,-3.8744,-3.8339,-3.8081,-3.7881,-3.765,-3.6325,-3.3808,-3.0746,-2.9478,-2.8177,-2.7077,-2.6891,-2.6386,-2.5778,0.0,0.0,0.0,0.0,0.0,0.0,0.0,0.0,0.0,0.0,0.0,0.0,0.0,0.0,0.0,0.0,0.0,0.0,0.0,0.0,0.0,0.0,0.0,0.0,0.0,0.0,0.0,0.0,0.0,0.0,0.0,0.0,0.0,0.0,0.0,0.0,0.0,0.0,0.0,0.0,0.0,0.0,-3.7733,0.0,0.0,0.0,0.0,0.0,0.0,0.0,0.0,0.0,0.0,0.0,0.0,0.0,0.0,0.0,0.0,0.0,0.0,0.0,0.0,0.0,0.0,0.0,0.0,0.0,0.0,0.0,0.0,0.0,0.0,0.0,0.0,0.0,-2.851,-3.0787,-3.3108,-3.4725,-3.7492,-3.876,-3.7517,-3.7347,-3.6993,-3.6174,-3.3952,-3.2325,-3.159,-3.0867,-3.0648,-3.088,-3.2746,-3.4548,-3.6274,-3.7341,-3.8294,-3.9073,-3.9166,-3.9574,-4.023,-3.9452,-3.9497,-4.0074,-3.9298,-3.8899,-3.8803,-3.7963,-3.6618,-3.488,-3.2291,-3.0305,-2.8785,-2.7984,-2.6613,-2.5274,0.0,0.0,0.0,0.0,0.0,0.0,0.0,0.0,0.0,0.0,0.0,0.0,0.0,0.0,0.0,0.0,0.0,0.0,0.0,0.0,0.0,0.0,0.0,0.0,0.0,0.0,0.0,0.0,0.0,0.0,0.0,0.0,0.0,0.0,0.0,0.0,0.0,0.0,0.0,0.0,0.0,0.0,-4.0312,0.0,0.0,0.0,0.0,0.0,0.0,0.0,0.0,0.0,0.0,0.0,0.0,0.0,0.0,0.0,0.0,0.0,0.0,0.0,0.0,0.0,0.0,0.0,0.0,0.0,0.0,0.0,0.0,0.0,0.0,0.0,0.0,-3.1319,-3.1469,-3.4055,-3.6708,-3.8823,-4.0341,-4.1308,-4.1618,-4.0628,-4.0135,-4.0531,-3.7897,-3.647,-3.6933,-3.5777,-3.4961,-3.471,-3.6339,-3.7521,-3.8132,-3.9003,-3.9941,-4.0874,-4.096,-4.1129,-4.1344,-4.1063,-4.1043,-4.1141,-4.023,-3.9808,-3.9674,-3.8803,-3.8191,-3.7374,-3.4247,-3.2025,-3.0501,-2.9598,-2.803,-2.6371,0.0,0.0,0.0,0.0,0.0,0.0,0.0,0.0,0.0,0.0,0.0,0.0,0.0,0.0,0.0,0.0,0.0,0.0,0.0,0.0,0.0,0.0,0.0,0.0,0.0,0.0,0.0,0.0,0.0,0.0,0.0,0.0,0.0,0.0,0.0,0.0,0.0,0.0,0.0,0.0,0.0,0.0,-4.4958,-4.2086,-4.0825,-4.0425,-3.8707,-3.804,-3.7717,-3.6264,0.0,0.0,0.0,0.0,0.0,0.0,0.0,0.0,0.0,0.0,0.0,0.0,0.0,0.0,0.0,0.0,0.0,0.0,0.0,0.0,0.0,0.0,0.0,0.0,-3.3211,-3.4501,-3.5715,-3.7895,-4.0233,-4.2576,-4.3657,-4.4528,-4.5356,-4.4127,-4.3601,-4.4396,-4.2001,-4.0564,-4.0782,-4.0019,-3.917,-3.8261,-3.9533,-4.032,-4.0473,-4.0644,-4.1215,-4.2151,-4.1837,-4.1894,-4.2315,-4.1922,-4.1903,0.0,-4.12,-4.0555,-4.0067,-3.9224,-3.8435,0.0,0.0,0.0,0.0,0.0,-2.8488,-2.7334,0.0,0.0,0.0,0.0,0.0,0.0,0.0,0.0,0.0,0.0,0.0,0.0,0.0,0.0,0.0,0.0,0.0,0.0,0.0,0.0,0.0,0.0,0.0,0.0,0.0,0.0,0.0,0.0,0.0,0.0,0.0,0.0,0.0,0.0,0.0,0.0,0.0,0.0,0.0,0.0,0.0,0.0,-4.9915,-4.6853,-4.602,-4.6344,-4.4676,-4.2709,-4.0858,-4.0685,0.0,0.0,0.0,0.0,0.0,0.0,0.0,0.0,0.0,0.0,0.0,0.0,0.0,0.0,0.0,0.0,0.0,0.0,0.0,0.0,0.0,0.0,0.0,0.0,-3.6431,-3.8323,-4.0384,-4.1672,-4.3191,-4.5444,-4.6534,-4.7447,-4.8272,-4.7191,-4.6777,-4.7464,-4.5715,-4.4269,-4.3615,0.0,0.0,0.0,0.0,-4.2807,-4.2908,-4.2217,-4.2337,-4.317,-4.2387,-4.2482,-4.3287,-4.2464,-4.2473,-4.3021,-4.2201,-4.1295,-4.0304,-3.9378,-3.7923,-3.6205,-3.5952,-3.5257,-3.3953,-3.0016,-2.8416,0.0,0.0,0.0,0.0,0.0,0.0,0.0,0.0,0.0,0.0,0.0,0.0,0.0,0.0,0.0,0.0,0.0,0.0,0.0,0.0,0.0,0.0,0.0,0.0,0.0,0.0,0.0,0.0,0.0,0.0,0.0,0.0,0.0,0.0,0.0,0.0,0.0,0.0,0.0,0.0,0.0,0.0,0.0,-4.9226,-4.7859,-4.7373,-4.7304,-4.6244,-4.6377,-4.6771,-4.5395,-4.4096,-4.2837,-4.1642,0.0,0.0,0.0,0.0,0.0,0.0,0.0,0.0,0.0,0.0,0.0,0.0,0.0,0.0,0.0,0.0,0.0,0.0,0.0,0.0,-3.7051,-3.8469,-4.0065,-4.265,-4.3272,-4.3906,-4.5269,-4.6127,-4.6964,-4.7753,-4.7578,-4.7554,-4.7783,-4.6807,-4.6236,-4.6245,-4.5699,0.0,-4.5109,-4.4628,-4.4469,-4.4665,-4.3855,-4.398,-4.5065,0.0,0.0,-4.5181,-4.4299,-4.3942,-4.4055,-4.3088,-4.2209,-4.1258,-3.9694,-3.7562,-3.5285,-3.4486,-3.3494,-3.2401,-3.088,-2.9262,-2.7683,0.0,0.0,0.0,0.0,0.0,0.0,0.0,0.0,0.0,0.0,0.0,0.0,0.0,0.0,0.0,0.0,0.0,0.0,0.0,0.0,0.0,0.0,0.0,0.0,0.0,0.0,0.0,0.0,0.0,0.0,0.0,0.0,0.0,0.0,0.0,0.0,0.0,0.0,0.0,0.0,0.0,0.0,-4.9729,-4.8805,-4.87,-4.8938,-4.8486,-4.8237,-4.8074,-4.8007,-4.6792,-4.5202,-4.4334,-4.2322,-3.9609,0.0,0.0,0.0,0.0,0.0,0.0,0.0,0.0,0.0,0.0,0.0,0.0,0.0,0.0,-3.192,0.0,0.0,-3.711,-4.0031,-4.1292,-4.223,-4.3175,-4.3811,-4.4395,-4.5004,-4.5405,-4.6059,-4.7179,-4.7243,-4.7611,-4.8571,-4.7797,-4.7365,-4.7602,-4.7199,-4.6873,-4.6618,-4.595,-4.5423,-4.5212,-4.4872,-4.4997,-4.5581,-4.5177,-4.5207,-4.566,-4.4843,-4.444,-4.4345,-4.3818,-4.2901,-4.1501,-3.8906,-3.6767,-3.5135,-3.4191,-3.3141,-3.2076,-3.1469,-3.0273,-2.8815,0.0,0.0,0.0,0.0,0.0,0.0,0.0,0.0,0.0,0.0,0.0,0.0,0.0,0.0,0.0,0.0,0.0,0.0,0.0,0.0,0.0,0.0,0.0,0.0,0.0,0.0,0.0,0.0,0.0,0.0,0.0,0.0,0.0,0.0,0.0,0.0,0.0,0.0,0.0,0.0,0.0,0.0,-5.0445,-4.9562,-4.969,-5.0306,-5.0083,-4.8729,-4.7276,-4.8829,-4.7651,-4.5519,-4.5266,-4.4949,-4.3641,-3.8612,-3.7637,0.0,0.0,0.0,0.0,0.0,0.0,0.0,0.0,0.0,-2.9973,-3.2006,-3.3187,-3.4649,-3.7396,-3.9217,-4.0806,-4.2563,-4.3767,-4.4204,-4.3315,-4.3772,-4.4261,-4.4426,-4.465,-4.5403,-4.6874,-4.6864,-4.7445,-4.9065,-4.8389,-4.7951,-4.7968,-4.8114,-4.7899,-4.7169,-4.6759,-4.6264,-4.5727,-4.5736,-4.5859,-4.6098,-4.5918,-4.5948,-4.6148,-4.5172,-4.4693,-4.4636,-4.4063,-4.2818,-4.0952,-3.8052,-3.6292,-3.5303,-3.4534,-3.3469,-3.235,-3.1906,-3.1031,-2.9976,0.0,0.0,0.0,0.0,0.0,0.0,0.0,0.0,0.0,0.0,0.0,0.0,0.0,0.0,0.0,0.0,0.0,0.0,0.0,0.0,0.0,0.0,0.0,0.0,0.0,0.0,0.0,0.0,0.0,0.0,0.0,0.0,0.0,0.0,0.0,0.0,0.0,0.0,0.0,0.0,0.0,0.0,-5.0507,-4.9702,-4.9854,-5.0363,-4.9465,-4.7525,-4.5665,-4.7163,-4.6026,-4.4321,-4.6286,-4.5946,-4.4222,-4.135,0.0,-3.5382,-3.0241,-2.664,-2.4271,-2.3916,-2.5026,-2.6775,0.0,0.0,-3.2237,-3.3738,-3.5437,-3.7068,-3.8489,-4.03,-4.2023,-4.3441,-4.4715,-4.5237,-4.4465,-4.3415,-4.2739,-4.2768,-4.4224,-4.5807,-4.7302,-4.7206,-4.7423,-4.826,-4.8105,-4.7779,-4.7241,-4.7824,-4.7937,-4.7316,-4.7311,-4.7411,-4.7504,-4.6887,-4.7011,-4.7913,-4.711,-4.7147,-4.7875,-4.6298,-4.5547,-4.5406,-4.3081,-4.1073,-3.9333,-3.8191,-3.6801,-3.5377,-3.5303,-3.4394,-3.3074,-3.2146,-3.0969,-2.9824,0.0,0.0,0.0,0.0,0.0,0.0,0.0,0.0,0.0,0.0,0.0,0.0,0.0,0.0,0.0,0.0,0.0,0.0,0.0,0.0,0.0,0.0,0.0,0.0,0.0,0.0,0.0,0.0,0.0,0.0,0.0,0.0,0.0,0.0,0.0,0.0,0.0,0.0,0.0,0.0,0.0,0.0,-4.9662,-4.7875,-4.7068,-4.6954,-4.6894,-4.5243,0.0,0.0,-4.3217,-4.1829,-4.3867,-4.3615,-4.2252,-4.0312,-3.8757,0.0,-3.094,-2.8099,0.0,0.0,-2.7167,-2.9033,-3.1374,-3.2882,-3.4182,-3.5664,-3.7009,-3.8395,-3.9902,-4.1669,-4.3076,0.0,-4.5078,-4.5496,-4.3639,-4.3384,-4.3056,-4.2125,-4.2572,-4.3502,-4.4849,-4.5078,-4.5657,-4.7021,-4.6798,-4.6537,-4.6397,-4.669,-4.7022,-4.7422,-4.7151,-4.7281,-4.7965,-4.7685,-4.7777,-4.8176,-4.7845,-4.7845,-4.8138,-4.6974,-4.6157,-4.5527,-4.3521,-4.1876,-4.0505,-3.9239,-3.7958,-3.6727,-3.5605,-3.4742,-3.3996,-3.2991,-3.2058,-3.1218,0.0,0.0,0.0,0.0,0.0,0.0,0.0,0.0,0.0,0.0,0.0,0.0,0.0,0.0,0.0,0.0,0.0,0.0,0.0,0.0,0.0,0.0,0.0,0.0,0.0,0.0,0.0,0.0,0.0,0.0,0.0,0.0,0.0,0.0,0.0,0.0,0.0,0.0,0.0,0.0,0.0,0.0,-4.8356,-4.5873,-4.4135,-4.3111,-4.3803,-4.2103,0.0,0.0,-3.9604,-3.8269,-4.019,-4.049,-3.9861,-3.8497,-3.7204,-3.5249,-3.056,0.0,0.0,-2.7614,-2.908,-3.1138,-3.3053,-3.4564,-3.5945,-3.7294,-3.8093,-3.9034,-4.0561,-4.2085,-4.3095,-4.3057,-4.4737,-4.5354,-4.3259,-4.3344,-4.3254,-4.2161,-4.1227,-4.1165,-4.2304,-4.2904,-4.3775,-4.5193,-4.5368,-4.537,-4.5259,-4.592,-4.6579,-4.7191,-4.7281,-4.7703,-4.8459,-4.8551,-4.8611,-4.8611,-4.8348,-4.8356,-4.8544,-4.7695,-4.6548,-4.5177,-4.4017,-4.2838,-4.1613,-4.0449,-3.9303,-3.8116,-3.662,-3.563,-3.492,-3.3851,-3.287,-3.202,0.0,0.0,0.0,0.0,0.0,0.0,0.0,0.0,0.0,0.0,0.0,0.0,0.0,0.0,0.0,0.0,0.0,0.0,0.0,0.0,0.0,0.0,0.0,0.0,0.0,0.0,0.0,0.0,0.0,0.0,0.0,0.0,0.0,0.0,0.0,0.0,0.0,0.0,0.0,0.0,0.0,0.0,-4.6694,-4.4238,-4.1721,-3.9663,-4.0444,0.0,0.0,0.0,-3.507,-3.3363,-3.5823,-3.7107,0.0,-3.654,-3.3372,0.0,0.0,0.0,-2.7532,-2.7426,-2.9817,-3.2449,-3.3238,-3.543,-3.7553,-3.8304,-3.8643,-3.9089,-3.9966,-4.092,-4.1551,-4.1472,-4.3607,-4.4903,-4.3988,-4.3212,-4.2795,-4.2851,-4.0684,-3.9517,0.0,-4.1382,-4.2155,-4.2668,-4.4128,-4.462,-4.3744,-4.5987,-4.7087,-4.655,-4.8301,-4.9246,-4.9377,-4.9566,-4.9655,-4.9655,-4.8738,-4.8746,-4.9499,-4.849,-4.6712,-4.4371,-4.4296,-4.3303,-4.1688,-4.1679,-4.071,-3.9229,-3.8847,-3.7588,-3.5818,-3.4551,-3.2879,-3.1424,0.0,0.0,0.0,0.0,0.0,0.0,0.0,0.0,0.0,0.0,0.0,0.0,0.0,0.0,0.0,0.0,0.0,0.0,0.0,0.0,0.0,0.0,0.0,0.0,0.0,0.0,0.0,0.0,0.0,0.0,0.0,0.0,0.0,0.0,0.0,0.0,0.0,0.0,0.0,0.0,0.0,0.0,-4.4036,-4.104,-3.831,-3.5985,0.0,0.0,0.0,0.0,0.0,0.0,-3.256,0.0,0.0,-3.147,0.0,0.0,0.0,0.0,-3.2637,-3.3559,-3.5128,-3.6512,-3.6685,-3.7986,-3.8892,-3.8079,-3.8023,-3.8074,-3.7923,-3.9035,-3.9942,-3.9888,-4.1973,-4.3482,-4.3132,-4.2508,-4.2066,-4.2103,-4.0389,0.0,0.0,0.0,0.0,-4.2321,-4.2632,-4.3095,-4.3943,-4.4735,-4.5653,-4.6732,-4.7934,-4.892,-4.9566,-4.9663,-4.9692,-4.9692,-4.9332,-4.9311,-4.9574,-4.8589,-4.7672,-4.6787,-4.5686,-4.4541,-4.3378,-4.2913,-4.1689,-4.0011,-3.9113,-3.7961,-3.6729,-3.5856,-3.4445,-3.2894,0.0,0.0,0.0,0.0,0.0,0.0,0.0,0.0,0.0,0.0,0.0,0.0,0.0,0.0,0.0,0.0,0.0,0.0,0.0,0.0,0.0,0.0,0.0,0.0,0.0,0.0,0.0,0.0,0.0,0.0,0.0,0.0,0.0,0.0,0.0,0.0,0.0,0.0,0.0,0.0,0.0,0.0,-4.005,-3.6443,-3.3865,0.0,0.0,0.0,0.0,0.0,0.0,0.0,0.0,0.0,0.0,0.0,0.0,0.0,0.0,-3.4353,-3.5932,-3.715,-3.8409,-3.9278,-3.8922,-3.9444,-3.9543,-3.7927,-3.725,-3.678,-3.6061,-3.6779,-3.7546,-3.7778,-3.9643,-4.128,-4.182,-4.1512,-4.1391,-4.166,-4.0268,0.0,0.0,0.0,0.0,-4.094,-4.1494,-4.223,-4.3343,-4.4162,-4.5133,-4.6427,-4.7671,-4.8654,-4.9306,-4.9627,-4.9627,-4.9334,-4.9541,-4.9483,-4.9122,-4.9107,-4.8746,-4.8053,-4.7297,-4.6106,-4.4736,-4.4213,-4.2987,-4.1334,-4.0007,-3.892,-3.7927,-3.6754,-3.5581,-3.4447,0.0,0.0,0.0,0.0,0.0,0.0,0.0,0.0,0.0,0.0,0.0,0.0,0.0,0.0,0.0,0.0,0.0,0.0,0.0,0.0,0.0,0.0,0.0,0.0,0.0,0.0,0.0,0.0,0.0,0.0,0.0,0.0,0.0,0.0,0.0,0.0,0.0,0.0,0.0,0.0,0.0,0.0,-3.4999,-3.0948,0.0,0.0,0.0,0.0,0.0,0.0,0.0,0.0,0.0,0.0,0.0,0.0,0.0,-3.2863,-3.4421,-3.6047,-3.7515,-3.8303,-3.9764,-4.0766,-3.9951,-3.9883,-3.9546,-3.7906,-3.642,-3.5111,0.0,0.0,-3.461,-3.5252,-3.6909,-3.8599,-4.0164,-4.0449,-4.0828,0.0,0.0,0.0,0.0,0.0,0.0,-3.8937,0.0,-4.2059,-4.2081,-4.4327,-4.5677,-4.5772,-4.7655,-4.8672,-4.8672,-4.9549,-4.9549,-4.8737,-4.9542,-4.9419,-4.8558,-5.0078,-4.9872,-4.8315,-4.9001,-4.7953,-4.5769,-4.5604,-4.4632,-4.3091,-4.1562,-4.0496,-3.9451,-3.7291,-3.6362,-3.6003,0.0,0.0,0.0,0.0,0.0,0.0,0.0,0.0,0.0,0.0,0.0,0.0,0.0,0.0,0.0,0.0,0.0,0.0,0.0,0.0,0.0,0.0,0.0,0.0,0.0,0.0,0.0,0.0,0.0,0.0,0.0,0.0,0.0,0.0,0.0,0.0,0.0,0.0,0.0,0.0,0.0,0.0,-3.1732,0.0,0.0,0.0,0.0,0.0,0.0,0.0,0.0,0.0,0.0,0.0,-3.1054,0.0,0.0,-3.6287,-3.7882,-3.9927,-4.1798,-4.2539,-4.3147,-4.3235,-4.193,-4.0794,-3.9488,-3.7434,-3.5229,-3.3275,0.0,0.0,0.0,-3.3699,-3.664,0.0,-4.0323,-4.0476,0.0,-4.2492,0.0,-4.1408,-4.2056,-4.214,0.0,0.0,-4.1705,-4.2373,-4.4132,-4.5281,-4.6183,-4.6807,-4.8579,-4.9532,-4.9549,-5.0448,-5.0789,-5.0534,-5.131,-5.1517,-5.1299,-5.16,-5.1431,-5.0885,-5.0375,-4.9449,-4.8183,-4.6919,-4.5431,-4.3804,-4.2706,-4.147,-4.0268,-3.9482,-3.8217,-3.6773,0.0,0.0,0.0,0.0,0.0,0.0,0.0,0.0,0.0,0.0,0.0,0.0,0.0,0.0,0.0,0.0,0.0,0.0,0.0,0.0,0.0,0.0,0.0,0.0,0.0,0.0,0.0,0.0,0.0,0.0,0.0,0.0,0.0,0.0,0.0,0.0,0.0,0.0,0.0,0.0,0.0,0.0,0.0,0.0,0.0,0.0,0.0,0.0,0.0,0.0,0.0,-3.0791,-3.0509,-3.1559,-3.3104,-3.4319,0.0,-3.8215,-4.0164,-4.1916,-4.3381,-4.4109,-4.4092,-4.3444,-4.159,-4.0038,-3.818,-3.5172,-3.3206,0.0,0.0,0.0,0.0,0.0,0.0,0.0,-3.9224,-3.948,-4.0082,0.0,-4.2194,0.0,-4.3104,-4.3772,-4.4542,0.0,-4.3886,-4.3564,-4.4966,-4.6329,-4.7284,-4.7786,-4.9504,-5.0582,-5.0978,-5.1471,-5.1736,-5.1736,-5.2513,-5.2672,-5.2303,-5.256,-5.2429,-5.1957,0.0,-5.0534,-4.9674,-4.8268,-4.6967,-4.5631,-4.3721,-4.247,-4.1613,-4.0452,-3.9245,-3.8082,0.0,0.0,0.0,0.0,0.0,0.0,0.0,0.0,0.0,0.0,0.0,0.0,0.0,0.0,0.0,0.0,0.0,0.0,0.0,0.0,0.0,0.0,0.0,0.0,0.0,0.0,0.0,0.0,0.0,0.0,0.0,0.0,0.0,0.0,0.0,0.0,0.0,0.0,0.0,0.0,0.0,0.0,0.0,0.0,0.0,0.0,0.0,0.0,0.0,0.0,-3.0398,-3.1952,-3.2629,-3.3992,-3.5666,-3.7337,-3.8357,-3.9399,-4.1657,-4.2806,-4.3521,-4.4175,-4.368,-4.2479,-4.0259,-3.8384,-3.6136,-3.2607,0.0,-3.0295,-2.9494,0.0,-3.0494,-3.2544,0.0,-3.465,-3.7777,-3.8284,-3.8942,-4.077,-4.2232,-4.3258,-4.3689,-4.5076,-4.6656,-4.8359,-4.6855,-4.5894,-4.5802,-4.7593,-4.8758,-4.9078,-5.0572,-5.1698,-5.2381,-5.2532,-5.2646,-5.276,-5.3518,-5.3564,-5.2983,-5.3383,-5.3208,-5.2516,0.0,0.0,-5.0534,-4.9657,-4.8695,-4.7541,-4.4814,-4.3578,-4.3069,-4.1014,-4.001,-3.9458,0.0,0.0,0.0,0.0,0.0,0.0,0.0,0.0,0.0,0.0,0.0,0.0,0.0,0.0,0.0,0.0,0.0,0.0,0.0,0.0,0.0,0.0,0.0,0.0,0.0,0.0,0.0,0.0,0.0,0.0,0.0,0.0,0.0,0.0,0.0,0.0,0.0,0.0,0.0,0.0,0.0,0.0,0.0,0.0,0.0,0.0,0.0,0.0,0.0,0.0,-3.1184,-3.3796,-3.4489,-3.581,-3.7395,-3.9085,-4.0056,-4.0976,-4.2762,-4.3724,-4.4261,-4.4402,-4.3369,-4.1883,-4.0295,-3.7245,0.0,0.0,0.0,-2.9452,-2.8671,-3.0195,0.0,-3.12,0.0,0.0,0.0,0.0,-4.0138,0.0,0.0,0.0,0.0,0.0,0.0,0.0,0.0,0.0,-4.951,-4.9681,-5.0415,-5.1708,-5.204,-5.2267,-5.2419,-5.3101,-5.3821,-5.4465,-5.4617,-5.5307,-5.6387,-5.5076,-5.4684,-5.4969,0.0,0.0,-5.1297,-5.0934,-4.9454,-4.7241,-4.658,-4.5176,-4.3468,-4.2852,-4.1584,-4.0106,0.0,0.0,0.0,0.0,0.0,0.0,0.0,0.0,0.0,0.0,0.0,0.0,0.0,0.0,0.0,0.0,0.0,0.0,0.0,0.0,0.0,0.0,0.0,0.0,0.0,0.0,0.0,0.0,0.0,0.0,0.0,0.0,0.0,0.0,0.0,0.0,0.0,0.0,0.0,0.0,0.0,0.0,0.0,0.0,0.0,0.0,0.0,0.0,0.0,0.0,-3.053,-3.3159,-3.4755,-3.6703,-3.8772,-4.0349,-4.1276,-4.2132,-4.378,-4.4331,-4.4468,-4.4524,-4.2998,-4.1,-3.9223,0.0,0.0,0.0,0.0,-2.8737,-2.835,0.0,0.0,0.0,0.0,0.0,0.0,0.0,0.0,0.0,0.0,0.0,0.0,0.0,0.0,0.0,0.0,0.0,-5.0602,-5.1123,-5.2182,-5.3746,-5.3736,-5.3707,-5.3707,-5.4124,-5.4503,-5.492,-5.5792,-5.6367,-5.6614,-5.6139,-5.6045,-5.6174,0.0,0.0,-5.2752,-5.201,-5.0413,-4.8383,-4.708,-4.5879,-4.4821,-4.3961,-4.2758,-4.1506,0.0,0.0,0.0,0.0,0.0,0.0,0.0,0.0,0.0,0.0,0.0,0.0,0.0,0.0,0.0,0.0,0.0,0.0,0.0,0.0,0.0,0.0,0.0,0.0,0.0,0.0,0.0,0.0,0.0,0.0,0.0,0.0,0.0,0.0,0.0,0.0,0.0,0.0,0.0,0.0,0.0,0.0,0.0,0.0,0.0,0.0,0.0,0.0,0.0,0.0,-2.9264,-3.1361,-3.339,-3.6073,-3.8835,-4.0547,-4.1495,-4.2362,-4.4189,-4.4587,-4.4486,-4.438,-4.2536,-4.0148,-3.7926,-3.4891,0.0,0.0,0.0,-2.85,-2.8543,0.0,0.0,0.0,0.0,0.0,0.0,0.0,0.0,0.0,0.0,0.0,0.0,0.0,0.0,0.0,0.0,0.0,0.0,-5.2547,-5.3796,-5.5047,-5.4941,-5.492,-5.492,-5.492,-5.4996,-5.5185,-5.6323,-5.6715,-5.6544,-5.6743,-5.6914,-5.6965,0.0,0.0,0.0,-5.2932,-5.1366,-4.9588,-4.756,-4.6421,-4.5801,-4.4657,-4.3711,-4.28,0.0,0.0,0.0,0.0,0.0,0.0,0.0,0.0,0.0,0.0,0.0,0.0,0.0,0.0,0.0,0.0,0.0,0.0,0.0,0.0,0.0,0.0,0.0,0.0,0.0,0.0,0.0,0.0,0.0,0.0,0.0,0.0,0.0,0.0,0.0,0.0,0.0,0.0,0.0,0.0,0.0,0.0,0.0,0.0,0.0,0.0,0.0,0.0,0.0,0.0,0.0,-2.8718,-2.9627,-3.2648,-3.6331,-3.8738,0.0,0.0,-4.3232,-4.4234,-4.4417,-4.378,-4.1827,-3.9464,-3.7045,0.0,0.0,0.0,0.0,-2.9396,-2.9391,-3.0103,0.0,0.0,0.0,0.0,0.0,0.0,0.0,0.0,0.0,0.0,0.0,0.0,0.0,0.0,0.0,0.0,0.0,-5.4485,-5.495,-5.4912,-5.492,-5.492,-5.492,-5.492,-5.5299,-5.6057,-5.5413,-5.6192,-5.8144,-5.6673,-5.6619,-5.7641,0.0,0.0,0.0,-5.3783,-5.2091,-5.0022,-4.88,-4.7079,-4.5317,-4.483,-4.4112,-4.3249,0.0,0.0,0.0,0.0,0.0,0.0,0.0,0.0,0.0,0.0,0.0,0.0,0.0,0.0,0.0,0.0,0.0,0.0,0.0,0.0,0.0,0.0,0.0,0.0,0.0,0.0,0.0,0.0,0.0,0.0,0.0,0.0,0.0,0.0,0.0,0.0,0.0,0.0,0.0,0.0,0.0,0.0,0.0,0.0,0.0,0.0,0.0,0.0,0.0,0.0,0.0,0.0,-2.7784,-2.9369,0.0,0.0,-3.8232,-3.9431,-4.2883,-4.3891,-4.3868,-4.3554,-4.1768,-3.9433,-3.7072,0.0,0.0,0.0,0.0,-2.8879,-2.9474,-3.0226,-3.1094,0.0,0.0,0.0,0.0,0.0,0.0,0.0,0.0,0.0,0.0,0.0,0.0,0.0,0.0,0.0,0.0,-5.4587,-5.4607,-5.5028,-5.4941,-5.492,-5.492,-5.492,-5.5072,-5.5413,-5.5602,-5.6116,-5.6899,-5.671,-5.7033,-5.7752,0.0,0.0,0.0,-5.3359,-5.1595,-5.0046,-4.8343,-4.7226,-4.6526,-4.574,-4.4863,-4.385,0.0,0.0,0.0,0.0,0.0,0.0,0.0,0.0,0.0,0.0,0.0,0.0,0.0,0.0,0.0,0.0,0.0,0.0,0.0,0.0,0.0,0.0,0.0,0.0,0.0,0.0,0.0,0.0,0.0,0.0,0.0,0.0,0.0,0.0,0.0,0.0,0.0,0.0,0.0,0.0,0.0,0.0,0.0,0.0,0.0,0.0,0.0,0.0,0.0,0.0,0.0,0.0,0.0,0.0,0.0,0.0,-3.624,-3.7878,-4.1494,-4.2878,-4.317,-4.2701,-4.1033,-3.8788,0.0,0.0,0.0,0.0,-2.9449,-2.8884,-2.9832,-3.0426,-3.1172,0.0,0.0,0.0,0.0,0.0,0.0,0.0,0.0,0.0,0.0,0.0,0.0,0.0,0.0,0.0,0.0,-5.465,-5.4476,-5.5019,-5.4941,-5.492,-5.492,-5.492,-5.492,-5.492,-5.5527,-5.5851,-5.5918,-5.6484,-5.6995,0.0,0.0,0.0,0.0,-5.2946,-5.1177,-4.996,-4.8191,-4.7322,-4.6991,-4.618,-4.5215,-4.4198,0.0,0.0,0.0,0.0,0.0,0.0,0.0,0.0,0.0,0.0,0.0,0.0,0.0,0.0,0.0,0.0,0.0,0.0,0.0,0.0,0.0,0.0,0.0,0.0,0.0,0.0,0.0,0.0,0.0,0.0,0.0,0.0,0.0,0.0,0.0,0.0,0.0,0.0,0.0,0.0,0.0,0.0,0.0,0.0,0.0,0.0,0.0,0.0,0.0,0.0,0.0,0.0,0.0,0.0,0.0,0.0,-3.3645,-3.5996,-3.8642,-4.1037,-4.2411,-4.0854,-3.9223,-3.7141,0.0,0.0,0.0,0.0,-2.9531,-2.9838,-3.0733,-3.0857,-3.1364,-3.3005,0.0,0.0,0.0,0.0,0.0,0.0,0.0,0.0,0.0,0.0,0.0,0.0,0.0,0.0,0.0,0.0,-5.4882,-5.4882,-5.492,-5.492,-5.492,-5.492,-5.492,-5.492,-5.492,-5.5246,-5.5918,-5.5918,0.0,0.0,0.0,0.0,0.0,-5.2887,-5.1224,-4.982,-4.8848,-4.7464,-4.599,-4.5701,-4.5113,-4.43,0.0,0.0,0.0,0.0,0.0,0.0,0.0,0.0,0.0,0.0,0.0,0.0,0.0,0.0,0.0,0.0,0.0,0.0,0.0,0.0,0.0,0.0,0.0,0.0,0.0,0.0,0.0,0.0,0.0,0.0,0.0,0.0,0.0,0.0,0.0,0.0,0.0,0.0,0.0,0.0,0.0,0.0,0.0,0.0,0.0,0.0,0.0,0.0,0.0,0.0,0.0,0.0,0.0,0.0,0.0,0.0,0.0,0.0,-3.5145,-3.6729,-3.743,-3.6301,-3.5753,-3.4747,-3.1964,0.0,0.0,0.0,0.0,-2.9877,-3.0733,-3.0855,-3.1327,-3.2955,-3.3059,0.0,0.0,0.0,0.0,0.0,0.0,0.0,0.0,0.0,0.0,0.0,0.0,0.0,0.0,0.0,-5.492,-5.492,-5.492,-5.492,-5.492,-5.492,-5.492,-5.492,-5.492,-5.464,-5.422,-5.4786,0.0,0.0,0.0,0.0,0.0,-5.2095,-5.0575,-4.9604,-4.8012,-4.7085,-4.6586,-4.5771,-4.5198,-4.4677,0.0,0.0,0.0,0.0,0.0,0.0,0.0,0.0,0.0,0.0,0.0,0.0,0.0,0.0,0.0,0.0,0.0,0.0,0.0,0.0,0.0,0.0,0.0,0.0,0.0,0.0,0.0,0.0,0.0,0.0,0.0,0.0,0.0,0.0,0.0,0.0,0.0,0.0,0.0,0.0,0.0,0.0,-2.0619,0.0,0.0,0.0,0.0,0.0,0.0,0.0,0.0,0.0,0.0,0.0,0.0,0.0,0.0,0.0,0.0,-3.3694,-3.435,-3.345,-3.3355,0.0,0.0,0.0,0.0,0.0,0.0,0.0,-3.0268,-3.0624,-3.1245,-3.2576,-3.2508,0.0,0.0,0.0,0.0,0.0,0.0,0.0,0.0,0.0,0.0,0.0,0.0,0.0,0.0,0.0,-5.4941,-5.4882,-5.492,-5.492,-5.492,-5.492,-5.492,-5.492,-5.492,-5.4375,-5.3428,0.0,0.0,0.0,0.0,0.0,0.0,-5.1353,-5.0314,-4.9676,-4.8672,-4.7922,-4.7352,-4.6185,-4.5417,-4.4858,0.0,0.0,0.0,0.0,0.0,0.0,0.0,0.0,0.0,0.0,0.0,0.0,0.0,0.0,0.0,0.0,0.0,0.0,0.0,0.0,0.0,0.0,0.0,0.0,0.0,0.0,0.0,0.0,-3.0956,-3.1565,-3.0959,0.0,0.0,0.0,0.0,0.0,0.0,0.0,-2.3912,0.0,-2.3046,-2.2001,0.0,0.0,0.0,0.0,0.0,0.0,0.0,0.0,0.0,0.0,0.0,0.0,0.0,0.0,0.0,0.0,0.0,0.0,0.0,0.0,0.0,0.0,0.0,0.0,0.0,0.0,0.0,0.0,0.0,0.0,-3.1223,-3.2193,0.0,0.0,0.0,0.0,0.0,0.0,0.0,0.0,0.0,0.0,0.0,0.0,0.0,0.0,0.0,0.0,0.0,-5.4806,-5.4806,-5.4844,-5.492,-5.492,-5.492,-5.492,-5.4814,-5.4262,-5.3314,0.0,0.0,0.0,0.0,0.0,0.0,-5.0732,-5.0362,-4.983,-5.0211,-4.9493,-4.805,-4.6769,-4.572,-4.477,0.0,0.0,0.0,0.0,0.0,0.0,0.0,0.0,0.0,0.0,0.0,0.0,0.0,0.0,0.0,0.0,0.0,0.0,0.0,0.0,0.0,0.0,0.0,0.0,0.0,0.0,0.0,-2.9998,-3.2403,-3.4518,-3.6315,-3.7249,0.0,0.0,0.0,0.0,-2.412,-2.4305,-2.3901,-2.3026,-2.2364,-2.1468,0.0,0.0,0.0,0.0,-2.1525,-2.3054,0.0,0.0,0.0,0.0,0.0,0.0,0.0,0.0,-2.5312,0.0,0.0,0.0,0.0,0.0,0.0,0.0,0.0,0.0,0.0,0.0,0.0,0.0,0.0,0.0,0.0,0.0,0.0,0.0,0.0,0.0,0.0,0.0,0.0,0.0,0.0,0.0,0.0,0.0,0.0,0.0,0.0,0.0,0.0,-5.401,-5.3973,-5.4276,-5.4882,-5.486,-5.4829,-5.4829,-5.4087,-5.3277,-5.2391,0.0,0.0,0.0,0.0,0.0,0.0,-5.0508,-4.9907,-4.8866,-4.9017,-4.824,-4.7072,-4.6268,-4.5533,-4.4742,0.0,0.0,0.0,0.0,0.0,0.0,0.0,0.0,0.0,0.0,0.0,0.0,0.0,0.0,0.0,0.0,0.0,0.0,0.0,0.0,0.0,0.0,0.0,0.0,0.0,0.0,0.0,0.0,0.0,-3.7321,0.0,0.0,0.0,0.0,0.0,0.0,-2.4378,-2.399,-2.327,-2.2414,-2.1994,0.0,0.0,0.0,0.0,0.0,-2.1083,-2.2236,0.0,-2.4036,-2.5063,-2.6067,0.0,0.0,0.0,0.0,-2.5032,-2.5698,-2.5703,0.0,0.0,0.0,0.0,0.0,0.0,0.0,0.0,0.0,0.0,0.0,0.0,0.0,0.0,0.0,0.0,0.0,0.0,0.0,0.0,0.0,0.0,0.0,0.0,0.0,0.0,0.0,0.0,0.0,0.0,0.0,0.0,0.0,-5.3328,-5.3328,-5.3745,-5.4035,-5.4193,-5.4193,-5.3648,-5.2944,-5.2059,0.0,0.0,0.0,0.0,0.0,-4.986,-5.0277,-5.0192,-4.9712,-4.9493,-4.8994,-4.8216,-4.6742,-4.5886,-4.5318,0.0,0.0,0.0,0.0,0.0,0.0,0.0,0.0,0.0,0.0,0.0,0.0,0.0,0.0,0.0,0.0,0.0,0.0,0.0,0.0,0.0,0.0,0.0,0.0,0.0,0.0,0.0,0.0,0.0,0.0,0.0,0.0,0.0,0.0,0.0,0.0,-2.4336,-2.3325,-2.2442,-2.1687,-2.1628,0.0,0.0,0.0,0.0,0.0,0.0,0.0,0.0,-2.4956,-2.5807,-2.5819,-2.6066,0.0,0.0,0.0,0.0,0.0,-2.5858,-2.7102,-2.8168,0.0,0.0,0.0,0.0,0.0,0.0,0.0,0.0,0.0,0.0,0.0,0.0,0.0,0.0,0.0,0.0,0.0,0.0,0.0,0.0,0.0,0.0,0.0,0.0,0.0,0.0,0.0,0.0,0.0,0.0,0.0,-5.2911,-5.2466,-5.2201,-5.3059,-5.3558,-5.3641,-5.3314,-5.2799,-5.2059,-5.0986,0.0,0.0,0.0,0.0,-4.9562,-5.0053,-5.0489,-5.0796,-5.0294,-4.9959,-4.9527,-4.7237,-4.6226,-4.5731,0.0,0.0,0.0,0.0,0.0,0.0,0.0,0.0,0.0,0.0,0.0,0.0,0.0,0.0,0.0,0.0,0.0,0.0,0.0,0.0,0.0,0.0,0.0,0.0,0.0,0.0,0.0,0.0,0.0,0.0,-4.4279,-4.7932,-4.5007,0.0,0.0,-2.6552,-2.43,-2.2689,-2.1885,-2.1648,0.0,0.0,0.0,0.0,0.0,0.0,0.0,0.0,0.0,-2.1765,-2.3784,-2.6222,-2.3437,0.0,0.0,0.0,0.0,0.0,-2.6523,-2.7996,-2.8909,0.0,0.0,0.0,0.0,0.0,0.0,0.0,0.0,0.0,0.0,0.0,0.0,0.0,0.0,0.0,0.0,0.0,0.0,0.0,0.0,0.0,0.0,0.0,0.0,0.0,0.0,0.0,0.0,0.0,0.0,0.0,0.0,-5.2643,-5.1206,-5.2696,-5.3698,-5.4312,-5.2855,-5.2076,-5.1855,-5.0188,-4.9342,0.0,0.0,0.0,-4.8827,-4.9368,-4.9367,-4.9169,-4.9222,-4.8479,-4.7282,-4.6433,-4.5433,-4.437,0.0,0.0,0.0,0.0,0.0,0.0,0.0,0.0,0.0,0.0,0.0,0.0,0.0,0.0,0.0,0.0,0.0,0.0,0.0,0.0,0.0,0.0,0.0,0.0,0.0,0.0,0.0,0.0,0.0,-4.6519,-4.8138,-4.5978,-4.1435,-3.482,0.0,-2.5223,-2.3585,-2.1854,-2.1079,-2.0986,0.0,0.0,0.0,0.0,0.0,0.0,0.0,0.0,0.0,0.0,-2.3813,-2.5793,-2.3281,0.0,0.0,0.0,0.0,0.0,-2.6015,-2.7492,-2.847,0.0,0.0,0.0,0.0,0.0,0.0,0.0,0.0,0.0,0.0,0.0,0.0,0.0,0.0,0.0,0.0,0.0,0.0,0.0,0.0,0.0,0.0,0.0,0.0,0.0,0.0,0.0,0.0,0.0,0.0,0.0,0.0,0.0,-5.2258,-5.2918,-5.3193,-5.3085,-5.1823,-5.1382,-5.1653,-4.9944,-4.9168,0.0,0.0,-4.8605,-4.8569,-4.8989,-4.8986,-4.872,-4.859,-4.8005,-4.7119,-4.5794,-4.4666,-4.3689,0.0,0.0,0.0,0.0,0.0,0.0,0.0,0.0,0.0,0.0,0.0,0.0,0.0,0.0,0.0,0.0,0.0,0.0,0.0,0.0,0.0,0.0,0.0,0.0,0.0,0.0,0.0,-4.5424,-4.7758,-4.9498,-5.0448,-4.3519,-3.7909,0.0,0.0,-2.4468,-2.298,-2.1437,-2.0619,-2.0437,0.0,0.0,0.0,0.0,0.0,0.0,0.0,0.0,0.0,0.0,0.0,0.0,0.0,0.0,0.0,0.0,-2.4615,-2.5182,-2.6053,-2.7219,-2.7987,0.0,0.0,0.0,0.0,0.0,0.0,0.0,0.0,0.0,0.0,0.0,0.0,0.0,0.0,0.0,0.0,0.0,0.0,0.0,0.0,0.0,0.0,0.0,0.0,0.0,0.0,0.0,0.0,0.0,0.0,0.0,0.0,0.0,-5.3301,-5.2944,-5.2686,-5.2461,-5.1349,-5.1062,-5.1516,-4.9809,-4.9068,-4.9033,-4.8678,-4.8532,-4.8456,-4.8685,-4.8647,-4.8388,-4.8074,-4.7583,-4.679,-4.5219,-4.4019,-4.302,0.0,0.0,0.0,0.0,0.0,0.0,0.0,0.0,0.0,0.0,0.0,0.0,0.0,0.0,0.0,0.0,0.0,0.0,0.0,0.0,0.0,0.0,0.0,0.0,0.0,-4.0682,-4.2922,-4.7206,-4.9036,-4.9565,-4.8788,-4.4171,-3.931,-3.4322,0.0,-2.6055,-2.2945,-2.2022,-2.113,-2.0463,-2.1191,0.0,0.0,0.0,0.0,0.0,0.0,0.0,0.0,0.0,0.0,0.0,0.0,0.0,0.0,0.0,0.0,-2.6987,-2.7811,-2.8062,0.0,0.0,0.0,0.0,0.0,0.0,0.0,0.0,0.0,0.0,0.0,0.0,0.0,0.0,0.0,0.0,0.0,0.0,0.0,0.0,0.0,0.0,0.0,0.0,0.0,0.0,0.0,0.0,0.0,0.0,0.0,0.0,0.0,0.0,-5.3301,-5.2348,-5.2623,-5.4121,-5.2333,-5.1516,-5.1484,-4.974,-4.8892,-4.8787,-4.8606,-4.8457,-4.8306,-4.8145,-4.7861,-4.7558,-4.7339,-4.6372,-4.5009,-4.4508,-4.3373,-4.2064,0.0,0.0,0.0,0.0,0.0,0.0,0.0,0.0,0.0,0.0,0.0,0.0,0.0,0.0,0.0,0.0,0.0,0.0,0.0,0.0,0.0,0.0,0.0,-3.4099,-3.9447,-4.2162,-4.5333,-4.9094,-4.9691,-4.8725,-4.616,-4.1846,0.0,0.0,0.0,-2.7372,-2.5963,-2.4089,-2.3048,-2.2617,-2.1868,-2.1812,0.0,0.0,0.0,0.0,0.0,0.0,0.0,0.0,0.0,0.0,0.0,0.0,0.0,0.0,0.0,0.0,-2.5624,-2.691,0.0,0.0,0.0,0.0,0.0,0.0,0.0,0.0,0.0,0.0,0.0,0.0,0.0,0.0,0.0,0.0,0.0,0.0,0.0,0.0,0.0,0.0,0.0,0.0,0.0,0.0,0.0,0.0,0.0,0.0,0.0,0.0,0.0,0.0,0.0,-5.2469,-5.222,-5.3271,-5.1001,-5.041,-5.1231,-4.9491,-4.8455,-4.7975,-4.8311,-4.8087,-4.7494,-4.7262,-4.727,-4.7284,-4.607,-4.5137,-4.43,-4.3335,-4.2825,-4.2699,0.0,0.0,0.0,0.0,0.0,0.0,0.0,0.0,0.0,0.0,0.0,0.0,0.0,0.0,0.0,0.0,0.0,0.0,0.0,0.0,0.0,0.0,0.0,-3.3476,-3.7305,-4.132,-4.5047,-4.8504,-4.8698,-4.7026,-4.3522,0.0,0.0,0.0,0.0,0.0,0.0,-2.6146,-2.4778,-2.4396,-2.288,-2.245,0.0,0.0,0.0,0.0,0.0,0.0,0.0,0.0,0.0,0.0,0.0,0.0,0.0,0.0,0.0,0.0,-2.4603,-2.6325,0.0,0.0,0.0,0.0,0.0,0.0,0.0,0.0,0.0,0.0,0.0,0.0,0.0,0.0,0.0,0.0,0.0,0.0,0.0,0.0,0.0,0.0,0.0,0.0,0.0,0.0,0.0,0.0,0.0,0.0,0.0,0.0,0.0,0.0,0.0,-5.1765,-5.1183,-5.186,-4.9524,-4.9083,-5.0306,-4.8532,-4.7426,-4.6911,-4.7352,-4.7203,-4.6499,-4.6382,-4.6535,-4.6748,-4.561,-4.4918,-4.4302,-4.309,-4.2745,-4.2948,0.0,0.0,0.0,0.0,0.0,0.0,0.0,0.0,0.0,0.0,0.0,0.0,0.0,0.0,0.0,0.0,0.0,0.0,0.0,0.0,0.0,0.0,0.0,-3.2109,-3.4648,-3.8084,-4.1515,-4.4976,-4.5757,-4.4345,-4.0914,0.0,0.0,0.0,0.0,0.0,0.0,0.0,-2.615,-2.5332,-2.4418,-2.3515,-2.3007,0.0,0.0,0.0,0.0,0.0,0.0,0.0,0.0,0.0,0.0,0.0,0.0,0.0,0.0,-2.5598,-2.5613,0.0,0.0,0.0,0.0,0.0,0.0,0.0,0.0,0.0,0.0,0.0,0.0,0.0,0.0,0.0,0.0,0.0,0.0,0.0,0.0,0.0,0.0,0.0,0.0,0.0,0.0,0.0,0.0,0.0,0.0,0.0,0.0,0.0,0.0,0.0,0.0,-5.0085,-4.9542,-5.0152,-4.827,-4.7757,-4.8458,-4.6691,-4.5883,-4.5772,-4.5623,-4.5583,-4.5467,-4.5503,-4.5616,-4.5811,-4.6189,-4.5835,-4.5005,-4.4092,-4.328,-4.2599,0.0,0.0,0.0,0.0,0.0,0.0,0.0,0.0,0.0,0.0,0.0,0.0,0.0,0.0,0.0,0.0,0.0,0.0,0.0,0.0,0.0,0.0,0.0,0.0,0.0,0.0,-3.7617,-4.224,-4.1866,-4.0505,0.0,0.0,0.0,-3.4704,0.0,0.0,0.0,0.0,-2.8214,-2.7841,-2.5713,-2.4732,-2.46,0.0,0.0,0.0,0.0,0.0,0.0,0.0,0.0,0.0,0.0,0.0,0.0,0.0,-2.5634,-2.5593,-2.5589,0.0,0.0,0.0,0.0,0.0,0.0,0.0,0.0,0.0,0.0,0.0,0.0,0.0,0.0,0.0,0.0,0.0,0.0,0.0,0.0,0.0,0.0,0.0,0.0,0.0,0.0,0.0,0.0,0.0,0.0,0.0,0.0,0.0,0.0,0.0,0.0,0.0,-4.865,-4.9191,-4.6829,-4.6356,-4.75,-4.636,-4.5443,-4.482,-4.5366,-4.5255,-4.4667,-4.5012,-4.4677,-4.3917,-4.386,-4.3593,-4.3103,-4.1999,-4.1818,-4.2022,0.0,0.0,0.0,0.0,0.0,0.0,0.0,0.0,0.0,0.0,0.0,0.0,0.0,0.0,0.0,0.0,0.0,0.0,0.0,0.0,0.0,0.0,0.0,0.0,0.0,-3.3068,-3.4413,0.0,0.0,0.0,0.0,0.0,0.0,-3.5902,0.0,-3.7114,0.0,0.0,-3.0237,-2.937,-2.711,-2.6036,-2.5838,0.0,0.0,0.0,0.0,0.0,0.0,0.0,0.0,0.0,0.0,0.0,0.0,0.0,-2.4865,-2.5113,0.0,0.0,0.0,0.0,0.0,0.0,0.0,0.0,0.0,0.0,0.0,0.0,0.0,0.0,0.0,0.0,0.0,0.0,0.0,0.0,0.0,0.0,0.0,0.0,0.0,0.0,0.0,0.0,0.0,0.0,0.0,0.0,0.0,0.0,0.0,0.0,0.0,0.0,0.0,-4.727,-4.602,-4.5477,-4.5517,-4.5004,-4.4455,-4.3943,-4.4304,-4.4193,-4.3754,-4.4191,-4.3893,-4.3076,-4.3125,-4.2987,-4.2583,-4.1533,-4.1351,-4.1594,0.0,0.0,0.0,0.0,0.0,0.0,0.0,0.0,0.0,0.0,0.0,0.0,0.0,0.0,0.0,0.0,0.0,0.0,0.0,0.0,0.0,0.0,0.0,0.0,0.0,0.0,0.0,0.0,0.0,0.0,0.0,0.0,-3.7588,-3.8274,0.0,-3.958,0.0,-3.4091,-3.1707,-3.0062,-2.8389,-2.7313,-2.6813,-2.7605,0.0,0.0,0.0,0.0,0.0,0.0,0.0,0.0,0.0,0.0,0.0,-2.3481,-2.3733,0.0,0.0,0.0,0.0,0.0,0.0,0.0,0.0,0.0,0.0,0.0,0.0,0.0,0.0,0.0,0.0,0.0,0.0,0.0,0.0,0.0,0.0,0.0,0.0,0.0,0.0,0.0,0.0,0.0,0.0,0.0,0.0,0.0,0.0,0.0,0.0,0.0,0.0,0.0,0.0,0.0,-4.5805,-4.5149,-4.3433,-4.3287,-4.3142,-4.3067,-4.2878,-4.2802,-4.2799,-4.3197,-4.323,-4.2962,-4.3278,-4.3214,-4.2871,-4.1931,-4.1442,-4.1206,0.0,0.0,0.0,0.0,0.0,0.0,0.0,0.0,0.0,0.0,0.0,0.0,0.0,0.0,0.0,0.0,0.0,0.0,0.0,0.0,0.0,0.0,0.0,0.0,0.0,0.0,0.0,0.0,0.0,0.0,0.0,0.0,0.0,-3.8403,0.0,-3.8091,-3.4958,-3.1416,-2.9693,-2.9264,-2.8214,-2.7708,-2.7663,-2.7962,-2.6896,0.0,0.0,0.0,0.0,0.0,0.0,0.0,0.0,-2.4305,-2.5233,-2.4394,-2.4597,0.0,0.0,0.0,0.0,0.0,0.0,0.0,0.0,0.0,0.0,0.0,0.0,0.0,0.0,0.0,0.0,0.0,0.0,0.0,0.0,0.0,0.0,0.0,0.0,0.0,0.0,0.0,0.0,0.0,0.0,0.0,0.0,0.0,0.0,0.0,0.0,0.0,-4.8002,-4.7234,-4.6884,0.0,-4.6284,-4.5736,-4.5187,-4.3835,-4.3068,-4.2878,-4.284,-4.2649,-4.2445,-4.2507,-4.2328,-4.1859,-4.1136,-4.1024,-4.1091,-4.0109,-4.0016,-4.0341,0.0,0.0,0.0,0.0,0.0,0.0,0.0,0.0,0.0,0.0,0.0,0.0,0.0,0.0,0.0,0.0,0.0,0.0,0.0,0.0,0.0,0.0,0.0,0.0,0.0,0.0,0.0,0.0,0.0,0.0,0.0,0.0,0.0,-3.7816,0.0,-3.7444,-3.3674,-3.1835,-3.0297,-2.9044,-2.8632,-2.8482,-2.8454,-2.7729,-2.6398,-2.4817,-2.4043,0.0,0.0,0.0,0.0,0.0,0.0,0.0,-2.508,-2.5017,-2.4918,-2.5188,0.0,0.0,0.0,0.0,0.0,0.0,0.0,0.0,0.0,0.0,0.0,0.0,0.0,0.0,0.0,0.0,0.0,0.0,0.0,0.0,0.0,0.0,0.0,0.0,0.0,0.0,0.0,0.0,0.0,0.0,0.0,0.0,0.0,0.0,0.0,0.0,-4.6807,-4.6233,-4.5848,-4.5688,-4.5105,-4.4525,-4.3944,-4.3798,-4.3394,-4.2802,-4.2727,-4.253,-4.2287,-4.2199,-4.1909,-4.1436,-4.0711,-4.0444,-4.0451,-3.9747,-3.9749,-3.9919,0.0,0.0,0.0,0.0,0.0,0.0,0.0,0.0,0.0,0.0,0.0,0.0,0.0,0.0,0.0,0.0,0.0,0.0,0.0,0.0,0.0,0.0,0.0,0.0,0.0,0.0,0.0,0.0,0.0,0.0,0.0,0.0,0.0,-3.7381,0.0,0.0,-3.3306,-3.2607,-3.0994,-2.8901,-2.8779,-2.8656,-2.8425,-2.7163,-2.5615,-2.4019,-2.3497,-2.3132,-2.3033,-2.389,0.0,0.0,0.0,0.0,-2.4303,-2.4868,-2.4555,-2.4374,0.0,0.0,0.0,0.0,0.0,0.0,0.0,0.0,0.0,0.0,0.0,0.0,0.0,0.0,0.0,0.0,0.0,0.0,0.0,0.0,0.0,0.0,0.0,0.0,0.0,0.0,0.0,0.0,0.0,0.0,0.0,0.0,0.0,0.0,0.0,-4.5761,-4.5058,-4.4867,-4.4448,-4.3804,-4.3634,-4.3096,-4.2231,-4.3397,-4.3429,-4.2546,-4.2537,-4.2409,-4.2205,-4.203,-4.1578,-4.108,-4.0723,-4.0275,-3.9815,-3.9564,-3.9463,-3.9396,0.0,0.0,0.0,0.0,0.0,0.0,0.0,0.0,0.0,0.0,0.0,0.0,0.0,0.0,0.0,0.0,0.0,0.0,0.0,0.0,0.0,0.0,0.0,0.0,0.0,0.0,0.0,0.0,0.0,0.0,0.0,0.0,0.0,-3.8272,0.0,0.0,0.0,-3.0358,-2.8512,-2.8,-2.7314,-2.6588,-2.597,-2.6558,-2.529,-2.3266,-2.3975,-2.3293,-2.2172,-2.2994,-2.3259,0.0,0.0,0.0,0.0,0.0,0.0,0.0,0.0,0.0,0.0,0.0,0.0,0.0,0.0,0.0,0.0,0.0,0.0,0.0,0.0,0.0,0.0,0.0,0.0,0.0,0.0,0.0,0.0,0.0,0.0,0.0,0.0,0.0,0.0,0.0,0.0,0.0,0.0,0.0,-4.2938,-4.2921,-4.266,0.0,-4.3245,-4.3132,-4.3272,-4.3804,-4.36,-4.3321,-4.2923,-4.2522,-4.205,-4.1602,-4.2123,-4.2163,-4.1866,-4.1692,-4.0996,-3.9986,-3.9718,-3.8928,-3.7999,-3.7753,-3.7653,-3.7736,0.0,0.0,0.0,0.0,0.0,0.0,0.0,0.0,0.0,0.0,0.0,0.0,0.0,0.0,0.0,0.0,0.0,0.0,0.0,0.0,0.0,0.0,0.0,0.0,0.0,0.0,0.0,0.0,0.0,0.0,0.0,-3.2168,-3.4413,0.0,0.0,0.0,0.0,0.0,0.0,-2.7279,-2.7387,-2.7194,-2.6738,-2.5744,-2.4968,-2.4379,-2.3828,-2.2838,-2.2035,-2.3364,-2.3826,-2.3741,-2.3397,0.0,0.0,0.0,0.0,0.0,0.0,0.0,0.0,0.0,0.0,0.0,0.0,0.0,0.0,0.0,0.0,0.0,0.0,0.0,0.0,0.0,0.0,0.0,0.0,0.0,0.0,0.0,0.0,0.0,0.0,0.0,0.0,0.0,0.0,0.0,0.0,-4.2161,-4.21,-4.2382,-4.2083,0.0,-4.2209,-4.1616,-4.165,-4.2336,-4.1765,-4.1599,-4.1758,-4.0887,-4.0818,-4.1423,-4.1626,-4.1487,-4.111,-4.1016,-4.0209,-3.8986,-3.8662,-3.8125,-3.755,-3.7203,-3.7203,-3.7319,0.0,0.0,0.0,0.0,0.0,0.0,0.0,0.0,0.0,0.0,0.0,0.0,0.0,0.0,0.0,0.0,0.0,0.0,0.0,0.0,0.0,0.0,0.0,0.0,0.0,0.0,0.0,0.0,0.0,0.0,-3.0544,-3.0502,-3.2673,0.0,-3.3673,0.0,0.0,0.0,0.0,0.0,0.0,0.0,0.0,0.0,0.0,-2.5135,-2.4302,-2.3465,-2.3019,-2.4507,-2.4896,-2.4701,-2.4713,-2.4596,0.0,0.0,0.0,0.0,0.0,0.0,0.0,0.0,0.0,0.0,0.0,0.0,0.0,0.0,0.0,0.0,0.0,0.0,0.0,0.0,0.0,0.0,0.0,0.0,0.0,0.0,0.0,0.0,0.0,0.0,0.0,0.0,0.0,0.0,-4.1439,-4.128,-4.1358,-4.173,-4.1481,-4.1247,-4.0998,-4.023,-4.0161,-4.0845,-3.9942,-3.9845,-4.0409,-3.9438,-3.9626,-4.0773,-4.0796,-4.0552,-4.0215,-4.0122,-3.9276,-3.8014,-3.7801,-3.7345,-3.6786,-3.6687,-3.6654,-3.6621,0.0,0.0,0.0,0.0,0.0,0.0,0.0,0.0,0.0,0.0,0.0,0.0,0.0,0.0,0.0,0.0,0.0,0.0,0.0,0.0,0.0,0.0,0.0,0.0,0.0,0.0,0.0,0.0,0.0,0.0,-2.9569,-2.9646,-3.1506,-3.4804,-3.3774,-3.2834,-3.182,0.0,0.0,0.0,0.0,0.0,0.0,0.0,0.0,0.0,0.0,0.0,-2.5537,-2.6446,-2.6212,-2.5546,-2.5601,-2.506,-2.4085,0.0,0.0,0.0,0.0,0.0,0.0,0.0,0.0,0.0,0.0,0.0,0.0,0.0,0.0,0.0,0.0,0.0,0.0,0.0,0.0,0.0,0.0,0.0,0.0,0.0,0.0,0.0,0.0,0.0,0.0,0.0,0.0,0.0,-4.0562,-4.0381,-4.0157,-3.9958,-3.9701,-3.9421,-3.9155,-3.8884,-3.9135,-3.9845,-3.894,-3.8842,-3.954,-3.857,-3.8507,-3.9047,-3.9491,-3.9488,-3.9153,-3.8973,-3.8126,-3.6978,-3.7393,-3.6486,-3.5081,-3.563,-3.5416,-3.4937,0.0,0.0,0.0,0.0,0.0,0.0,0.0,0.0,0.0,0.0,0.0,0.0,0.0,0.0,0.0,0.0,0.0,0.0,0.0,0.0,0.0,0.0,0.0,0.0,0.0,0.0,0.0,0.0,0.0,-2.6926,-2.8665,-2.8711,-2.9411,-3.0618,-3.0824,-3.1036,-3.1066,-2.839,0.0,0.0,0.0,0.0,0.0,0.0,0.0,0.0,0.0,0.0,0.0,-2.8207,-2.7929,-2.6907,-2.5294,-2.4593,-2.3879,0.0,0.0,0.0,0.0,0.0,0.0,0.0,0.0,0.0,0.0,0.0,0.0,0.0,0.0,0.0,0.0,0.0,0.0,0.0,0.0,0.0,0.0,0.0,0.0,0.0,0.0,0.0,0.0,0.0,0.0,0.0,0.0,0.0,-4.0438,-4.0286,-4.004,-3.967,-3.9526,-3.9272,-3.8862,-3.875,-3.903,-3.9674,-3.9316,-3.9182,-3.9298,-3.8868,-3.8403,-3.7931,-3.7987,-3.8174,-3.8349,-3.7617,-3.6535,-3.5328,-3.4813,-3.4451,-3.422,-3.4343,-3.4277,-3.4173,0.0,0.0,0.0,0.0,0.0,0.0,0.0,0.0,0.0,0.0,0.0,0.0,0.0,0.0,0.0,0.0,0.0,0.0,0.0,0.0,0.0,0.0,0.0,0.0,0.0,0.0,0.0,0.0,0.0,0.0,0.0,-2.7809,-2.8008,-2.832,-2.8539,-2.9146,0.0,0.0,0.0,-2.6443,0.0,0.0,-2.8027,0.0,0.0,0.0,0.0,0.0,0.0,0.0,0.0,0.0,0.0,0.0,0.0,0.0,0.0,0.0,0.0,0.0,0.0,0.0,0.0,0.0,0.0,0.0,0.0,0.0,0.0,0.0,0.0,0.0,0.0,0.0,0.0,0.0,0.0,0.0,0.0,0.0,0.0,0.0,0.0,0.0,0.0,0.0,0.0,0.0,-4.0389,-4.0251,-4.0,-3.9551,-3.9324,-3.9055,-3.8713,-3.8559,-3.8802,-3.947,-3.9369,-3.9373,-3.9445,-3.9048,-3.8433,-3.7671,-3.6988,-3.6825,-3.7073,-3.6589,-3.5625,-3.4385,-3.384,-3.3815,-3.406,-3.3966,-3.3881,-3.3822,0.0,0.0,0.0,0.0,0.0,0.0,0.0,0.0,0.0,0.0,0.0,0.0,0.0,0.0,0.0,0.0,0.0,0.0,0.0,0.0,0.0,0.0,0.0,0.0,0.0,0.0,0.0,0.0,0.0,0.0,0.0,0.0,-2.7421,0.0,-2.7343,-2.7419,-2.8159,0.0,-2.7376,-2.8062,0.0,-2.7272,-2.8324,0.0,0.0,0.0,-3.4184,-3.4503,0.0,0.0,0.0,0.0,0.0,0.0,0.0,0.0,0.0,0.0,0.0,0.0,0.0,0.0,0.0,0.0,0.0,0.0,0.0,0.0,0.0,0.0,0.0,0.0,0.0,0.0,0.0,0.0,0.0,0.0,0.0,0.0,0.0,0.0,0.0,0.0,0.0,0.0,0.0,-3.9623,-4.0339,-4.0233,-3.9958,-3.9401,-3.8921,-3.8627,-3.8491,-3.8271,-3.8468,-3.9193,-3.9013,-3.922,-3.9818,-3.8996,-3.8486,-3.8148,-3.6482,-3.5622,-3.5376,-3.5897,-3.5377,-3.4286,-3.4659,-3.4769,-3.4625,-3.4513,-3.4182,-3.3789,0.0,0.0,0.0,0.0,0.0,0.0,0.0,0.0,0.0,0.0,0.0,0.0,0.0,0.0,0.0,0.0,0.0,0.0,0.0,0.0,0.0,0.0,0.0,0.0,0.0,0.0,0.0,0.0,0.0,0.0,0.0,0.0,0.0,0.0,-2.6172,-2.6171,-2.6402,-2.6105,0.0,0.0,-2.6255,-2.7147,0.0,0.0,0.0,0.0,0.0,-3.452,-3.4459,0.0,-3.3448,-3.1872,0.0,0.0,0.0,0.0,0.0,0.0,-1.9805,0.0,0.0,0.0,0.0,0.0,0.0,0.0,0.0,0.0,0.0,0.0,0.0,0.0,0.0,0.0,0.0,0.0,0.0,0.0,0.0,0.0,0.0,0.0,0.0,0.0,0.0,0.0,0.0,-3.9276,-3.9367,-3.9553,-3.9526,-3.9245,-3.8796,-3.8496,-3.8336,-3.8717,-3.8941,-3.8976,-3.9361,-3.9278,-3.8805,-3.8514,-3.7694,-3.6447,-3.5793,-3.4757,-3.352,-3.3687,-3.3598,-3.3403,-3.2971,-3.304,-3.3449,-3.3968,-3.3806,-3.3426,0.0,0.0,0.0,0.0,0.0,0.0,0.0,0.0,0.0,0.0,0.0,0.0,0.0,0.0,0.0,0.0,0.0,0.0,0.0,0.0,0.0,0.0,0.0,0.0,0.0,0.0,0.0,0.0,0.0,0.0,0.0,0.0,0.0,0.0,0.0,0.0,0.0,0.0,0.0,0.0,-2.6151,0.0,0.0,-3.0676,-3.2283,0.0,0.0,0.0,-3.6012,-3.5313,-3.4007,0.0,0.0,0.0,0.0,0.0,0.0,0.0,0.0,0.0,0.0,0.0,0.0,0.0,0.0,-2.0427,0.0,0.0,0.0,0.0,0.0,0.0,0.0,0.0,0.0,0.0,0.0,0.0,0.0,0.0,0.0,0.0,0.0,0.0,0.0,0.0,-3.7617,-3.8367,-3.8842,-3.8946,-3.9039,-3.9137,-3.8435,-3.8068,-3.8171,-3.876,-3.8939,-3.8676,-3.962,-3.9564,-3.8661,-3.8579,-3.758,-3.5998,-3.5134,-3.4094,-3.2923,-3.2388,-3.236,-3.2698,-3.277,-3.3105,-3.355,-3.3896,-3.3728,-3.3313,0.0,0.0,0.0,0.0,0.0,0.0,0.0,0.0,0.0,0.0,0.0,0.0,0.0,0.0,0.0,0.0,0.0,0.0,0.0,0.0,0.0,0.0,0.0,0.0,0.0,0.0,0.0,0.0,0.0,0.0,0.0,0.0,0.0,0.0,0.0,0.0,0.0,0.0,0.0,-2.5823,-2.6446,-2.8307,0.0,0.0,-3.4628,0.0,-3.6936,-3.745,-3.7868,-3.6211,-3.3916,0.0,0.0,0.0,0.0,0.0,-2.1863,0.0,0.0,0.0,0.0,0.0,0.0,0.0,-2.104,-2.05,-2.0276,0.0,0.0,0.0,0.0,0.0,0.0,0.0,0.0,0.0,0.0,0.0,0.0,0.0,0.0,0.0,0.0,0.0,0.0,-3.6334,-3.6588,-3.7228,-3.8497,-3.838,-3.8439,-3.8785,-3.7882,-3.7525,-3.7823,-3.851,-3.864,-3.8244,-3.9491,-3.9643,-3.8842,-3.8642,-3.7612,-3.6008,-3.4507,-3.3564,-3.2984,-3.1772,-3.1556,-3.2194,-3.3372,-3.3918,-3.4061,-3.403,-3.3845,-3.3427,0.0,0.0,0.0,0.0,0.0,0.0,0.0,0.0,0.0,0.0,0.0,0.0,0.0,0.0,0.0,0.0,0.0,0.0,0.0,0.0,0.0,0.0,0.0,0.0,0.0,0.0,0.0,0.0,0.0,0.0,0.0,0.0,0.0,0.0,0.0,0.0,0.0,0.0,0.0,-2.6682,-2.6123,0.0,-3.1754,-3.2117,-3.3425,-3.5174,-3.5818,-3.6151,-3.6133,0.0,-3.2957,-3.0394,0.0,0.0,0.0,0.0,0.0,0.0,0.0,0.0,0.0,0.0,0.0,0.0,-2.1972,-2.1734,-2.1615,0.0,0.0,0.0,0.0,0.0,0.0,0.0,0.0,0.0,0.0,0.0,0.0,0.0,0.0,0.0,0.0,0.0,-3.3749,-3.4529,-3.5752,-3.684,-3.7679,-3.7445,-3.7205,-3.7076,-3.7235,-3.7144,-3.6719,-3.7893,-3.8294,-3.7923,-3.8077,-3.8018,-3.7785,-3.7034,-3.5813,-3.4213,-3.37,-3.3051,-3.2236,-3.1362,-3.1348,-3.1926,-3.2437,-3.2664,-3.278,-3.3397,-3.3325,-3.2911,0.0,0.0,0.0,0.0,0.0,0.0,0.0,0.0,0.0,0.0,0.0,0.0,0.0,0.0,0.0,0.0,0.0,0.0,0.0,0.0,0.0,0.0,0.0,0.0,0.0,0.0,0.0,0.0,0.0,0.0,0.0,0.0,0.0,0.0,0.0,0.0,0.0,0.0,-2.7105,-2.8223,-2.7296,0.0,-3.1465,-3.1858,-3.2817,-3.4061,-3.4839,-3.4844,-3.4371,-3.3896,-3.2568,0.0,0.0,-2.7516,-2.6018,0.0,-2.2652,-2.1816,0.0,0.0,0.0,-2.1589,0.0,0.0,0.0,-2.2651,-2.2224,0.0,0.0,0.0,0.0,0.0,0.0,0.0,0.0,0.0,0.0,0.0,0.0,0.0,0.0,0.0,0.0,0.0,-3.3056,-3.3384,-3.4448,-3.5417,-3.6121,-3.5598,-3.561,-3.6424,-3.5789,-3.5742,-3.6256,-3.7243,-3.7532,-3.704,-3.7759,-3.7629,-3.6697,-3.6224,-3.507,-3.3522,-3.2942,-3.2437,-3.1943,-3.1623,-3.1683,-3.1934,-3.2184,-3.2428,-3.2582,-3.2997,-3.3014,-3.2792,0.0,0.0,0.0,0.0,0.0,0.0,0.0,0.0,0.0,0.0,0.0,0.0,0.0,0.0,0.0,0.0,0.0,0.0,0.0,0.0,0.0,0.0,0.0,-2.5215,0.0,0.0,0.0,0.0,0.0,0.0,0.0,0.0,0.0,0.0,0.0,0.0,0.0,0.0,0.0,-2.9796,0.0,-2.9649,-3.1125,-3.1741,-3.2545,-3.3354,-3.3813,-3.3403,-3.256,-3.2385,0.0,-3.0837,-2.8945,-2.7443,0.0,0.0,0.0,0.0,0.0,0.0,0.0,0.0,0.0,-2.373,0.0,0.0,0.0,-2.37,0.0,0.0,0.0,0.0,0.0,0.0,0.0,0.0,0.0,0.0,0.0,0.0,0.0,0.0,0.0,0.0,-3.2173,-3.2675,-3.2966,-3.3422,-3.4093,-3.3581,-3.3911,-3.5329,-3.4229,-3.4238,-3.5614,-3.6421,-3.6606,-3.6118,-3.7447,-3.7247,-3.5814,-3.5508,-3.4563,-3.3035,-3.2328,-3.2001,-3.2007,-3.2093,-3.2236,-3.2505,-3.2577,-3.265,-3.2779,-3.2995,-3.3003,-3.2873,0.0,0.0,0.0,0.0,0.0,0.0,0.0,0.0,0.0,0.0,0.0,0.0,0.0,0.0,0.0,0.0,0.0,0.0,-3.2831,0.0,0.0,0.0,0.0,0.0,-2.4683,0.0,0.0,0.0,0.0,0.0,0.0,0.0,0.0,0.0,-2.3979,0.0,0.0,0.0,-2.9766,0.0,-3.0567,-3.1094,0.0,-3.1993,-3.2545,-3.3199,-3.2404,-3.1555,-3.0683,0.0,-2.9444,-2.8849,0.0,-2.5945,0.0,0.0,0.0,0.0,0.0,0.0,0.0,0.0,-2.6952,0.0,0.0,0.0,-2.5319,-2.4698,0.0,0.0,0.0,0.0,0.0,0.0,0.0,0.0,0.0,0.0,0.0,0.0,0.0,0.0,0.0,0.0,0.0,-3.2582,-3.144,-3.092,-3.1678,-3.2165,-3.2306,-3.2072,-3.3057,-3.3695,-3.3882,-3.5212,-3.5719,-3.5405,-3.5925,-3.5718,-3.5027,-3.4553,-3.3483,-3.195,-3.1968,-3.2302,-3.275,-3.2295,-3.3009,-3.4321,-3.3775,-3.3134,-3.2735,-3.3618,-3.3602,-3.309,0.0,0.0,0.0,0.0,0.0,0.0,0.0,0.0,0.0,0.0,0.0,0.0,0.0,0.0,0.0,0.0,0.0,-3.3918,0.0,0.0,0.0,0.0,0.0,0.0,0.0,0.0,0.0,0.0,-2.4132,0.0,0.0,0.0,0.0,0.0,-2.4701,0.0,-2.6613,0.0,0.0,0.0,0.0,0.0,0.0,-3.1849,-3.2213,-3.2352,-3.1381,-3.05,-2.9687,0.0,-2.8434,0.0,0.0,0.0,0.0,0.0,0.0,0.0,0.0,0.0,0.0,0.0,0.0,0.0,0.0,0.0,-2.6577,0.0,0.0,0.0,0.0,0.0,0.0,0.0,0.0,0.0,0.0,0.0,0.0,0.0,0.0,0.0,0.0,0.0,0.0,0.0,0.0,-2.83,-2.8941,-2.9639,-3.0221,-3.0613,-3.1518,-3.2325,-3.2966,-3.3987,-3.4539,-3.4688,-3.4915,-3.476,-3.4329,-3.3632,-3.284,-3.215,-3.1753,-3.1873,-3.2369,-3.2765,-3.3009,-3.3237,-3.3998,-3.3967,-3.3476,-3.3494,-3.3329,-3.3058,-2.4392,0.0,0.0,0.0,0.0,0.0,0.0,0.0,0.0,0.0,0.0,0.0,-4.4535,-4.2564,0.0,0.0,-3.778,-3.5727,0.0,0.0,-3.0841,0.0,0.0,0.0,0.0,0.0,0.0,0.0,0.0,0.0,0.0,0.0,0.0,0.0,0.0,-2.5757,-2.6754,0.0,0.0,-2.9647,-3.0234,-3.0611,-3.0841,-3.1143,-3.1103,-3.0741,-2.9805,-2.9052,-2.8499,-2.8489,-2.7577,0.0,-2.7308,0.0,0.0,0.0,0.0,0.0,-2.5136,0.0,0.0,0.0,0.0,0.0,0.0,0.0,0.0,0.0,0.0,0.0,0.0,0.0,0.0,0.0,0.0,0.0,0.0,0.0,0.0,0.0,0.0,0.0,0.0,0.0,0.0,0.0,-2.5695,0.0,-2.6556,-2.7466,-2.8477,-2.96,-3.0423,-3.1416,-3.2473,-3.3247,-3.3811,-3.4152,-3.4289,-3.4175,-3.3809,-3.2951,-3.2412,-3.2134,-3.1628,-3.1681,-3.2266,-3.3257,-3.3257,-3.2795,-3.4336,-3.4794,-3.448,-3.364,-3.3401,-3.341,-2.5704,-2.7533,0.0,0.0,0.0,0.0,0.0,0.0,0.0,0.0,0.0,0.0,0.0,0.0,0.0,0.0,0.0,-3.7822,-3.9189,0.0,-3.2366,0.0,0.0,-2.9243,0.0,0.0,0.0,0.0,0.0,0.0,0.0,0.0,0.0,0.0,0.0,-2.4827,-2.578,-2.7618,-2.8847,-2.9599,-2.9648,-3.0088,-3.0686,0.0,-2.8946,-2.8109,-2.7177,0.0,0.0,-2.6677,-2.6584,0.0,0.0,0.0,0.0,0.0,0.0,0.0,0.0,0.0,0.0,-2.867,0.0,0.0,0.0,0.0,-2.9289,0.0,0.0,0.0,0.0,0.0,0.0,0.0,0.0,0.0,0.0,0.0,0.0,0.0,0.0,0.0,0.0,0.0,0.0,0.0,-2.3882,0.0,-2.4737,-2.6163,-2.7483,-2.8626,-3.0053,-3.1351,-3.2472,-3.3316,-3.3705,-3.3706,-3.4047,-3.3935,-3.342,-3.2754,-3.2183,-3.1538,-3.1542,-3.2101,-3.2934,-3.3658,-3.4125,-3.4391,-3.5188,-3.5622,-3.5674,-3.4362,-3.4125,-3.4364,-2.763,-2.8748,-2.9271,0.0,0.0,0.0,0.0,-3.7144,0.0,0.0,0.0,0.0,0.0,-4.305,-4.2686,0.0,0.0,-3.9411,-3.8677,-3.6745,0.0,0.0,0.0,-3.1052,0.0,0.0,0.0,0.0,0.0,0.0,0.0,0.0,0.0,0.0,0.0,-2.4385,0.0,0.0,0.0,0.0,0.0,-2.9188,-2.9835,0.0,0.0,-2.9627,-2.8723,-2.8029,0.0,-2.7479,-2.7054,-2.6677,-2.7246,-2.8103,-2.8862,-2.8605,-2.9513,0.0,0.0,0.0,-3.1857,-3.0481,0.0,0.0,0.0,0.0,0.0,0.0,0.0,0.0,0.0,0.0,0.0,0.0,0.0,0.0,0.0,0.0,0.0,0.0,0.0,0.0,0.0,0.0,0.0,-2.2825,-2.2667,-2.2713,0.0,-2.5374,-2.7037,-2.7755,-2.9665,-3.107,-3.1955,-3.2207,-3.2598,-3.3164,-3.2714,-3.2579,-3.2792,-3.2438,-3.2191,-3.1982,-3.2539,-3.2609,-3.2433,-3.4314,-3.414,-3.2852,-3.4175,-3.4891,-3.5116,-3.4723,-3.4691,-3.473,-2.8448,-2.8933,-2.9072,-2.8306,0.0,0.0,0.0,0.0,0.0,0.0,-4.1005,0.0,-4.2938,0.0,-4.3278,0.0,-4.2109,-4.1104,-3.9537,-3.8376,0.0,-3.5425,-3.3954,0.0,0.0,0.0,0.0,0.0,0.0,-2.5235,0.0,0.0,0.0,0.0,0.0,0.0,0.0,0.0,-2.7242,0.0,0.0,-2.8459,0.0,0.0,-2.9253,0.0,0.0,-2.847,-2.8066,-2.8618,-2.8242,-2.7759,-2.8936,-2.9952,-3.0688,-3.0417,-3.1341,-3.244,-3.2292,-3.2752,0.0,0.0,-3.161,0.0,-3.0358,0.0,0.0,0.0,0.0,0.0,0.0,0.0,0.0,0.0,0.0,0.0,0.0,0.0,0.0,0.0,0.0,0.0,0.0,0.0,-2.1468,-2.1036,-2.1125,-2.1456,0.0,0.0,-2.6607,-2.7691,-2.9897,-3.1356,-3.2117,-3.2184,-3.2434,-3.2898,-3.2335,-3.2275,-3.2608,-3.2721,-3.2757,-3.2792,-3.3318,-3.3213,-3.2757,-3.4298,-3.3878,-3.2371,-3.3633,-3.434,-3.4552,-3.4447,-3.4587,-3.4648,-2.8336,-2.83,-2.8521,-2.9287,-3.0132,0.0,0.0,0.0,-3.7854,0.0,-4.0791,-4.1167,-4.2008,-4.2863,-4.3366,-4.3326,-4.3326,0.0,-4.1716,-4.028,0.0,0.0,-3.4607,-3.3363,-3.1532,0.0,0.0,0.0,0.0,0.0,0.0,0.0,0.0,0.0,-2.1633,0.0,-2.3126,-2.4122,-2.5013,-2.5818,-2.6676,-2.7965,-2.9433,-2.9491,0.0,-2.9362,-2.8476,-2.8177,-2.8458,-2.9979,-3.0037,-2.9719,-3.135,-3.1879,-3.1753,-3.0844,-3.2336,-3.3878,-3.2171,-3.2866,-3.3815,-3.2737,0.0,0.0,0.0,0.0,-3.2106,0.0,0.0,0.0,0.0,0.0,0.0,0.0,0.0,0.0,0.0,0.0,0.0,0.0,0.0,0.0,0.0,-2.0192,-1.9517,-2.0075,-1.9479,-1.9806,0.0,0.0,0.0,-2.8157,-3.0521,-3.2102,-3.2898,-3.3117,-3.3117,-3.2934,-3.2925,-3.2898,-3.2912,-3.3523,-3.3775,-3.3776,-3.381,-3.3845,-3.3809,-3.3776,-3.3419,-3.2973,-3.3559,-3.3979,-3.4142,-3.3704,-3.3875,-3.4191,-2.9354,-2.935,-3.0129,0.0,-3.2845,-3.3771,0.0,0.0,0.0,0.0,-3.975,-4.019,-4.1004,-4.133,-4.1706,-4.2254,-4.2265,0.0,0.0,0.0,0.0,-3.6297,-3.5956,-3.4428,-3.1483,-3.0454,0.0,-2.699,0.0,0.0,-2.5004,0.0,0.0,0.0,0.0,0.0,-2.4006,-2.559,-2.6381,-2.6613,-2.6908,-2.7656,0.0,0.0,-2.9935,-3.0306,-2.938,-2.9493,-3.0093,-3.049,-3.0923,-3.1429,-3.2513,-3.3218,-3.36,-3.3373,-3.4198,-3.5046,-3.4595,-3.4717,-3.4734,-3.3799,-3.3054,-3.2286,0.0,0.0,0.0,0.0,0.0,0.0,0.0,0.0,0.0,0.0,0.0,0.0,0.0,0.0,0.0,0.0,0.0,0.0,-2.0707,-2.0868,-2.0739,-2.0069,-2.0937,-2.1293,0.0,0.0,0.0,-2.7307,-2.9496,-3.1418,-3.2961,-3.2362,-3.2424,-3.3183,-3.2481,-3.2679,-3.3761,-3.3839,-3.4162,-3.4729,-3.473,-3.441,-3.4051,-3.4551,-3.3983,-3.2909,-3.3728,-3.4112,-3.4207,-3.4142,-3.4271,-3.4418,-3.0599,-3.1578,0.0,-3.4243,0.0,0.0,-3.625,0.0,0.0,-3.9127,-3.9399,0.0,-4.0113,-4.0565,-4.0978,-4.1365,-4.1376,0.0,-4.0001,0.0,0.0,-3.6075,-3.5642,-3.4371,-3.2022,-3.0515,0.0,-2.7169,0.0,0.0,-2.4505,0.0,0.0,0.0,0.0,-2.4126,0.0,-2.6118,-2.6684,-2.649,-2.7639,0.0,0.0,-2.9687,-3.066,-3.1315,-3.0774,-3.0891,-3.1403,-3.2135,-3.2679,-3.3257,-3.4478,-3.4863,-3.4974,-3.5314,-3.5444,-3.5534,-3.5455,-3.5398,-3.5185,-3.4665,-3.411,-3.3456,-3.2564,-3.24,-3.2458,0.0,0.0,0.0,0.0,0.0,0.0,0.0,0.0,0.0,0.0,0.0,0.0,0.0,0.0,0.0,-2.0886,-2.1251,-2.1151,-2.0069,-2.0809,-2.1218,0.0,0.0,0.0,0.0,-2.9976,-3.1893,-3.2583,-3.2865,-3.3136,-3.3334,-3.3136,-3.3409,-3.4214,-3.486,-3.515,-3.5223,-3.5188,-3.4761,-3.4046,-3.4086,-3.3555,-3.2876,-3.3336,-3.358,-3.3609,-3.3705,-3.4047,-3.4418,0.0,0.0,0.0,0.0,0.0,0.0,0.0,-3.8451,0.0,-3.9165,0.0,-3.9451,-3.9476,-4.0164,-4.0603,-4.0603,0.0,-3.9986,-3.9107,-3.8287,-3.7102,-3.5409,-3.4685,-3.3845,-3.2735,-3.0475,0.0,0.0,0.0,0.0,0.0,0.0,0.0,0.0,0.0,0.0,0.0,-2.5957,-2.6281,0.0,-2.8402,-2.8962,-2.8621,-3.027,-3.1445,-3.2265,-3.2258,-3.2355,-3.2625,-3.4036,-3.4575,-3.493,-3.6386,-3.6317,-3.582,-3.6446,-3.6151,-3.556,-3.5441,-3.5345,-3.53,-3.5293,-3.5179,-3.4864,-3.4056,-3.3211,-3.2855,-3.3696,-3.3555,0.0,0.0,0.0,0.0,0.0,0.0,0.0,0.0,0.0,0.0,0.0,0.0,0.0,0.0,0.0,-2.1265,-2.0068,-2.0038,0.0,0.0,0.0,0.0,0.0,-3.0758,0.0,-3.2437,0.0,-3.4331,-3.3778,-3.4359,-3.4635,-3.4695,-3.599,-3.6211,-3.5536,-3.5321,-3.4786,-3.3972,-3.3158,-3.2805,-3.2805,-3.2805,-3.2805,-3.2838,-3.2965,-3.3521,-3.4145,0.0,0.0,0.0,0.0,0.0,-3.7424,-3.8389,-3.8227,-3.8285,-3.9008,-3.9202,-3.9283,-3.9399,-3.96,-3.9727,-3.9727,-3.9064,0.0,0.0,0.0,0.0,-3.5414,-3.5266,-3.4426,-3.281,-3.1062,-2.9437,0.0,-2.6445,-2.5541,0.0,0.0,0.0,0.0,0.0,0.0,-2.6339,-2.5235,0.0,-2.6787,-2.7952,-2.8785,-2.9416,-3.0415,-3.1791,-3.3162,-3.3161,-3.3612,-3.4203,-3.4508,-3.5002,-3.5607,-3.5834,-3.5834,-3.5725,-3.5801,-3.5688,-3.556,-3.5441,-3.5345,-3.5285,-3.5223,-3.5145,-3.4793,-3.3847,-3.3469,-3.3375,-3.3675,-3.4857,-3.586,-3.5835,0.0,0.0,0.0,0.0,0.0,0.0,0.0,0.0,0.0,0.0,0.0,0.0,0.0,0.0,0.0,0.0,0.0,0.0,0.0,0.0,0.0,0.0,0.0,0.0,0.0,0.0,-3.5608,-3.5096,-3.5423,-3.6512,-3.6114,-3.6161,-3.6391,-3.5062,-3.4351,-3.4106,-3.3287,-3.2934,-3.2902,-3.2805,-3.2838,-3.2902,-3.2934,-3.3069,-3.3239,0.0,0.0,0.0,0.0,0.0,0.0,0.0,-3.853,0.0,-3.8998,-3.912,-3.9202,-3.9373,-3.9488,-3.9502,-3.9527,-3.8715,-3.8153,-3.8077,-3.687,-3.5938,-3.5491,-3.502,0.0,-3.2884,-3.1279,-3.008,-2.9344,-2.68,-2.5857,0.0,0.0,0.0,0.0,0.0,-2.6265,0.0,0.0,0.0,-2.7644,-2.8524,-2.9117,-2.9589,-3.0476,-3.1585,-3.2725,-3.2734,-3.3276,-3.4114,-3.4964,-3.5503,-3.5881,-3.625,-3.6048,-3.5764,-3.611,-3.5919,-3.556,-3.5441,-3.5345,-3.5285,-3.5174,-3.4767,-3.4452,-3.4733,-3.3448,-3.2732,-3.4566,-3.5432,-3.6044,-3.6741,-3.6059,0.0,0.0,0.0,0.0,0.0,0.0,0.0,0.0,0.0,0.0,0.0,0.0,0.0,0.0,0.0,0.0,0.0,0.0,0.0,0.0,0.0,0.0,0.0,0.0,0.0,-3.6258,-3.6237,-3.6589,-3.7166,-3.7108,-3.7047,-3.6841,-3.5519,-3.4699,-3.4303,-3.3351,-3.2934,-3.2838,-3.2805,-3.2805,-3.287,-3.2934,-3.2997,-3.3028,0.0,-3.7146,0.0,0.0,-3.831,0.0,-3.8713,-3.8803,-3.8899,-3.895,-3.9036,-3.9147,-3.932,-3.9399,-3.9476,-3.9552,-3.8739,-3.8103,-3.7891,-3.6472,-3.5504,-3.5244,-3.4574,-3.3881,-3.3202,-3.1607,-3.0857,0.0,-2.7734,-2.6561,0.0,0.0,0.0,0.0,0.0,0.0,0.0,0.0,-2.7225,-2.8281,-2.9152,-2.962,-2.9849,-3.0735,-3.161,-3.2365,-3.2181,-3.2773,-3.3898,-3.5186,-3.5611,-3.5645,-3.6267,-3.6096,-3.5813,-3.6381,-3.6112,-3.5534,-3.5427,-3.5315,-3.5216,-3.4912,-3.4276,-3.4017,-3.4898,-3.3125,-3.2072,-3.4942,-3.5699,-3.6219,-3.7643,-3.7359,0.0,0.0,0.0,0.0,0.0,0.0,0.0,0.0,0.0,0.0,0.0,0.0,0.0,0.0,0.0,0.0,-2.2794,-2.2395,0.0,0.0,0.0,0.0,-3.41,0.0,-3.7332,0.0,-3.7345,-3.7551,-3.7607,-3.7963,-3.7721,-3.7067,-3.6009,-3.5155,-3.4398,-3.3382,-3.2934,-3.287,-3.287,-3.2838,-3.2838,-3.2997,-3.3028,-3.2993,0.0,0.0,0.0,0.0,0.0,0.0,0.0,-3.8658,-3.875,-3.8892,-3.895,-3.9036,-3.912,-3.9202,-3.9309,-3.9476,-3.869,-3.7866,-3.7154,-3.6293,-3.5362,-3.446,-3.4349,-3.4274,-3.4176,-3.2575,-3.1821,0.0,0.0,-2.7844,0.0,0.0,0.0,0.0,0.0,0.0,0.0,-2.6069,-2.6665,-2.8267,-2.9136,-2.9987,-3.0754,-3.164,-3.2511,-3.3185,-3.2379,-3.3164,-3.4606,-3.4747,-3.4753,-3.4697,-3.4722,-3.5175,-3.5679,-3.5724,-3.5612,-3.5493,-3.533,-3.5254,-3.4983,-3.4137,-3.3787,-3.3412,-3.273,-3.2297,-3.2411,-3.3601,-3.5916,-3.7574,-3.7038,-3.7552,-3.7179,0.0,0.0,0.0,0.0,0.0,0.0,0.0,0.0,0.0,0.0,0.0,0.0,0.0,0.0,0.0,-2.3555,-2.2279,-2.423,-3.0268,0.0,-3.167,-3.5135,-3.6255,0.0,-3.8756,-3.8005,-3.7963,-3.8511,-3.7827,-3.7369,-3.713,-3.6266,-3.5344,-3.4429,-3.3476,-3.3086,-3.3055,-3.3055,-3.3024,-3.2997,-3.3055,-3.3086,-3.2978,0.0,0.0,0.0,0.0,0.0,0.0,0.0,-3.8719,-3.878,-3.8833,-3.8892,-3.8979,-3.912,-3.9137,-3.9256,-3.9425,-3.8665,-3.8028,-3.7704,-3.647,-3.5525,-3.5094,-3.4572,-3.4088,-3.3604,-3.2508,-3.2056,0.0,0.0,-2.9355,-2.9687,0.0,0.0,0.0,0.0,-2.7116,-2.7649,-2.6796,-2.7738,-2.9792,-3.0125,-3.0788,-3.1629,-3.1955,-3.2004,-3.178,-3.144,-3.1796,-3.2421,-3.2373,-3.3718,-3.5354,-3.5313,-3.5491,-3.5747,-3.562,-3.5598,-3.5509,-3.5412,-3.53,-3.5146,-3.467,-3.4165,-3.3828,-3.4312,-3.3315,-3.2845,-3.4775,-3.6654,-3.8092,-3.8388,-3.8295,-3.7846,0.0,0.0,0.0,0.0,0.0,0.0,0.0,0.0,0.0,0.0,0.0,0.0,0.0,0.0,0.0,-2.1515,-2.2407,-2.4614,-2.8416,0.0,-3.3198,-3.534,-3.7262,-3.8505,-3.912,-3.8674,-3.8596,-3.8803,-3.8419,-3.7857,-3.7161,-3.6838,-3.6131,-3.5182,-3.4352,-3.3929,-3.3804,-3.3804,-3.3486,-3.3136,-3.4163,-3.4199,-3.3737,-4.06,0.0,-3.9677,0.0,-3.926,-3.8689,-3.8719,-3.878,-3.8803,-3.8803,-3.8862,-3.895,-3.9064,-3.912,-3.9202,-3.9346,-3.8864,-3.8415,-3.8165,-3.7068,-3.6334,-3.6024,-3.5427,0.0,-3.3896,-3.3403,-3.3118,-3.3015,-3.1881,0.0,0.0,0.0,0.0,0.0,-2.8327,-2.8179,-2.8567,-2.7986,-2.8967,-3.0872,-3.1387,-3.1934,-3.2514,-3.2787,-3.2324,-3.155,-3.1558,-3.1757,-3.1992,-3.1948,-3.3729,-3.5771,-3.4958,-3.4855,-3.5059,-3.5218,-3.5225,-3.5213,-3.535,-3.5315,-3.5162,-3.4823,-3.4428,-3.4281,-3.4771,-3.4188,-3.4167,-3.6252,-3.7594,-3.8633,-3.9352,-3.9027,-3.8446,0.0,0.0,0.0,0.0,0.0,0.0,0.0,-2.9551,-2.838,-2.7661,0.0,0.0,0.0,0.0,0.0,0.0,-2.3763,0.0,0.0,0.0,0.0,0.0,0.0,-3.9229,-3.9202,-3.9064,-3.8979,-3.8921,-3.8862,-3.8352,-3.7588,-3.7369,-3.6875,-3.6037,-3.5048,-3.4552,-3.4398,-3.4398,-3.4011,-3.3593,-3.5019,-3.5163,-3.4559,-4.1651,-4.08,-4.0157,-4.0965,-3.9753,-3.8719,-3.881,-3.8773,-3.8803,-3.8892,-3.895,-3.8979,-3.8979,-3.9007,-3.9064,-3.9202,-3.9309,-3.9025,-3.824,-3.8214,-3.7901,0.0,0.0,-3.6578,-3.5762,-3.5813,-3.5564,-3.4982,0.0,0.0,-3.2852,0.0,-3.1856,-3.1831,-3.0992,-3.0213,-2.95,-2.9521,-3.0075,-3.1053,-3.2687,-3.3351,-3.3473,-3.4326,-3.4132,-3.3355,-3.3357,-3.3906,-3.4648,-3.4645,-3.5261,-3.5555,-3.2867,-3.2601,-3.34,-3.4167,-3.4338,-3.4378,-3.5182,-3.5285,-3.4983,-3.4044,-3.4428,-3.4545,-3.2821,-3.4486,-3.6646,-3.7686,-3.8667,-3.9419,-3.9495,-3.9553,-3.8993,-3.7196,0.0,0.0,0.0,0.0,0.0,0.0,-3.017,-2.9255,-3.0949,0.0,0.0,0.0,0.0,0.0,0.0,0.0,0.0,-3.382,-3.4005,0.0,-3.6758,-3.8372,-3.9229,-3.9202,-3.9064,-3.8979,-3.8979,-3.8921,-3.8743,-3.8455,-3.7778,-3.7387,-3.7051,-3.5447,-3.4761,-3.4702,-3.4709,-3.4588,-3.4573,-3.5299,-3.562,-3.5439,-4.2152,-4.1376,-4.0634,-4.0341,-3.9448,-3.878,-3.8773,-3.8862,-3.8921,-3.895,-3.8979,-3.9007,-3.9064,-3.9092,-3.912,0.0,-3.876,-3.8452,0.0,-3.7727,-3.7075,-3.628,-3.6197,-3.5844,-3.5124,-3.5189,-3.5211,-3.5145,0.0,0.0,0.0,-3.5524,-3.5135,-3.4574,-3.3799,-3.3278,-3.3021,-3.2414,-3.304,-3.4402,-3.4903,-3.5093,-3.5126,-3.5424,-3.4654,-3.3463,-3.4054,-3.4451,-3.4687,-3.4684,-3.4871,-3.4856,-3.3414,-3.3894,-3.49,-3.4517,-3.477,-3.5059,-3.4686,-3.5345,-3.6058,-3.5747,-3.6268,-3.669,-3.6156,-3.6719,-3.7724,-3.8709,-3.92,-3.9661,-4.0343,-4.049,-4.0112,-3.8986,0.0,0.0,0.0,0.0,0.0,0.0,0.0,-3.0826,0.0,-3.0462,0.0,0.0,0.0,0.0,0.0,0.0,0.0,0.0,-3.471,0.0,-3.687,-3.8539,-3.9399,-3.9346,-3.9202,-3.8822,-3.8248,-3.8691,-3.8567,-3.8022,-3.8258,-3.8345,-3.8175,-3.7058,-3.623,-3.5695,-3.6157,-3.5628,-3.4811,-3.6693,-3.6985,-3.6269,-4.2333,-4.1595,-4.0785,-4.0047,-3.9265,-3.8803,-3.8833,-3.8921,-3.9007,-3.9064,-3.9064,-3.912,-3.9202,-3.9202,0.0,-3.9229,-3.885,0.0,-3.8751,-3.8286,-3.7807,-3.737,-3.7348,-3.6977,-3.6328,0.0,0.0,-3.6233,-3.6887,-3.7488,-3.7947,-3.7713,-3.7311,-3.6824,-3.6001,-3.5633,-3.5645,-3.5105,-3.5496,-3.6545,-3.7113,-3.6989,-3.6442,-3.7084,-3.6282,-3.4945,-3.5806,-3.6363,-3.6601,-3.6286,-3.6357,-3.6459,-3.5576,-3.5982,-3.6479,-3.4903,-3.4747,-3.5044,-3.4777,-3.5388,-3.6182,-3.643,-3.7122,-3.7903,-3.8623,-3.8853,-3.9182,-4.0179,-4.068,-4.1059,-4.1325,-4.115,-4.0576,-3.9388,0.0,-3.7133,0.0,0.0,0.0,0.0,0.0,0.0,0.0,-3.2551,0.0,0.0,0.0,0.0,0.0,0.0,0.0,-3.2052,-3.5975,0.0,-3.7879,-3.8927,-3.9425,-3.9373,-3.932,-3.8968,-3.8377,-3.8813,-3.8748,-3.8247,-3.867,-3.8833,-3.8737,-3.7838,-3.7124,-3.6625,-3.6984,-3.649,-3.5742,-3.7522,-3.7814,-3.7202,-4.2229,-4.1528,0.0,0.0,-3.9406,0.0,-3.9003,-3.9061,-3.9138,-3.9276,-3.9266,-3.9256,-3.9373,-3.9399,-3.9373,-3.9219,0.0,0.0,0.0,-3.9698,-3.9754,-3.9709,-3.9785,0.0,-3.8842,-3.9719,-3.9564,-3.8169,-3.835,-3.8883,-3.9655,-3.8991,-3.8669,-3.8639,-3.7843,-3.751,-3.7565,-3.7519,-3.7558,-3.7799,-3.9277,-3.8922,-3.7624,-3.9262,-3.8814,-3.7485,-3.8419,-3.933,-3.9922,-3.9059,-3.9285,-3.9741,-3.8783,-3.8455,-3.7911,-3.5422,-3.4633,-3.4731,-3.5393,-3.5608,-3.576,-3.6523,-3.7381,-3.852,-4.0239,-4.0714,-4.1054,-4.2009,-4.2831,-4.3218,-4.25,-4.1634,-4.0446,-3.8766,-3.7608,-3.6028,-3.3461,0.0,0.0,0.0,0.0,0.0,0.0,-3.4917,-3.5339,0.0,0.0,0.0,0.0,0.0,0.0,-3.6683,-3.7716,-3.86,-3.9476,-3.95,-3.9511,-3.9511,-3.9436,-3.932,-3.9147,-3.9202,-3.9082,-3.8847,-3.8979,-3.8921,-3.8766,-3.8,-3.761,-3.7387,-3.7301,-3.7207,-3.718,-3.7742,-3.8034,-3.8065,0.0,0.0,-4.1552,-4.0184,-4.0388,-4.0517,-3.9986,-4.0057,-4.0142,-4.0198,-3.9693,-3.9373,-3.9373,-3.9439,-3.9452,-3.9427,-3.9477,-3.9551,-3.9623,-4.0311,-4.0216,-3.9081,-3.957,-3.9558,-3.888,-3.9814,-4.046,-4.0861,-4.104,-4.0885,-4.0527,-4.1033,-4.0991,-4.0471,-4.0262,-4.0207,-4.0142,-3.9554,-3.9976,-4.1085,-4.0811,-4.0468,-4.0213,-4.1232,-4.0556,-3.933,-4.0842,-4.1573,-4.1673,-4.0819,-4.0615,-4.053,-3.8982,-3.8433,-3.8143,-3.6861,-3.6852,-3.7162,-3.669,-3.7448,-3.8401,-3.853,-3.9714,-4.1008,-4.1514,-4.2163,-4.2925,-4.3923,-4.3762,-4.3637,-4.4111,-4.2447,-4.0657,-3.9591,-3.7519,-3.535,-3.3153,0.0,0.0,0.0,-3.3532,-3.4764,-3.5882,-3.6301,-3.608,0.0,0.0,0.0,0.0,0.0,-3.564,-3.5814,-3.8588,-3.9874,-3.9436,-4.0139,-4.0439,-4.0375,-3.9724,-3.9373,-3.9346,-3.9346,-3.892,-3.8255,-3.8859,-3.9064,-3.8998,-3.8678,-3.8177,-3.7669,-3.8016,-3.7744,-3.7171,-3.7192,-3.7667,-3.7993,-4.2333,-4.2289,-4.1952,-4.073,-4.0738,-4.0748,-4.0333,-4.044,-4.0551,-4.0606,-4.0584,-4.0626,-4.0652,-4.0691,-4.0578,-4.0239,-3.9849,-3.967,-3.9717,-4.0216,-4.0321,-3.9958,-3.9916,-3.9979,-4.0063,-4.0177,-4.0555,-4.12,-4.2092,-4.1919,-4.0792,-4.217,-4.2361,-4.1688,-4.207,-4.2056,-4.1686,-4.1605,-4.1861,-4.2337,-4.2617,-4.2268,-4.1682,-4.2937,-4.2352,-4.1045,-4.2364,-4.3153,-4.3464,-4.2577,-4.2536,-4.2642,-4.1289,-4.0822,-4.0616,-3.9731,-3.886,-3.8086,-3.7626,-3.8389,-3.9461,-4.0254,-4.1439,-4.2478,-4.2549,-4.3015,-4.3552,-4.4083,-4.4161,-4.4159,-4.4253,-4.2463,-4.0587,-3.9326,-3.6823,-3.4522,-3.3005,-3.2722,0.0,-3.3769,-3.4726,-3.5835,-3.7147,-3.7676,-3.7463,-3.6425,0.0,0.0,-3.5945,-3.7717,-3.8115,-3.6771,-3.9287,-4.0248,-3.9462,-3.9951,-4.039,-4.0701,-3.9888,-3.9664,-3.9986,-3.9612,-3.9175,-3.8648,-3.9016,-3.9147,-3.912,-3.895,-3.8604,-3.8206,-3.8034,-3.788,-3.7671,-3.6785,-3.6975,-3.7482,-4.2516,-4.2506,-4.2316,-4.1714,-4.1348,-4.1126,-4.1155,-4.1157,-4.122,-4.1263,-4.1691,-4.2032,-4.2121,-4.2159,-4.1906,-4.1113,-4.0405,-3.9936,-3.9823,-3.9981,-4.0388,-4.106,-4.0528,-4.0553,-4.1265,-4.0712,-4.0631,-4.1069,-4.2533,-4.2531,-4.1119,-4.2865,-4.3258,-4.2525,-4.3272,-4.3227,-4.2632,-4.3323,-4.3266,-4.2812,-4.4222,-4.3916,-4.2762,-4.4375,-4.4015,-4.2782,-4.3607,-4.4454,-4.5015,-4.4167,-4.4375,-4.4831,-4.395,-4.3635,-4.342,-4.2541,-4.0626,-3.8778,-3.8783,-3.9316,-4.0251,-4.1731,-4.2777,-4.3413,-4.3505,-4.3718,-4.386,-4.3714,-4.4353,-4.4628,-4.3763,-4.2198,-4.0431,-3.8665,-3.6172,-3.4019,-3.2968,0.0,-3.35,-3.5085,-3.5661,-3.6488,-3.8046,-3.8916,-3.9084,-3.8376,-3.9489,0.0,0.0,-4.0041,-4.0419,-3.8925,-4.0289,-4.0739,-4.0089,-4.0002,-4.0314,-4.1076,-4.0328,-4.0365,-4.1038,-4.0225,-3.9825,-3.9773,-3.9544,-3.9388,-3.9296,-3.9073,-3.895,-3.873,-3.7978,-3.8004,-3.825,-3.6521,-3.6386,-3.6866,-4.359,-4.3553,-4.355,-4.35,-4.4072,-4.4575,-4.46,-4.4154,-4.3849,-4.3905,-4.2859,-4.2121,-4.2159,-4.2233,-4.1978,-4.1146,-4.1041,-4.0662,-3.986,-4.0549,-4.0767,-4.0224,-4.0794,-4.0874,-4.0327,-4.096,-4.2049,-4.3616,-4.3953,-4.3667,-4.2844,-4.393,-4.4023,-4.3315,-4.3498,-4.3533,-4.3434,-4.3551,-4.3962,-4.4511,-4.472,-4.4646,-4.4492,-4.5453,-4.523,-4.4511,-4.539,-4.5779,-4.578,-4.4979,-4.4842,-4.4842,-4.3957,-4.3641,-4.3442,-4.2549,-4.1927,-4.1474,-4.149,-4.2021,-4.2686,-4.2988,-4.375,-4.4395,-4.4555,-4.5093,-4.5434,-4.4798,-4.4814,-4.4628,-4.3763,-4.2198,-4.0424,-3.8672,-3.6686,-3.4762,0.0,0.0,-3.5032,-3.52,-3.7264,-3.8777,-3.9084,-3.9823,-4.0537,-4.1113,-4.0555,-4.0692,-4.1877,-4.151,-4.1423,-4.1813,-4.2692,-4.3013,-4.28,-4.2243,-4.2221,-4.281,-4.2044,-4.2145,-4.2881,-4.1938,-4.1536,-4.1499,-4.0761,-4.0408,-4.0235,-3.9445,-3.9036,-3.895,-3.8633,-3.8548,-3.8444,-3.6644,-3.6443,-3.689,-4.4358,-4.4132,-4.4013,-4.4517,-4.4278,-4.4251,-4.4789,-4.4645,-4.444,-4.4496,-4.425,-4.3928,-4.3566,-4.3542,-4.329,-4.2459,-4.1992,-4.1539,-4.1113,-4.0715,-4.0517,-4.0637,-4.0599,-4.0642,-4.0802,-4.2123,-4.3082,-4.3483,-4.4477,-4.435,-4.3241,-4.4628,-4.487,-4.416,-4.4694,-4.4698,-4.4285,-4.4752,-4.4892,-4.4859,-4.5317,-4.5483,-4.5491,-4.5841,-4.5763,-4.5502,-4.5891,-4.5771,-4.539,-4.5523,-4.5294,-4.4961,-4.5028,-4.5026,-4.4805,-4.3911,-4.2898,-4.2222,-4.2652,-4.3337,-4.4098,-4.464,-4.5052,-4.5398,-4.5463,-4.5104,-4.4625,-4.4269,-4.3817,-4.3396,-4.2967,-4.1855,-4.0587,-3.931,-3.75,0.0,0.0,-3.558,-3.6366,-3.7201,-3.8485,-3.9469,-3.9892,-4.0668,-4.1306,-4.1706,-4.1681,-4.201,-4.2813,-4.2852,-4.3043,-4.3483,-4.314,-4.3109,-4.3515,-4.2815,-4.2806,-4.3389,-4.2648,-4.2735,-4.3492,-4.2599,-4.2159,-4.2121,-4.1305,-4.1142,-4.1355,-3.9951,-3.956,-3.9733,-3.8739,-3.8464,-3.8542,-3.736,-3.7021,-3.702,-4.4975,-4.4786,-4.4809,-4.5722,-4.4953,-4.4512,-4.5394,-4.5415,-4.5284,-4.5125,-4.5519,-4.5584,-4.5009,-4.4799,-4.4448,-4.3844,-4.3014,-4.241,-4.2197,-4.1085,-4.0662,-4.1177,-4.0533,-4.0751,-4.1922,-4.3285,-4.3807,-4.3446,-4.4824,-4.4876,-4.3813,-4.5385,-4.5738,-4.4987,-4.5947,-4.5988,-4.5424,-4.6085,-4.5998,-4.5444,-4.6105,-4.625,-4.5997,-4.5997,-4.5997,-4.5997,-4.5997,-4.5628,-4.5188,-4.567,-4.5547,-4.5312,-4.5777,-4.6054,-4.602,-4.5087,-4.3841,-4.2865,-4.3516,-4.4279,-4.5118,-4.5836,-4.6025,-4.6056,-4.6124,-4.4954,-4.3849,-4.3654,-4.2928,-4.2241,-4.2046,-4.1473,-4.0704,-3.9832,0.0,0.0,0.0,-3.7147,-3.7686,-3.8969,-3.94,-3.9892,-4.07,-4.136,-4.1805,-4.1997,-4.2577,-4.302,-4.3212,-4.3865,-4.4344,-4.4572,-4.3652,-4.3384,-4.3923,-4.3428,-4.3399,-4.3894,-4.3354,-4.3415,-4.3952,-4.3284,-4.2981,-4.2905,-4.2063,-4.204,-4.2494,-4.0877,-4.0503,-4.0825,-3.9447,-3.9008,-3.9084,-3.8534,-3.805,-3.7551,-4.5345,-4.5903,-4.668,-4.7596,-4.7766,-4.8016,-4.8802,-4.834,-4.768,-4.6986,-4.6262,-4.5838,-4.5919,-4.5202,-4.4674,-4.4636,-4.3882,-4.3064,-4.2234,-4.2084,-4.1755,-4.1123,-4.1116,-4.1867,-4.3567,-4.3786,-4.4315,-4.5107,-4.5323,-4.5419,-4.5449,-4.6458,-4.6499,-4.5736,-4.6694,-4.7132,-4.7129,-4.7167,-4.7179,-4.7123,-4.7167,-4.6713,-4.5997,-4.5997,-4.5997,-4.5997,-4.5997,-4.5987,-4.5903,-4.5202,-4.5515,-4.6054,-4.5268,-4.5551,-4.604,-4.5149,-4.4751,-4.4618,-4.461,-4.5231,-4.5914,-4.5986,-4.6056,-4.6124,-4.6177,-4.5484,-4.4596,-4.3753,-4.2896,-4.2085,-4.1344,-4.1077,-4.0696,-3.9824,0.0,0.0,-3.8218,-3.8618,-3.9092,-3.9268,-3.9946,-4.0739,-4.1623,-4.1777,-4.2124,-4.2931,-4.3047,-4.3415,-4.4162,-4.4278,-4.4662,-4.547,-4.536,-4.5188,-4.4979,-4.511,-4.5044,-4.4701,-4.4858,-4.4881,-4.48,-4.4688,-4.4675,-4.4687,-4.3853,-4.3488,-4.344,-4.2421,-4.2008,-4.1945,-4.1702,-4.1199,-4.051,-4.0364,-3.9751,-3.883,-4.6573,-4.6345,-4.6302,-4.7804,-4.7648,-4.7634,-4.849,-4.8371,-4.8101,-4.7792,-4.7492,-4.7108,-4.6685,-4.6309,-4.5933,-4.5368,-4.4578,-4.3976,-4.3649,-4.3611,-4.3088,-4.1917,-4.2442,-4.3103,-4.3862,-4.4402,-4.5175,-4.6105,-4.5629,-4.5994,-4.7163,-4.7058,-4.714,-4.7341,-4.7221,-4.7223,-4.7211,-4.6654,-4.6445,-4.648,-4.6507,-4.6286,-4.5997,-4.5997,-4.5997,-4.5997,-4.5997,-4.5716,-4.5248,-4.4993,-4.4792,-4.4643,-4.4841,-4.5121,-4.5417,-4.5577,-4.5282,-4.4868,-4.482,-4.5415,-4.6066,-4.6122,-4.613,-4.6021,-4.5514,-4.4734,-4.3863,-4.2974,-4.2124,-4.1461,-4.1149,-4.1038,-4.0898,-4.0579,0.0,-3.9592,-3.9785,-3.9535,-3.9518,-4.0034,-4.0376,-4.0885,-4.1739,-4.2277,-4.297,-4.3778,-4.4355,-4.4778,-4.5086,-4.5086,-4.524,-4.5586,-4.555,-4.5438,-4.5283,-4.5381,-4.5301,-4.5125,-4.5213,-4.5235,-4.5148,-4.5125,-4.5125,-4.5109,-4.4233,-4.4195,-4.4554,-4.3035,-4.2716,-4.3037,-4.236,-4.1818,-4.1526,-4.205,-4.1632,-4.0663,-4.6722,-4.66,-4.6626,-4.7872,-4.7672,-4.759,-4.8476,-4.8626,-4.8514,-4.8251,-4.8176,-4.7988,-4.7425,-4.7162,-4.6832,-4.6494,-4.5677,-4.5227,-4.5227,-4.5256,-4.4814,-4.3844,-4.3945,-4.4194,-4.4554,-4.4928,-4.5589,-4.6538,-4.601,-4.655,-4.8087,-4.7853,-4.7906,-4.8243,-4.8037,-4.7796,-4.7502,-4.6925,-4.6539,-4.6344,-4.6383,-4.6213,-4.5975,-4.5975,-4.5975,-4.5986,-4.5986,-4.5657,-4.5113,-4.4659,-4.427,-4.4052,-4.4375,-4.4663,-4.4955,-4.5248,-4.4968,-4.454,-4.4514,-4.4922,-4.536,-4.5397,-4.5397,-4.5241,-4.4637,-4.3812,-4.3013,-4.2435,-4.1656,-4.111,-4.111,-4.1038,-4.1015,-4.1015,-4.0432,-4.0167,-4.071,-4.0242,-4.0011,-4.0577,-4.0612,-4.0915,-4.1732,-4.2117,-4.2656,-4.3464,-4.408,-4.4658,-4.518,-4.5505,-4.5603,-4.5586,-4.5568,-4.5475,-4.5438,-4.5419,-4.5361,-4.5357,-4.5378,-4.5378,-4.5277,-4.5298,-4.5337,-4.5277,-4.4687,-4.4763,-4.5201,-4.3933,-4.371,-4.4075,-4.335,-4.2825,-4.2547,-4.3476,-4.3171,-4.2275,-4.5562,-4.6818,-4.8034,-4.8091,-4.8183,-4.8476,-4.9377,-4.949,-4.9189,-4.8326,-4.8213,-4.8213,-4.8213,-4.75,-4.732,-4.8053,-4.7304,-4.6817,-4.6817,-4.6952,-4.7041,-4.7099,-4.5563,-4.5153,-4.61,-4.5344,-4.5404,-4.6435,-4.6473,-4.7023,-4.8008,-4.8892,-4.8894,-4.8235,-4.9122,-4.9041,-4.8282,-4.8276,-4.782,-4.7076,-4.7157,-4.6655,-4.5905,-4.5905,-4.5929,-4.5991,-4.5991,-4.6027,-4.5835,-4.4167,-4.4158,-4.4725,-4.3867,-4.4208,-4.4743,-4.3963,-4.3729,-4.369,-4.3704,-4.37,-4.3685,-4.3629,-4.359,-4.359,-4.359,-4.2916,-4.2318,-4.2279,-4.1656,-4.111,-4.111,-4.1038,-4.1015,-4.1015,-4.0898,-4.0826,-4.0826,-4.0745,-4.072,-4.072,-4.0654,-4.0935,-4.1808,-4.1128,-4.0974,-4.1846,-4.1923,-4.2641,-4.4289,-4.5192,-4.5637,-4.5603,-4.5586,-4.5568,-4.5475,-4.5438,-4.5419,-4.5398,-4.5398,-4.5378,-4.5277,-4.5378,-4.5378,-4.5277,-4.5378,-4.5378,-4.5277,-4.5213,-4.517,-4.5103,-4.5033,-4.4469,-4.3815,-4.4537,-4.4285,-4.3466,-4.7206,-4.7564,-4.8034,-4.8091,-4.8183,-4.8476,-4.9377,-4.949,-4.9446,-4.9205,-4.9168,-4.9168,-4.9168,-4.898,-4.8619,-4.8128,-4.7927,-4.8002,-4.8509,-4.8053,-4.8272,-4.9427,-4.7484,-4.6571,-4.6932,-4.6758,-4.71,-4.7998,-4.6938,-4.7204,-4.8706,-4.8443,-4.8258,-4.8126,-4.8394,-4.8046,-4.7289,-4.6722,-4.6345,-4.6197,-4.6187,-4.6073,-4.5919,-4.5905,-4.5917,-4.5929,-4.5991,-4.5626,-4.4968,-4.3895,-4.3323,-4.3154,-4.3548,-4.422,-4.4977,-4.5391,-4.4653,-4.372,-4.3693,-4.3261,-4.2942,-4.3517,-4.3651,-4.3434,-4.29,-4.2532,-4.2124,-4.1578,-4.1266,-4.1104,-4.1059,-4.1498,-4.1902,-4.1846,-4.2286,-4.2416,-4.1806,-4.1659,-4.1403,-4.0758,-4.0668,-4.1001,-4.1822,-4.1654,-4.1861,-4.2733,-4.2811,-4.3273,-4.4338,-4.4106,-4.4206,-4.4752,-4.4752,-4.4718,-4.4645,-4.5207,-4.5458,-4.5398,-4.5398,-4.5378,-4.5277,-4.5378,-4.5378,-4.5277,-4.5378,-4.5378,-4.5277,-4.5213,-4.517,-4.5103,-4.5033,-4.4811,-4.4573,-4.4726,-4.4663,-4.4373,-4.8501,-4.8712,-4.9038,-4.9064,-4.9159,-4.9452,-5.0316,-5.0466,-5.046,-5.0491,-5.0221,-5.0033,-5.0033,-4.977,-4.9295,-4.8615,-4.8877,-4.9402,-5.016,-4.9749,-4.9786,-5.0488,-4.9534,-4.8566,-4.7748,-4.7462,-4.7806,-4.8732,-4.7819,-4.8067,-4.948,-4.9067,-4.8771,-4.8587,-4.8568,-4.7952,-4.6852,-4.6364,-4.6028,-4.575,-4.5742,-4.5771,-4.5838,-4.5841,-4.5854,-4.5841,-4.5568,-4.5165,-4.4528,-4.3363,-4.2688,-4.2366,-4.2615,-4.3495,-4.4461,-4.4706,-4.4516,-4.413,-4.3784,-4.3589,-4.3468,-4.3654,-4.34,-4.3105,-4.2954,-4.2861,-4.2682,-4.2175,-4.2091,-4.2078,-4.2032,-4.2478,-4.268,-4.2322,-4.2646,-4.2621,-4.1729,-4.1555,-4.1325,-4.0784,-4.0733,-4.0899,-4.1374,-4.1398,-4.1629,-4.2184,-4.2855,-4.3279,-4.3389,-4.3597,-4.379,-4.3882,-4.4206,-4.4383,-4.4333,-4.4816,-4.5186,-4.5419,-4.5418,-4.5378,-4.5357,-4.538,-4.536,-4.5357,-4.538,-4.536,-4.5319,-4.5256,-4.5192,-4.5103,-4.5057,-4.4986,-4.4914,-4.4865,-4.4815,-4.4764,-4.9496,-5.0048,-5.0675,-5.0633,-5.066,-5.0954,-5.178,-5.1893,-5.1893,-5.1893,-5.1287,-5.0836,-5.0836,-5.0197,-4.9715,-4.9658,-5.031,-5.099,-5.1663,-5.1737,-5.1435,-5.075,-5.1424,-5.0847,-4.8758,-4.7957,-4.8029,-4.8972,-4.8884,-4.9213,-5.0068,-5.0068,-4.9663,-4.8951,-4.9027,-4.8222,-4.6778,-4.6775,-4.6425,-4.5808,-4.5819,-4.5835,-4.5912,-4.5997,-4.6003,-4.593,-4.526,-4.4987,-4.4672,-4.2986,-4.2513,-4.2477,-4.1675,-4.2539,-4.3667,-4.2964,-4.3825,-4.4843,-4.4022,-4.4413,-4.4803,-4.4018,-4.3225,-4.2815,-4.3552,-4.3651,-4.3596,-4.3596,-4.3617,-4.3559,-4.3481,-4.353,-4.3311,-4.2416,-4.2316,-4.1983,-4.107,-4.0909,-4.0885,-4.081,-4.0733,-4.0681,-4.072,-4.0654,-4.0654,-4.0681,-4.2176,-4.2742,-4.1938,-4.3318,-4.3805,-4.3011,-4.3759,-4.4183,-4.4174,-4.4267,-4.4696,-4.5514,-4.5381,-4.5341,-4.5398,-4.5381,-4.5419,-4.5398,-4.5419,-4.54,-4.5398,-4.5337,-4.5252,-4.5217,-4.5141,-4.5071,-4.5028,-4.4914,-4.484,-4.4712,-5.0542,-5.0908,-5.1349,-5.0708,-5.066,-5.0954,-5.178,-5.1893,-5.1925,-5.1957,-5.1939,-5.1857,-5.1857,-5.1767,-5.1888,-5.2306,-5.2925,-5.3118,-5.2738,-5.2701,-5.2626,-5.2473,-5.209,-5.17,-5.123,-5.0463,-5.0183,-5.043,-4.9284,-4.8517,-4.8123,-4.8172,-4.7465,-4.6181,-4.6952,-4.6705,-4.5801,-4.5855,-4.618,-4.6642,-4.6656,-4.7058,-4.7675,-4.7719,-4.7766,-4.7743,-4.7661,-4.7184,-4.6397,-4.4793,-4.4253,-4.427,-4.4132,-4.4335,-4.4765,-4.5273,-4.5234,-4.4961,-4.4764,-4.4843,-4.4961,-4.4765,-4.4563,-4.4312,-4.379,-4.3651,-4.3596,-4.3596,-4.3617,-4.3403,-4.2727,-4.3133,-4.3303,-4.2352,-4.2723,-4.2837,-4.1923,-4.1788,-4.1506,-4.081,-4.0668,-4.0654,-4.0681,-4.0746,-4.0759,-4.0759,-4.1094,-4.1467,-4.1944,-4.1699,-4.1696,-4.217,-4.2348,-4.2448,-4.2456,-4.3073,-4.4064,-4.5475,-4.4843,-4.4825,-4.5398,-4.5381,-4.5361,-4.5298,-4.5398,-4.536,-4.5337,-4.5337,-4.5633,-4.6054,-4.5369,-4.5451,-4.5824,-4.5141,-4.4865,-4.4789,-5.2551,-5.2694,-5.2915,-5.2465,-5.2423,-5.2639,-5.3085,-5.316,-5.3193,-5.3257,-5.2981,-5.2786,-5.2786,-5.247,-5.2673,-5.3757,-5.438,-5.4797,-5.4757,-5.4759,-5.4385,-5.3703,-5.3628,-5.332,-5.2629,-5.1895,-5.1315,-5.0959,-5.0241,-4.9489,-4.8694,-4.877,-4.799,-4.65,-4.6643,-4.6225,-4.5475,-4.5568,-4.5855,-4.6278,-4.6275,-4.6814,-4.7545,-4.7185,-4.7333,-4.7581,-4.6858,-4.6048,-4.526,-4.4422,-4.4141,-4.416,-4.4192,-4.4532,-4.4976,-4.5499,-4.5889,-4.6122,-4.5735,-4.5932,-4.613,-4.5702,-4.5624,-4.5618,-4.5561,-4.5187,-4.485,-4.485,-4.452,-4.3955,-4.3084,-4.3296,-4.3311,-4.2399,-4.2549,-4.2509,-4.1613,-4.1463,-4.126,-4.0784,-4.0668,-4.0588,-4.0612,-4.0293,-4.0268,-4.0654,-4.104,-4.1285,-4.1338,-4.1338,-4.1324,-4.1282,-4.1696,-4.1928,-4.1909,-4.2348,-4.3181,-4.441,-4.4338,-4.4515,-4.4902,-4.5247,-4.5381,-4.536,-4.536,-4.5398,-4.5357,-4.5298,-4.5502,-4.5795,-4.5316,-4.5323,-4.5569,-4.5066,-4.4865,-4.4789,-5.4562,-5.4597,-5.4597,-5.4597,-5.4484,-5.4443,-5.4472,-5.4505,-5.4538,-5.4641,-5.4069,-5.3648,-5.3648,-5.3308,-5.3579,-5.4872,-5.572,-5.6365,-5.674,-5.6855,-5.6292,-5.4931,-5.5425,-5.5197,-5.3978,-5.3063,-5.2145,-5.1215,-5.1036,-5.0551,-4.977,-4.9848,-4.9072,-4.7548,-4.6929,-4.6205,-4.5475,-4.5568,-4.5663,-4.5817,-4.5817,-4.6355,-4.7009,-4.6381,-4.6606,-4.7047,-4.5722,-4.4744,-4.4071,-4.4071,-4.3962,-4.3841,-4.3908,-4.4425,-4.502,-4.5109,-4.6128,-4.7147,-4.6466,-4.682,-4.7252,-4.6674,-4.6405,-4.6562,-4.7608,-4.6999,-4.6231,-4.6382,-4.5735,-4.4851,-4.3994,-4.3693,-4.3311,-4.2455,-4.211,-4.1714,-4.0915,-4.0671,-4.0637,-4.0771,-4.0552,-4.0367,-4.0292,-3.9706,-3.962,-4.0352,-4.1205,-4.1374,-4.0654,-4.1376,-4.1454,-4.0654,-4.1364,-4.1751,-4.1721,-4.1749,-4.2135,-4.2787,-4.3673,-4.4201,-4.4341,-4.5093,-4.54,-4.5381,-4.538,-4.5398,-4.5398,-4.5337,-4.5333,-4.5404,-4.5186,-4.5156,-4.52,-4.4952,-4.4865,-4.4789,-5.5425,-5.546,-5.546,-5.546,-5.4859,-5.4409,-5.4409,-5.4472,-5.4505,-5.4538,-5.4591,-5.4616,-5.4616,-5.582,-5.6689,-5.6884,-5.822,-5.8452,-5.7133,-5.7736,-5.7699,-5.679,-5.6764,-5.6692,-5.65,-5.4995,-5.3483,-5.2032,-5.0733,-4.9652,-4.8882,-4.8934,-4.8099,-4.6572,-4.6555,-4.6125,-4.5419,-4.5514,-4.5973,-4.674,-4.674,-4.7201,-4.7932,-4.7962,-4.7995,-4.8089,-4.7951,-4.7376,-4.6681,-4.6681,-4.6203,-4.5553,-4.5629,-4.5735,-4.584,-4.5903,-4.6131,-4.6348,-4.6236,-4.6335,-4.6625,-4.7252,-4.6871,-4.6719,-4.8359,-4.7408,-4.6396,-4.7162,-4.6632,-4.5748,-4.489,-4.4121,-4.3311,-4.2455,-4.1604,-4.1014,-4.0907,-4.0184,-3.992,-4.0617,-3.997,-3.9451,-3.9437,-3.9403,-3.9444,-3.9548,-4.0359,-4.0849,-4.0796,-4.0873,-4.0912,-4.0796,-4.0822,-4.0887,-4.0875,-4.0887,-4.0951,-4.1054,-4.2623,-4.3682,-4.4338,-4.5109,-4.5458,-4.5418,-4.5418,-4.5398,-4.5398,-4.5337,-4.5698,-4.6249,-4.5481,-4.5559,-4.6036,-4.513,-4.4815,-4.4789,-5.76,-5.73,-5.715,-5.76,-5.6624,-5.5833,-5.583,-5.5488,-5.5254,-5.5314,-5.5416,-5.5668,-5.6185,-5.7289,-5.7975,-5.7975,-5.8971,-5.9279,-5.849,-5.8792,-5.8641,-5.788,-5.7702,-5.7476,-5.7058,-5.589,-5.491,-5.4161,-5.2197,-5.061,-4.9349,-4.9466,-4.8872,-4.7767,-4.7388,-4.7078,-4.6817,-4.6857,-4.6877,-4.6839,-4.6839,-4.7357,-4.8048,-4.7658,-4.8116,-4.8848,-4.7951,-4.7403,-4.6993,-4.6544,-4.6119,-4.5736,-4.535,-4.5219,-4.5126,-4.4763,-4.469,-4.4791,-4.5351,-4.5489,-4.5742,-4.6655,-4.659,-4.6637,-4.7889,-4.7183,-4.6342,-4.6709,-4.6092,-4.5202,-4.4345,-4.3849,-4.3467,-4.3078,-4.2226,-4.1442,-4.0985,-4.0079,-3.9611,-3.9893,-3.9585,-3.9546,-3.9981,-3.9689,-3.9651,-4.0089,-4.0475,-4.0732,-4.0808,-4.1246,-4.1284,-4.082,-4.171,-4.1749,-4.0757,-4.1248,-4.1248,-4.0771,-4.2433,-4.3366,-4.3657,-4.497,-4.5514,-4.5458,-4.5438,-4.5398,-4.5398,-4.5337,-4.5507,-4.5812,-4.5366,-4.5354,-4.5542,-4.509,-4.4889,-4.4865]},{"header":{"parameterUnit":"m.s-1","parameterCategory":1,"la1":30.6,"la2":28.766,"lo1":-90.7593,"lo2":-88.6598,"dx":0.0162,"dy":0.0183,"nx":116,"ny":114,"refTime":"2023-02-14T06:00:00:Z","depth":0,"parameterNumber":3,"parameterNumberName":"V-component_of_WINDS"},"data":[0.0,0.0,0.0,0.0,0.0,0.0,0.0,0.0,0.0,0.0,0.0,0.0,0.0,0.0,0.0,0.0,0.0,0.0,0.0,0.0,0.0,0.0,0.0,0.0,0.0,0.0,0.0,0.0,0.0,0.0,0.0,0.0,0.0,0.0,0.0,0.0,0.0,0.0,0.0,0.0,0.0,0.0,0.0,0.0,0.0,0.0,0.0,0.0,0.0,0.0,0.0,0.0,0.0,0.0,0.0,0.0,0.0,0.0,0.0,0.0,0.0,0.0,0.0,0.0,0.0,0.0,0.0,0.0,0.0,0.0,0.0,0.0,0.0,0.0,0.0,0.0,0.0,0.0,0.0,0.0,0.0,0.0,0.0,0.0,0.0,0.0,0.0,0.0,0.0,0.0,0.0,0.0,0.0,0.0,0.0,0.0,0.0,0.0,0.0,0.0,0.0,0.0,0.0,0.0,0.0,0.0,0.0,0.0,0.0,0.0,0.0,0.0,0.0,0.0,0.0,0.0,0.0,0.0,0.0,0.0,0.0,0.0,0.0,0.0,0.0,0.0,0.0,0.0,0.0,0.0,0.0,0.0,0.0,0.0,0.0,0.0,0.0,0.0,0.0,0.0,0.0,0.0,0.0,0.0,0.0,0.0,0.0,0.0,0.0,0.0,0.0,0.0,0.0,0.0,0.0,0.0,0.0,0.0,0.0,0.0,0.0,0.0,0.0,0.0,0.0,0.0,0.0,0.0,0.0,0.0,0.0,0.0,0.0,0.0,0.0,0.0,0.0,0.0,0.0,0.0,0.0,0.0,0.0,0.0,0.0,0.0,0.0,0.0,0.0,0.0,0.0,0.0,0.0,0.0,0.0,0.0,0.0,0.0,0.0,0.0,0.0,0.0,0.0,0.0,0.0,0.0,0.0,0.0,0.0,0.0,0.0,0.0,0.0,0.0,0.0,0.0,0.0,0.0,0.0,0.0,0.0,0.0,0.0,0.0,0.0,0.0,0.0,0.0,0.0,0.0,0.0,0.0,0.0,0.0,0.0,0.0,0.0,0.0,0.0,0.0,0.0,0.0,0.0,0.0,0.0,0.0,0.0,0.0,0.0,0.0,0.0,0.0,0.0,0.0,0.0,0.0,0.0,0.0,0.0,0.0,0.0,0.0,0.0,0.0,0.0,0.0,0.0,0.0,0.0,0.0,0.0,0.0,0.0,0.0,0.0,0.0,0.0,0.0,0.0,0.0,0.0,0.0,0.0,0.0,0.0,0.0,0.0,0.0,0.0,0.0,0.0,0.0,0.0,0.0,0.0,0.0,0.0,0.0,0.0,0.0,0.0,0.0,0.0,0.0,0.0,0.0,0.0,0.0,0.0,0.0,0.0,0.0,0.0,0.0,0.0,0.0,0.0,0.0,0.0,0.0,0.0,0.0,0.0,0.0,0.0,0.0,0.0,0.0,0.0,0.0,0.0,0.0,0.0,0.0,0.0,0.0,0.0,0.0,0.0,0.0,0.0,0.0,0.0,0.0,0.0,0.0,0.0,0.0,0.0,0.0,0.0,0.0,0.0,0.0,0.0,0.0,0.0,0.0,0.0,0.0,0.0,0.0,0.0,0.0,0.0,0.0,0.0,0.0,0.0,0.0,0.0,0.0,0.0,0.0,0.0,0.0,0.0,0.0,0.0,0.0,0.0,0.0,0.0,0.0,0.0,0.0,0.0,0.0,0.0,0.0,0.0,0.0,0.0,0.0,0.0,0.0,0.0,0.0,0.0,0.0,0.0,0.0,0.0,0.0,0.0,0.0,0.0,0.0,0.0,0.0,0.0,0.0,0.0,0.0,0.0,0.0,0.0,0.0,0.0,0.0,0.0,0.0,0.0,0.0,0.0,0.0,0.0,0.0,0.0,0.0,0.0,0.0,0.0,0.0,0.0,0.0,0.0,0.0,0.0,0.0,0.0,0.0,0.0,0.0,0.0,0.0,0.0,0.0,0.0,0.0,0.0,0.0,0.0,0.0,0.0,0.0,0.0,0.0,0.0,0.0,0.0,0.0,0.0,0.0,0.0,0.0,0.0,0.0,0.0,0.0,0.0,0.0,0.0,0.0,0.0,0.0,0.0,0.0,0.0,0.0,0.0,0.0,0.0,0.0,0.0,0.0,0.0,0.0,0.0,0.0,0.0,0.0,0.0,0.0,0.0,0.0,0.0,0.0,0.0,0.0,0.0,0.0,0.0,0.0,0.0,0.0,0.0,0.0,0.0,0.0,0.0,0.0,0.0,0.0,0.0,0.0,0.0,0.0,0.0,0.0,0.0,0.0,0.0,0.0,0.0,0.0,0.0,0.0,0.0,0.0,0.0,0.0,0.0,0.0,0.0,0.0,0.0,0.0,0.0,0.0,0.0,0.0,0.0,0.0,0.0,0.0,0.0,0.0,0.0,0.0,0.0,0.0,0.0,0.0,0.0,0.0,0.0,0.0,0.0,0.0,0.0,0.0,0.0,0.0,0.0,0.0,0.0,0.0,0.0,0.0,0.0,0.0,0.0,0.0,0.0,0.0,0.0,0.0,0.0,0.0,0.0,0.0,0.0,0.0,0.0,0.0,0.0,0.0,0.0,0.0,0.0,0.0,0.0,0.0,0.0,0.0,0.0,0.0,0.0,0.0,0.0,0.0,0.0,0.0,0.0,0.0,0.0,0.0,0.0,0.0,0.0,0.0,0.0,0.0,0.0,0.0,0.0,0.0,0.0,0.0,0.0,0.0,0.0,0.0,0.0,0.0,0.0,0.0,0.0,0.0,0.0,0.0,0.0,0.0,0.0,0.0,0.0,0.0,0.0,0.0,0.0,0.0,0.0,0.0,0.0,0.0,0.0,0.0,0.0,0.0,0.0,0.0,0.0,0.0,0.0,0.0,0.0,0.0,0.0,0.0,0.0,0.0,0.0,0.0,0.0,0.0,0.0,0.0,0.0,0.0,0.0,0.0,0.0,0.0,0.0,0.0,0.0,0.0,0.0,0.0,0.0,0.0,0.0,0.0,0.0,0.0,0.0,0.0,0.0,0.0,0.0,0.0,0.0,0.0,0.0,0.0,0.0,0.0,0.0,0.0,0.0,0.0,0.0,0.0,0.0,0.0,0.0,0.0,0.0,0.0,0.0,0.0,0.0,0.0,0.0,0.0,0.0,0.0,0.0,0.0,0.0,0.0,0.0,0.0,0.0,0.0,0.0,0.0,0.0,0.0,0.0,0.0,0.0,0.0,0.0,0.0,0.0,0.0,0.0,0.0,0.0,0.0,0.0,0.0,0.0,0.0,0.0,0.0,0.0,0.0,0.0,0.0,0.0,0.0,0.0,0.0,0.0,0.0,0.0,0.0,0.0,0.0,0.0,0.0,0.0,0.0,0.0,0.0,0.0,0.0,0.0,0.0,0.0,0.0,0.0,0.0,0.0,0.0,0.0,0.0,0.0,0.0,0.0,0.0,0.0,0.0,0.0,0.0,0.0,0.0,0.0,0.0,0.0,0.0,0.0,0.0,0.0,0.0,0.0,0.0,0.0,0.0,0.0,0.0,0.0,0.0,0.0,0.0,0.0,0.0,0.0,0.0,0.0,0.0,0.0,0.0,0.0,0.0,0.0,0.0,0.0,0.0,0.0,0.0,0.0,0.0,0.0,0.0,0.0,0.0,0.0,0.0,0.0,0.0,0.0,0.0,0.0,0.0,0.0,0.0,0.0,0.0,0.0,0.0,0.0,0.0,0.0,0.0,0.0,0.0,0.0,0.0,0.0,0.0,0.0,0.0,0.0,0.0,0.0,0.0,0.0,0.0,0.0,0.0,0.0,0.0,0.0,0.0,0.0,0.0,0.0,0.0,0.0,0.0,0.0,0.0,0.0,0.0,0.0,0.0,0.0,0.0,0.0,0.0,0.0,0.0,0.0,0.0,0.0,0.0,0.0,0.0,0.0,0.0,0.0,0.0,0.0,0.0,0.0,0.0,0.0,0.0,0.0,0.0,0.0,0.0,0.0,0.0,0.0,0.0,0.0,0.0,0.0,0.0,0.0,0.0,0.0,0.0,0.0,0.0,0.0,0.0,0.0,0.0,0.0,0.0,0.0,0.0,0.0,0.0,0.0,0.0,0.0,0.0,0.0,0.0,0.0,0.0,0.0,0.0,0.0,0.0,0.0,0.0,0.0,0.0,0.0,0.0,0.0,0.0,0.0,0.0,0.0,0.0,0.0,0.0,0.0,0.0,0.0,0.0,0.0,0.0,0.0,0.0,0.0,0.0,0.0,0.0,0.0,0.0,0.0,0.0,0.0,0.0,0.0,0.0,0.0,0.0,0.0,0.0,0.0,0.0,0.0,0.0,0.0,0.0,0.0,0.0,0.0,0.0,0.0,0.0,0.0,0.0,0.0,0.0,0.0,0.0,0.0,0.0,0.0,0.0,0.0,0.0,0.0,0.0,0.0,0.0,0.0,0.0,0.0,0.0,0.0,0.0,0.0,0.0,0.0,0.0,0.0,0.0,0.0,0.0,0.0,0.0,0.0,0.0,0.0,0.0,0.0,0.0,0.0,0.0,0.0,0.0,0.0,0.0,0.0,0.0,0.0,0.0,0.0,0.0,0.0,0.0,0.0,0.0,0.0,0.0,0.0,0.0,0.0,0.0,0.0,0.0,0.0,0.0,0.0,0.0,0.0,0.0,0.0,0.0,0.0,0.0,0.0,0.0,0.0,0.0,0.0,0.0,0.0,0.0,0.0,0.0,0.0,0.0,0.0,0.0,0.0,0.0,0.0,0.0,0.0,0.0,0.0,0.0,0.0,0.0,0.0,0.0,0.0,0.0,0.0,0.0,0.0,0.0,0.0,0.0,0.0,0.0,0.0,0.0,0.0,0.0,0.0,0.0,0.0,0.0,0.0,0.0,0.0,0.0,0.0,0.0,0.0,0.0,0.0,0.0,0.0,0.0,0.0,0.0,0.0,0.0,0.0,0.0,0.0,0.0,0.0,0.0,0.0,0.0,0.0,0.0,0.0,0.0,0.0,0.0,0.0,0.0,0.0,0.0,0.0,0.0,0.0,0.0,0.0,0.0,0.0,0.0,0.0,0.0,0.0,0.0,0.0,0.0,0.0,0.0,0.0,0.0,0.0,0.0,0.0,0.0,0.0,0.0,0.0,0.0,0.0,0.0,0.0,0.0,0.0,0.0,0.0,0.0,0.0,0.0,0.0,0.0,0.0,0.0,0.0,0.0,0.0,0.0,0.0,0.0,0.0,0.0,0.0,0.0,0.0,0.0,0.0,0.0,0.0,0.0,0.0,0.0,0.0,0.0,0.0,0.0,0.0,0.0,0.0,0.0,0.0,0.0,0.0,0.0,0.0,0.0,0.0,0.0,0.0,0.0,0.0,0.0,0.0,0.0,0.0,0.0,0.0,0.0,0.0,0.0,0.0,0.0,0.0,0.0,0.0,0.0,0.0,0.0,0.0,0.0,0.0,0.0,0.0,0.0,0.0,0.0,0.0,0.0,0.0,0.0,0.0,0.0,0.0,0.0,0.0,0.0,0.0,0.0,0.0,0.0,0.0,0.0,0.0,0.0,0.0,0.0,0.0,0.0,0.0,0.0,0.0,0.0,0.0,0.0,0.0,0.0,0.0,0.0,0.0,0.0,0.0,0.0,0.0,0.0,0.0,0.0,0.0,0.0,0.0,0.0,0.0,0.0,0.0,0.0,0.0,0.0,0.0,0.0,0.0,0.0,0.0,0.0,0.0,0.0,0.0,0.0,0.0,0.0,0.0,0.0,0.0,0.0,0.0,0.0,0.0,0.0,0.0,0.0,0.0,0.0,0.0,0.0,0.0,0.0,0.0,0.0,0.0,0.0,0.0,0.0,0.0,0.0,0.0,0.0,0.0,0.0,0.0,0.0,0.0,0.0,0.0,0.0,0.0,0.0,0.0,0.0,0.0,0.0,0.0,0.0,0.0,0.0,0.0,0.0,0.0,0.0,0.0,0.0,0.0,0.0,0.0,0.0,0.0,0.0,0.0,0.0,0.0,0.0,0.0,0.0,0.0,0.0,0.0,0.0,0.0,0.0,0.0,0.0,0.0,0.0,0.0,0.0,-0.9628,0.0,0.0,0.0,0.0,0.0,0.0,0.0,0.0,0.0,0.0,0.0,0.0,0.0,0.0,0.0,0.0,0.0,0.0,0.0,0.0,0.0,0.0,0.0,0.0,0.0,0.0,0.0,0.0,0.0,0.0,0.0,0.0,0.0,0.0,0.0,0.0,0.0,0.0,0.0,0.0,0.0,0.0,0.0,0.0,0.0,0.0,0.0,0.0,0.0,0.0,0.0,0.0,0.0,0.0,0.0,0.0,0.0,0.0,0.0,0.0,0.0,0.0,0.0,0.0,0.0,0.0,0.0,0.0,0.0,0.0,0.0,0.0,0.0,0.0,0.0,0.0,0.0,0.0,0.0,0.0,0.0,0.0,0.0,0.0,0.0,0.0,0.0,0.0,0.0,0.0,0.0,0.0,0.0,0.0,0.0,0.0,0.0,0.0,0.0,0.0,0.0,0.0,0.0,0.0,0.0,0.0,0.0,0.0,0.0,0.0,0.0,0.0,0.0,0.0,0.0,0.0,-0.9308,0.0,0.0,0.0,0.0,0.0,0.0,0.0,0.0,0.0,0.0,0.0,0.0,0.0,0.0,0.0,0.0,0.0,0.0,0.0,0.0,0.0,0.0,0.0,0.0,0.0,0.0,0.0,0.0,0.0,0.0,0.0,0.0,0.0,0.0,0.0,0.0,0.0,0.0,0.0,0.0,0.0,0.0,0.0,0.0,0.0,0.0,0.0,0.0,0.0,0.0,0.0,0.0,0.0,0.0,0.0,0.0,0.0,0.0,0.0,0.0,0.0,0.0,0.0,0.0,0.0,0.0,0.0,0.0,0.0,0.0,0.0,0.0,0.0,0.0,0.0,0.0,0.0,0.0,0.0,0.0,0.0,0.0,0.0,0.0,0.0,0.0,0.0,0.0,0.0,0.0,0.0,0.0,0.0,0.0,0.0,0.0,0.0,0.0,0.0,0.0,0.0,0.0,0.0,0.0,0.0,0.0,0.0,0.0,0.0,0.0,-1.2269,-1.2414,-1.2164,-1.1644,-1.0556,-0.9744,-0.9109,0.0,0.0,0.0,0.0,0.0,0.0,0.0,0.0,0.0,0.0,0.0,0.0,0.0,0.0,0.0,0.0,0.0,0.0,0.0,0.0,0.0,0.0,0.0,0.0,0.0,0.0,0.0,0.0,0.0,0.0,0.0,0.0,0.0,0.0,0.0,0.0,0.0,0.0,0.0,0.0,0.0,0.0,0.0,0.0,0.0,0.0,0.0,0.0,0.0,0.0,0.0,0.0,0.0,0.0,0.0,0.0,0.0,0.0,0.0,0.0,0.0,0.0,0.0,0.0,0.0,0.0,0.0,0.0,0.0,0.0,0.0,0.0,0.0,0.0,0.0,0.0,0.0,0.0,0.0,0.0,0.0,0.0,0.0,0.0,0.0,0.0,0.0,-0.5435,-0.8123,0.0,0.0,0.0,0.0,0.0,0.0,0.0,0.0,0.0,0.0,0.0,0.0,0.0,0.0,-1.1697,-1.2343,-1.2512,-1.2219,-1.3171,-1.3365,-1.2897,-1.2755,-1.2605,-1.236,-1.124,0.0,-1.0107,-0.9113,0.0,0.0,0.0,0.0,0.0,0.0,0.0,0.0,0.0,0.0,0.0,0.0,0.0,0.0,0.0,0.0,0.0,0.0,0.0,0.0,0.0,0.0,0.0,0.0,0.0,0.0,0.0,0.0,0.0,0.0,0.0,0.0,0.0,0.0,0.0,0.0,0.0,0.0,0.0,0.0,0.0,0.0,0.0,0.0,0.0,0.0,0.0,0.0,0.0,0.0,0.0,0.0,0.0,0.0,0.0,0.0,0.0,0.0,0.0,0.0,0.0,0.0,0.0,0.0,0.0,0.0,0.0,0.0,0.0,0.0,0.0,0.0,0.0,0.0,0.0,0.0,0.0,0.0,0.0,0.0,0.0,0.0,0.0,0.0,0.0,-0.3855,-0.7361,-0.9289,-1.0161,-1.0857,0.0,0.0,0.0,0.0,0.0,0.0,0.0,0.0,0.0,-1.1683,-1.1948,-1.2235,-1.2427,-1.2495,-1.2451,-1.224,-1.2788,-1.2933,-1.2816,-1.2861,-1.2887,-1.2883,-1.2072,-1.1882,-1.1842,-0.9714,-0.8707,-0.8522,0.0,0.0,0.0,0.0,0.0,-1.0718,0.0,0.0,0.0,0.0,0.0,0.0,0.0,0.0,0.0,0.0,0.0,0.0,0.0,0.0,0.0,0.0,0.0,0.0,0.0,0.0,0.0,0.0,0.0,0.0,0.0,0.0,0.0,0.0,0.0,0.0,0.0,0.0,0.0,0.0,0.0,0.0,0.0,0.0,0.0,0.0,0.0,0.0,0.0,0.0,0.0,0.0,0.0,0.0,0.0,0.0,0.0,0.0,0.0,0.0,0.0,0.0,0.0,0.0,0.0,0.0,0.0,0.0,0.0,0.0,0.0,0.0,0.0,0.0,0.0,0.0,0.0,0.0,0.0,0.0,0.0,0.0,0.0,-0.5816,-0.8871,-1.0389,-1.1747,-1.2549,0.0,0.0,0.0,0.0,0.0,0.0,-1.2067,-1.2158,-1.212,-1.2049,-1.2492,-1.2715,-1.2597,-1.2429,-1.2273,-1.2277,-1.2516,-1.2708,-1.2781,-1.3033,-1.3171,-1.3329,-1.2837,-1.2824,-1.2956,-1.0413,-0.9322,-0.9227,-0.8868,-0.9022,0.0,-0.9423,-1.0059,-1.0836,0.0,0.0,0.0,0.0,0.0,0.0,0.0,0.0,0.0,0.0,0.0,0.0,0.0,0.0,0.0,0.0,0.0,0.0,0.0,0.0,0.0,0.0,0.0,0.0,0.0,0.0,0.0,0.0,0.0,0.0,0.0,0.0,0.0,0.0,0.0,0.0,0.0,0.0,0.0,0.0,0.0,0.0,0.0,0.0,0.0,0.0,0.0,0.0,0.0,0.0,0.0,0.0,0.0,0.0,0.0,0.0,0.0,0.0,0.0,0.0,0.0,0.0,0.0,0.0,0.0,0.0,0.0,0.0,0.0,0.0,0.0,0.0,0.0,0.0,0.0,0.0,0.0,0.0,0.0,-1.1726,-1.322,0.0,0.0,0.0,0.0,-1.3522,-1.2986,-1.2674,-1.2725,-1.2706,-1.251,-1.2116,-1.213,-1.2101,-1.1968,-1.224,-1.2305,-1.2191,-1.2795,-1.3198,-1.3342,-1.3355,-1.3512,-1.3783,-1.3411,-1.3103,-1.2741,-1.1128,-1.0639,-1.0696,-0.9613,-0.9117,-0.9013,-0.9013,-0.9533,-1.0289,0.0,0.0,0.0,0.0,0.0,0.0,0.0,0.0,0.0,0.0,0.0,0.0,0.0,0.0,0.0,0.0,0.0,0.0,0.0,0.0,0.0,0.0,0.0,0.0,0.0,0.0,0.0,0.0,0.0,0.0,0.0,0.0,0.0,0.0,0.0,0.0,0.0,0.0,0.0,0.0,0.0,0.0,0.0,0.0,0.0,0.0,0.0,0.0,0.0,0.0,0.0,0.0,0.0,0.0,0.0,0.0,0.0,0.0,0.0,0.0,0.0,0.0,0.0,0.0,0.0,0.0,0.0,0.0,0.0,0.0,0.0,0.0,0.0,0.0,0.0,0.0,0.0,0.0,0.0,-1.3697,-1.4646,0.0,0.0,-1.5181,-1.5115,-1.5548,-1.4282,-1.3553,-1.37,-1.3166,-1.2626,-1.2147,-1.2464,-1.2711,-1.2704,-1.2417,-1.2432,-1.2656,-1.2603,-1.2738,-1.2994,-1.3175,-1.3408,-1.3628,-1.352,-1.3571,-1.3705,-1.2713,-1.1822,-1.0897,-1.0068,-0.9868,-0.9966,-0.9743,-1.0077,-1.0669,0.0,0.0,0.0,0.0,0.0,0.0,0.0,0.0,0.0,0.0,0.0,0.0,0.0,0.0,0.0,0.0,0.0,0.0,0.0,0.0,0.0,0.0,0.0,0.0,0.0,0.0,0.0,0.0,0.0,0.0,0.0,0.0,0.0,0.0,0.0,0.0,0.0,0.0,0.0,0.0,0.0,0.0,-0.4021,0.0,0.0,0.0,0.0,0.0,0.0,0.0,0.0,0.0,0.0,0.0,0.0,0.0,0.0,0.0,0.0,0.0,0.0,0.0,0.0,0.0,0.0,0.0,0.0,0.0,0.0,0.0,0.0,0.0,0.0,0.0,0.0,0.0,0.0,0.0,-1.3966,-1.5371,-1.6382,-1.7011,-1.707,-1.6603,-1.6434,-1.6846,-1.5292,-1.4374,-1.4435,-1.364,-1.2941,-1.2425,-1.2755,-1.3026,-1.3258,-1.2612,-1.2544,-1.2926,-1.2609,-1.2661,-1.3012,-1.3099,-1.3341,-1.3671,-1.3579,-1.3788,-1.4077,-1.3491,-1.264,-1.1572,-1.0948,-1.0746,-1.0666,-1.039,-1.0394,-1.0546,0.0,0.0,0.0,0.0,0.0,0.0,0.0,0.0,0.0,0.0,0.0,0.0,0.0,0.0,0.0,0.0,0.0,0.0,0.0,0.0,0.0,0.0,0.0,0.0,0.0,0.0,0.0,0.0,0.0,0.0,0.0,0.0,0.0,0.0,0.0,0.0,0.0,0.0,0.0,0.0,0.0,0.0,-0.5976,0.0,0.0,0.0,0.0,0.0,0.0,0.0,0.0,0.0,0.0,0.0,0.0,0.0,0.0,0.0,0.0,0.0,0.0,0.0,0.0,0.0,0.0,0.0,0.0,0.0,0.0,0.0,0.0,0.0,0.0,0.0,0.0,0.0,-1.1809,-1.4112,-1.6058,-1.6843,-1.8387,-1.8905,-1.7794,-1.7514,-1.7349,-1.7254,-1.6013,-1.5159,-1.5068,-1.4312,-1.3565,-1.3028,-1.2899,-1.3003,-1.3292,-1.2857,-1.272,-1.2979,-1.282,-1.2954,-1.3461,-1.32,-1.3311,-1.3798,-1.3531,-1.3489,-1.3646,-1.3444,-1.3147,-1.2782,-1.2234,-1.1633,-1.1122,-1.0812,-1.0349,-1.0019,0.0,0.0,0.0,0.0,0.0,0.0,0.0,0.0,0.0,0.0,0.0,0.0,0.0,0.0,0.0,0.0,0.0,0.0,0.0,0.0,0.0,0.0,0.0,0.0,0.0,0.0,0.0,0.0,0.0,0.0,0.0,0.0,0.0,0.0,0.0,0.0,0.0,0.0,0.0,0.0,0.0,0.0,-0.7562,0.0,0.0,0.0,0.0,0.0,0.0,0.0,0.0,0.0,0.0,0.0,0.0,0.0,0.0,0.0,0.0,0.0,0.0,0.0,0.0,0.0,0.0,0.0,0.0,0.0,0.0,0.0,0.0,0.0,0.0,0.0,0.0,-1.3294,-1.3929,-1.57,-1.7313,-1.8414,-1.9134,-1.9372,-1.9076,-1.8515,-1.8185,-1.8258,-1.6972,-1.6142,-1.6059,-1.5187,-1.4303,-1.3237,-1.3677,-1.3749,-1.3316,-1.343,-1.3461,-1.3379,-1.3112,-1.2968,-1.2936,-1.3046,-1.3237,-1.3566,-1.3461,-1.361,-1.3758,-1.3646,-1.3618,-1.3696,-1.2804,-1.2054,-1.1556,-1.151,-1.1539,-1.1741,0.0,0.0,0.0,0.0,0.0,0.0,0.0,0.0,0.0,0.0,0.0,0.0,0.0,0.0,0.0,0.0,0.0,0.0,0.0,0.0,0.0,0.0,0.0,0.0,0.0,0.0,0.0,0.0,0.0,0.0,0.0,0.0,0.0,0.0,0.0,0.0,0.0,0.0,0.0,0.0,0.0,0.0,-0.9045,-0.8467,-0.8399,-0.8593,-0.8404,-0.8346,-0.8362,-0.7874,0.0,0.0,0.0,0.0,0.0,0.0,0.0,0.0,0.0,0.0,0.0,0.0,0.0,0.0,0.0,0.0,0.0,0.0,0.0,0.0,0.0,0.0,0.0,0.0,-1.2998,-1.4291,-1.5529,-1.707,-1.8441,-1.9515,-1.9781,-1.9941,-2.0194,-1.9302,-1.8845,-1.9074,-1.772,-1.6802,-1.658,-1.5966,-1.5134,-1.4115,-1.4389,-1.4278,-1.3837,-1.3698,-1.3591,-1.3493,-1.3191,-1.3008,-1.2836,-1.2917,-1.3111,0.0,-1.3387,-1.3471,-1.3698,-1.3506,-1.3516,0.0,0.0,0.0,0.0,0.0,-1.2166,-1.2457,0.0,0.0,0.0,0.0,0.0,0.0,0.0,0.0,0.0,0.0,0.0,0.0,0.0,0.0,0.0,0.0,0.0,0.0,0.0,0.0,0.0,0.0,0.0,0.0,0.0,0.0,0.0,0.0,0.0,0.0,0.0,0.0,0.0,0.0,0.0,0.0,0.0,0.0,0.0,0.0,0.0,0.0,-1.0155,-0.9532,-0.9887,-1.0593,-1.052,-1.0352,-1.0187,-1.0238,0.0,0.0,0.0,0.0,0.0,0.0,0.0,0.0,0.0,0.0,0.0,0.0,0.0,0.0,0.0,0.0,0.0,0.0,0.0,0.0,0.0,0.0,0.0,0.0,-1.3985,-1.4615,-1.6419,-1.7796,-1.9005,-1.9996,-2.0233,-2.0385,-2.0739,-1.9789,-1.9256,-1.9539,-1.8238,-1.7327,-1.6961,0.0,0.0,0.0,0.0,-1.474,-1.4565,-1.3921,-1.3552,-1.3508,-1.3263,-1.309,-1.3131,-1.2881,-1.2985,-1.3461,-1.3205,-1.3219,-1.3485,-1.3176,-1.2965,-1.291,-1.3263,-1.3446,-1.346,-1.2664,-1.2429,0.0,0.0,0.0,0.0,0.0,0.0,0.0,0.0,0.0,0.0,0.0,0.0,0.0,0.0,0.0,0.0,0.0,0.0,0.0,0.0,0.0,0.0,0.0,0.0,0.0,0.0,0.0,0.0,0.0,0.0,0.0,0.0,0.0,0.0,0.0,0.0,0.0,0.0,0.0,0.0,0.0,0.0,0.0,-1.0015,-1.0064,-1.0286,-1.0595,-1.0676,-1.1134,-1.1661,-1.1529,-1.1404,-1.1278,-1.1061,0.0,0.0,0.0,0.0,0.0,0.0,0.0,0.0,0.0,0.0,0.0,0.0,0.0,0.0,0.0,0.0,0.0,0.0,0.0,0.0,-1.4223,-1.4671,-1.498,-1.5418,-1.5536,-1.6416,-1.8405,-1.8989,-1.9213,-1.9658,-1.9465,-1.9213,-1.9063,-1.8556,-1.798,-1.7521,-1.7086,0.0,-1.6085,-1.5804,-1.5312,-1.4728,-1.4567,-1.4184,-1.3456,0.0,0.0,-1.3062,-1.3017,-1.3121,-1.3154,-1.3379,-1.3309,-1.3207,-1.3089,-1.2934,-1.2582,-1.2722,-1.3025,-1.3338,-1.3028,-1.3028,-1.3278,0.0,0.0,0.0,0.0,0.0,0.0,0.0,0.0,0.0,0.0,0.0,0.0,0.0,0.0,0.0,0.0,0.0,0.0,0.0,0.0,0.0,0.0,0.0,0.0,0.0,0.0,0.0,0.0,0.0,0.0,0.0,0.0,0.0,0.0,0.0,0.0,0.0,0.0,0.0,0.0,0.0,0.0,-0.9892,-0.9929,-1.0241,-1.0625,-1.086,-1.1247,-1.1764,-1.2192,-1.221,-1.2112,-1.1879,-1.1538,-1.0799,0.0,0.0,0.0,0.0,0.0,0.0,0.0,0.0,0.0,0.0,0.0,0.0,0.0,0.0,-1.0218,0.0,0.0,-1.3507,-1.4274,-1.4218,-1.413,-1.4133,-1.3814,-1.4425,-1.6715,-1.7202,-1.768,-1.8466,-1.8729,-1.8755,-1.8766,-1.8708,-1.8419,-1.7798,-1.7647,-1.7292,-1.6737,-1.6047,-1.5419,-1.469,-1.4472,-1.408,-1.3502,-1.3489,-1.3391,-1.3093,-1.2964,-1.2953,-1.3136,-1.3397,-1.3321,-1.3085,-1.2735,-1.2481,-1.2184,-1.2276,-1.2639,-1.3204,-1.3439,-1.3637,-1.3899,0.0,0.0,0.0,0.0,0.0,0.0,0.0,0.0,0.0,0.0,0.0,0.0,0.0,0.0,0.0,0.0,0.0,0.0,0.0,0.0,0.0,0.0,0.0,0.0,0.0,0.0,0.0,0.0,0.0,0.0,0.0,0.0,0.0,0.0,0.0,0.0,0.0,0.0,0.0,0.0,0.0,0.0,-0.9691,-0.9522,-0.9884,-1.0578,-1.0874,-1.1026,-1.1241,-1.2288,-1.2323,-1.1984,-1.2023,-1.2149,-1.1898,-0.9986,-0.9384,0.0,0.0,0.0,0.0,0.0,0.0,0.0,0.0,0.0,-0.7821,-0.9405,-1.0225,-1.1175,-1.2694,-1.3408,-1.3951,-1.4241,-1.3695,-1.3199,-1.3036,-1.2448,-1.2587,-1.4328,-1.5265,-1.619,-1.7177,-1.7872,-1.8212,-1.8345,-1.8696,-1.8527,-1.7934,-1.7989,-1.7671,-1.7052,-1.61,-1.5368,-1.4748,-1.4202,-1.3802,-1.3545,-1.3602,-1.3501,-1.3233,-1.2953,-1.2921,-1.3116,-1.3262,-1.3193,-1.301,-1.2456,-1.2055,-1.1812,-1.1891,-1.243,-1.3153,-1.3708,-1.4142,-1.4459,0.0,0.0,0.0,0.0,0.0,0.0,0.0,0.0,0.0,0.0,0.0,0.0,0.0,0.0,0.0,0.0,0.0,0.0,0.0,0.0,0.0,0.0,0.0,0.0,0.0,0.0,0.0,0.0,0.0,0.0,0.0,0.0,0.0,0.0,0.0,0.0,0.0,0.0,0.0,0.0,0.0,0.0,-0.9361,-0.8988,-0.924,-0.9904,-1.0401,-1.0319,-1.0228,-1.1541,-1.1582,-1.1153,-1.2294,-1.2204,-1.154,-1.079,0.0,-0.874,-0.74,-0.6334,-0.5659,-0.5963,-0.6356,-0.6925,0.0,0.0,-0.9168,-1.0557,-1.075,-1.1156,-1.2878,-1.2997,-1.325,-1.4325,-1.3671,-1.2865,-1.2436,-1.1228,-1.0557,-1.0762,-1.2995,-1.4883,-1.5712,-1.6716,-1.7495,-1.8044,-1.8345,-1.8102,-1.7311,-1.7762,-1.7566,-1.6756,-1.6175,-1.5634,-1.5092,-1.4447,-1.4037,-1.3739,-1.3843,-1.3854,-1.3728,-1.3276,-1.306,-1.3127,-1.2864,-1.2754,-1.2685,-1.2409,-1.2135,-1.1837,-1.1812,-1.2518,-1.3447,-1.3645,-1.4277,-1.5033,0.0,0.0,0.0,0.0,0.0,0.0,0.0,0.0,0.0,0.0,0.0,0.0,0.0,0.0,0.0,0.0,0.0,0.0,0.0,0.0,0.0,0.0,0.0,0.0,0.0,0.0,0.0,0.0,0.0,0.0,0.0,0.0,0.0,0.0,0.0,0.0,0.0,0.0,0.0,0.0,0.0,0.0,-0.9204,-0.8549,-0.8405,-0.8596,-0.9328,-0.941,0.0,0.0,-1.0575,-1.0332,-1.1039,-1.1077,-1.0731,-0.9957,-0.9573,0.0,-0.7499,-0.6616,0.0,0.0,-0.6648,-0.7239,-0.848,-0.8888,-0.9319,-1.0395,-1.0525,-1.0648,-1.1348,-1.1556,-1.1744,0.0,-1.1973,-1.1449,-1.0982,-1.0216,-0.9545,-0.905,-1.0417,-1.1962,-1.3498,-1.4974,-1.6056,-1.6536,-1.7381,-1.7631,-1.7002,-1.7225,-1.6998,-1.6213,-1.5548,-1.5021,-1.4664,-1.4238,-1.3926,-1.3814,-1.3832,-1.3832,-1.3803,-1.347,-1.3344,-1.327,-1.2892,-1.2803,-1.2868,-1.2466,-1.2242,-1.2111,-1.226,-1.2817,-1.3563,-1.375,-1.4525,-1.5565,0.0,0.0,0.0,0.0,0.0,0.0,0.0,0.0,0.0,0.0,0.0,0.0,0.0,0.0,0.0,0.0,0.0,0.0,0.0,0.0,0.0,0.0,0.0,0.0,0.0,0.0,0.0,0.0,0.0,0.0,0.0,0.0,0.0,0.0,0.0,0.0,0.0,0.0,0.0,0.0,0.0,0.0,-0.8744,-0.7985,-0.7485,-0.7214,-0.802,-0.8184,0.0,0.0,-0.9052,-0.9099,-0.9463,-0.9721,-0.9662,-0.9154,-0.9018,-0.8789,-0.7407,0.0,0.0,-0.6629,-0.7049,-0.7836,-0.8856,-0.91,-0.938,-1.008,-1.0118,-0.9913,-0.9925,-1.0104,-1.0247,-1.0238,-1.0431,-1.0367,-0.9888,-0.951,-0.8997,-0.8291,-0.8575,-0.9409,-1.0842,-1.2913,-1.4435,-1.5122,-1.6289,-1.6851,-1.6473,-1.66,-1.638,-1.5676,-1.5021,-1.4584,-1.4239,-1.3922,-1.371,-1.371,-1.3636,-1.3752,-1.3805,-1.3789,-1.3678,-1.3489,-1.3143,-1.2995,-1.3121,-1.2657,-1.2392,-1.2385,-1.2788,-1.3233,-1.3668,-1.4022,-1.4721,-1.5704,0.0,0.0,0.0,0.0,0.0,0.0,0.0,0.0,0.0,0.0,0.0,0.0,0.0,0.0,0.0,0.0,0.0,0.0,0.0,0.0,0.0,0.0,0.0,0.0,0.0,0.0,0.0,0.0,0.0,0.0,0.0,0.0,0.0,0.0,0.0,0.0,0.0,0.0,0.0,0.0,0.0,0.0,-0.7814,-0.7106,-0.6515,-0.6016,-0.6587,0.0,0.0,0.0,-0.6896,-0.7244,-0.7696,-0.8226,0.0,-0.8772,-0.8243,0.0,0.0,0.0,-0.6801,-0.6902,-0.7642,-0.8543,-0.9218,-0.9493,-0.9712,-1.0085,-0.9545,-0.9024,-0.9043,-0.9072,-0.9116,-0.9289,-0.9767,-1.0058,-0.9853,-0.9382,-0.8901,-0.8426,-0.7908,-0.7771,0.0,-1.051,-1.2687,-1.4173,-1.498,-1.5473,-1.5491,-1.606,-1.5984,-1.5125,-1.4767,-1.4471,-1.4159,-1.363,-1.3305,-1.3305,-1.3402,-1.3518,-1.3727,-1.4134,-1.3948,-1.346,-1.3437,-1.3343,-1.3144,-1.3041,-1.2738,-1.2369,-1.3281,-1.3681,-1.3839,-1.4577,-1.4984,-1.5412,0.0,0.0,0.0,0.0,0.0,0.0,0.0,0.0,0.0,0.0,0.0,0.0,0.0,0.0,0.0,0.0,0.0,0.0,0.0,0.0,0.0,0.0,0.0,0.0,0.0,0.0,0.0,0.0,0.0,0.0,0.0,0.0,0.0,0.0,0.0,0.0,0.0,0.0,0.0,0.0,0.0,0.0,-0.7369,-0.6317,-0.5555,-0.4977,0.0,0.0,0.0,0.0,0.0,0.0,-0.6698,0.0,0.0,-0.7121,0.0,0.0,0.0,0.0,-0.8441,-0.9228,-0.9412,-0.9528,-1.0088,-0.9912,-0.9517,-0.9054,-0.8604,-0.8006,-0.7371,-0.7588,-0.8036,-0.8297,-0.8826,-0.9242,-0.9562,-0.8938,-0.8368,-0.8184,-0.7577,0.0,0.0,0.0,0.0,-1.1836,-1.3136,-1.4002,-1.4172,-1.4643,-1.4724,-1.4287,-1.4085,-1.3912,-1.363,-1.3423,-1.3315,-1.3315,-1.3449,-1.3675,-1.3748,-1.3933,-1.4008,-1.397,-1.3424,-1.3299,-1.3366,-1.3017,-1.2746,-1.2616,-1.3468,-1.3911,-1.4191,-1.5498,-1.5788,-1.5602,0.0,0.0,0.0,0.0,0.0,0.0,0.0,0.0,0.0,0.0,0.0,0.0,0.0,0.0,0.0,0.0,0.0,0.0,0.0,0.0,0.0,0.0,0.0,0.0,0.0,0.0,0.0,0.0,0.0,0.0,0.0,0.0,0.0,0.0,0.0,0.0,0.0,0.0,0.0,0.0,0.0,0.0,-0.6075,-0.4798,-0.4008,0.0,0.0,0.0,0.0,0.0,0.0,0.0,0.0,0.0,0.0,0.0,0.0,0.0,0.0,-0.9285,-0.988,-1.074,-1.0742,-1.0525,-1.0794,-1.0201,-0.9311,-0.8495,-0.7748,-0.69,-0.6035,-0.6237,-0.662,-0.7087,-0.7527,-0.8117,-0.8794,-0.8351,-0.7952,-0.8004,-0.7372,0.0,0.0,0.0,0.0,-1.0018,-1.1605,-1.271,-1.2942,-1.3607,-1.3906,-1.3532,-1.3445,-1.3265,-1.3096,-1.295,-1.295,-1.2989,-1.3275,-1.3491,-1.3623,-1.3965,-1.4093,-1.4234,-1.3898,-1.3657,-1.3464,-1.3307,-1.304,-1.2835,-1.3873,-1.4358,-1.4559,-1.5981,-1.6309,-1.6154,0.0,0.0,0.0,0.0,0.0,0.0,0.0,0.0,0.0,0.0,0.0,0.0,0.0,0.0,0.0,0.0,0.0,0.0,0.0,0.0,0.0,0.0,0.0,0.0,0.0,0.0,0.0,0.0,0.0,0.0,0.0,0.0,0.0,0.0,0.0,0.0,0.0,0.0,0.0,0.0,0.0,0.0,-0.4065,-0.2572,0.0,0.0,0.0,0.0,0.0,0.0,0.0,0.0,0.0,0.0,0.0,0.0,0.0,-0.8959,-0.9627,-1.0336,-1.1024,-1.1528,-1.1684,-1.1593,-1.1173,-1.0222,-0.913,-0.823,-0.6914,-0.5797,0.0,0.0,-0.4941,-0.5899,-0.6176,-0.6719,-0.7716,-0.768,-0.7567,0.0,0.0,0.0,0.0,0.0,0.0,-0.8811,0.0,-1.1466,-1.1967,-1.292,-1.3314,-1.3125,-1.2769,-1.2587,-1.2587,-1.2469,-1.2469,-1.2491,-1.2812,-1.3126,-1.3466,-1.4123,-1.4418,-1.4312,-1.4748,-1.4432,-1.3557,-1.3834,-1.3539,-1.2969,-1.4514,-1.494,-1.4947,-1.6118,-1.6667,-1.6884,0.0,0.0,0.0,0.0,0.0,0.0,0.0,0.0,0.0,0.0,0.0,0.0,0.0,0.0,0.0,0.0,0.0,0.0,0.0,0.0,0.0,0.0,0.0,0.0,0.0,0.0,0.0,0.0,0.0,0.0,0.0,0.0,0.0,0.0,0.0,0.0,0.0,0.0,0.0,0.0,0.0,0.0,-0.2567,0.0,0.0,0.0,0.0,0.0,0.0,0.0,0.0,0.0,0.0,0.0,-0.7527,0.0,0.0,-1.0063,-1.0595,-1.1543,-1.2381,-1.2904,-1.2781,-1.2194,-1.1039,-0.9794,-0.8303,-0.6348,-0.5029,-0.4012,0.0,0.0,0.0,-0.4961,-0.5885,0.0,-0.7291,-0.7319,0.0,-0.7588,0.0,-0.7208,-0.7132,-0.7336,0.0,0.0,-0.896,-1.0075,-1.1106,-1.1816,-1.2375,-1.2761,-1.279,-1.2695,-1.2469,-1.2578,-1.2663,-1.2717,-1.315,-1.3443,-1.3506,-1.4189,-1.4505,-1.4711,-1.4922,-1.4883,-1.4616,-1.4344,-1.3998,-1.3706,-1.4186,-1.4889,-1.576,-1.6556,-1.7115,-1.754,0.0,0.0,0.0,0.0,0.0,0.0,0.0,0.0,0.0,0.0,0.0,0.0,0.0,0.0,0.0,0.0,0.0,0.0,0.0,0.0,0.0,0.0,0.0,0.0,0.0,0.0,0.0,0.0,0.0,0.0,0.0,0.0,0.0,0.0,0.0,0.0,0.0,0.0,0.0,0.0,0.0,0.0,0.0,0.0,0.0,0.0,0.0,0.0,0.0,0.0,0.0,-0.5985,-0.6764,-0.7431,-0.8024,-0.8318,0.0,-1.0418,-1.1138,-1.2118,-1.2953,-1.338,-1.3165,-1.2457,-1.095,-0.9428,-0.7681,-0.5413,-0.393,0.0,0.0,0.0,0.0,0.0,0.0,0.0,-0.63,-0.643,-0.6618,0.0,-0.725,0.0,-0.702,-0.7521,-0.7654,0.0,-0.8829,-0.9957,-1.0485,-1.1659,-1.2339,-1.2581,-1.2803,-1.2846,-1.271,-1.2833,-1.2899,-1.2899,-1.3336,-1.3499,-1.3526,-1.4083,-1.4417,-1.4654,0.0,-1.5209,-1.495,-1.4872,-1.4584,-1.4278,-1.4841,-1.5458,-1.6182,-1.7171,-1.7782,-1.8062,0.0,0.0,0.0,0.0,0.0,0.0,0.0,0.0,0.0,0.0,0.0,0.0,0.0,0.0,0.0,0.0,0.0,0.0,0.0,0.0,0.0,0.0,0.0,0.0,0.0,0.0,0.0,0.0,0.0,0.0,0.0,0.0,0.0,0.0,0.0,0.0,0.0,0.0,0.0,0.0,0.0,0.0,0.0,0.0,0.0,0.0,0.0,0.0,0.0,0.0,-0.5087,-0.6356,-0.7308,-0.8004,-0.8563,-0.8964,-0.9563,-1.0373,-1.1455,-1.2274,-1.2892,-1.3295,-1.3042,-1.2281,-1.0787,-0.895,-0.6942,-0.4873,0.0,-0.1853,-0.1481,0.0,-0.1798,-0.2704,0.0,-0.4024,-0.5141,-0.5466,-0.582,-0.6275,-0.6783,-0.7045,-0.6822,-0.7543,-0.7808,-0.7551,-0.932,-1.028,-1.0154,-1.1756,-1.2723,-1.2578,-1.2726,-1.289,-1.306,-1.3098,-1.3126,-1.3154,-1.3343,-1.3479,-1.3702,-1.4179,-1.4381,-1.4687,0.0,0.0,-1.5209,-1.5538,-1.547,-1.5104,-1.598,-1.6402,-1.664,-1.794,-1.8551,-1.8715,0.0,0.0,0.0,0.0,0.0,0.0,0.0,0.0,0.0,0.0,0.0,0.0,0.0,0.0,0.0,0.0,0.0,0.0,0.0,0.0,0.0,0.0,0.0,0.0,0.0,0.0,0.0,0.0,0.0,0.0,0.0,0.0,0.0,0.0,0.0,0.0,0.0,0.0,0.0,0.0,0.0,0.0,0.0,0.0,0.0,0.0,0.0,0.0,0.0,0.0,-0.5358,-0.6493,-0.7017,-0.7939,-0.8891,-0.9383,-1.0173,-1.098,-1.1558,-1.2331,-1.3006,-1.2942,-1.2436,-1.1517,-0.986,-0.7578,0.0,0.0,0.0,0.0257,0.025,-0.0198,0.0,-0.1772,0.0,0.0,0.0,0.0,-0.5463,0.0,0.0,0.0,0.0,0.0,0.0,0.0,0.0,0.0,-1.0185,-1.1242,-1.222,-1.3012,-1.2975,-1.3032,-1.3069,-1.324,-1.3419,-1.358,-1.3618,-1.3918,-1.4583,-1.45,-1.4908,-1.5632,0.0,0.0,-1.6051,-1.6673,-1.6667,-1.6497,-1.7069,-1.7795,-1.8563,-1.9191,-1.9612,-1.9887,0.0,0.0,0.0,0.0,0.0,0.0,0.0,0.0,0.0,0.0,0.0,0.0,0.0,0.0,0.0,0.0,0.0,0.0,0.0,0.0,0.0,0.0,0.0,0.0,0.0,0.0,0.0,0.0,0.0,0.0,0.0,0.0,0.0,0.0,0.0,0.0,0.0,0.0,0.0,0.0,0.0,0.0,0.0,0.0,0.0,0.0,0.0,0.0,0.0,0.0,-0.4495,-0.5623,-0.6677,-0.7301,-0.7712,-0.8761,-0.9624,-1.0407,-1.122,-1.219,-1.2856,-1.2662,-1.2026,-1.089,-0.8965,0.0,0.0,0.0,0.0,0.0878,0.0742,0.0,0.0,0.0,0.0,0.0,0.0,0.0,0.0,0.0,0.0,0.0,0.0,0.0,0.0,0.0,0.0,0.0,-0.9493,-1.0867,-1.2047,-1.2903,-1.3274,-1.3391,-1.3391,-1.3495,-1.3589,-1.3693,-1.391,-1.4185,-1.4641,-1.4911,-1.5411,-1.6108,0.0,0.0,-1.6633,-1.7402,-1.7605,-1.7252,-1.8072,-1.877,-1.9372,-2.015,-2.0509,-2.0581,0.0,0.0,0.0,0.0,0.0,0.0,0.0,0.0,0.0,0.0,0.0,0.0,0.0,0.0,0.0,0.0,0.0,0.0,0.0,0.0,0.0,0.0,0.0,0.0,0.0,0.0,0.0,0.0,0.0,0.0,0.0,0.0,0.0,0.0,0.0,0.0,0.0,0.0,0.0,0.0,0.0,0.0,0.0,0.0,0.0,0.0,0.0,0.0,0.0,0.0,-0.3334,-0.4198,-0.5663,-0.6198,-0.6499,-0.779,-0.882,-0.978,-1.0711,-1.1843,-1.2651,-1.2308,-1.1497,-1.0289,-0.8321,-0.6152,0.0,0.0,0.0,0.0933,0.081,0.0,0.0,0.0,0.0,0.0,0.0,0.0,0.0,0.0,0.0,0.0,0.0,0.0,0.0,0.0,0.0,0.0,0.0,-1.093,-1.2173,-1.2835,-1.3444,-1.3693,-1.3693,-1.3693,-1.3712,-1.3759,-1.4043,-1.4404,-1.4755,-1.5072,-1.5784,-1.6604,0.0,0.0,0.0,-1.7968,-1.819,-1.8171,-1.9095,-1.9704,-2.0153,-2.1062,-2.1319,-2.1223,0.0,0.0,0.0,0.0,0.0,0.0,0.0,0.0,0.0,0.0,0.0,0.0,0.0,0.0,0.0,0.0,0.0,0.0,0.0,0.0,0.0,0.0,0.0,0.0,0.0,0.0,0.0,0.0,0.0,0.0,0.0,0.0,0.0,0.0,0.0,0.0,0.0,0.0,0.0,0.0,0.0,0.0,0.0,0.0,0.0,0.0,0.0,0.0,0.0,0.0,0.0,-0.2513,-0.3245,-0.4588,-0.608,-0.6831,0.0,0.0,-1.018,-1.1337,-1.2318,-1.1833,-1.0817,-0.9475,-0.7959,0.0,0.0,0.0,0.0,0.1027,0.1155,0.092,0.0,0.0,0.0,0.0,0.0,0.0,0.0,0.0,0.0,0.0,0.0,0.0,0.0,0.0,0.0,0.0,0.0,-1.1954,-1.256,-1.3564,-1.3693,-1.3693,-1.3693,-1.3693,-1.3788,-1.3977,-1.3816,-1.4401,-1.558,-1.5185,-1.5968,-1.7485,0.0,0.0,0.0,-1.8257,-1.8831,-1.9453,-2.0089,-2.0838,-2.1494,-2.223,-2.2355,-2.2155,0.0,0.0,0.0,0.0,0.0,0.0,0.0,0.0,0.0,0.0,0.0,0.0,0.0,0.0,0.0,0.0,0.0,0.0,0.0,0.0,0.0,0.0,0.0,0.0,0.0,0.0,0.0,0.0,0.0,0.0,0.0,0.0,0.0,0.0,0.0,0.0,0.0,0.0,0.0,0.0,0.0,0.0,0.0,0.0,0.0,0.0,0.0,0.0,0.0,0.0,0.0,0.0,-0.2431,-0.3087,0.0,0.0,-0.7,-0.8381,-0.9605,-1.0943,-1.196,-1.1772,-1.0414,-0.8742,-0.7038,0.0,0.0,0.0,0.0,0.1261,0.1029,0.0726,0.0068,0.0,0.0,0.0,0.0,0.0,0.0,0.0,0.0,0.0,0.0,0.0,0.0,0.0,0.0,0.0,0.0,-1.1852,-1.2482,-1.3084,-1.3444,-1.3693,-1.3693,-1.3693,-1.3731,-1.3816,-1.3863,-1.4382,-1.5246,-1.5195,-1.6085,-1.7656,0.0,0.0,0.0,-1.8765,-1.9163,-1.9714,-2.0272,-2.1274,-2.2317,-2.2681,-2.2859,-2.2949,0.0,0.0,0.0,0.0,0.0,0.0,0.0,0.0,0.0,0.0,0.0,0.0,0.0,0.0,0.0,0.0,0.0,0.0,0.0,0.0,0.0,0.0,0.0,0.0,0.0,0.0,0.0,0.0,0.0,0.0,0.0,0.0,0.0,0.0,0.0,0.0,0.0,0.0,0.0,0.0,0.0,0.0,0.0,0.0,0.0,0.0,0.0,0.0,0.0,0.0,0.0,0.0,0.0,0.0,0.0,0.0,-0.5659,-0.7191,-0.8442,-0.9801,-1.0764,-1.0548,-0.9285,-0.7628,0.0,0.0,0.0,0.0,0.0514,0.1135,0.0846,0.0465,-0.0136,0.0,0.0,0.0,0.0,0.0,0.0,0.0,0.0,0.0,0.0,0.0,0.0,0.0,0.0,0.0,0.0,-1.2116,-1.2702,-1.2955,-1.3444,-1.3693,-1.3693,-1.3693,-1.3693,-1.3693,-1.3844,-1.4314,-1.4983,-1.5135,-1.6074,0.0,0.0,0.0,0.0,-1.8879,-1.9389,-1.9932,-2.0332,-2.1441,-2.2792,-2.3024,-2.3287,-2.3377,0.0,0.0,0.0,0.0,0.0,0.0,0.0,0.0,0.0,0.0,0.0,0.0,0.0,0.0,0.0,0.0,0.0,0.0,0.0,0.0,0.0,0.0,0.0,0.0,0.0,0.0,0.0,0.0,0.0,0.0,0.0,0.0,0.0,0.0,0.0,0.0,0.0,0.0,0.0,0.0,0.0,0.0,0.0,0.0,0.0,0.0,0.0,0.0,0.0,0.0,0.0,0.0,0.0,0.0,0.0,0.0,-0.4504,-0.6185,-0.6466,-0.7513,-0.8436,-0.7849,-0.7004,-0.5966,0.0,0.0,0.0,0.0,0.0193,0.0586,0.0738,0.0337,-0.0411,-0.1658,0.0,0.0,0.0,0.0,0.0,0.0,0.0,0.0,0.0,0.0,0.0,0.0,0.0,0.0,0.0,0.0,-1.3684,-1.3684,-1.3693,-1.3693,-1.3693,-1.3693,-1.3693,-1.3693,-1.3693,-1.4159,-1.4983,-1.4983,0.0,0.0,0.0,0.0,0.0,-1.834,-1.9152,-2.0382,-2.0484,-2.1506,-2.3055,-2.3538,-2.3484,-2.3184,0.0,0.0,0.0,0.0,0.0,0.0,0.0,0.0,0.0,0.0,0.0,0.0,0.0,0.0,0.0,0.0,0.0,0.0,0.0,0.0,0.0,0.0,0.0,0.0,0.0,0.0,0.0,0.0,0.0,0.0,0.0,0.0,0.0,0.0,0.0,0.0,0.0,0.0,0.0,0.0,0.0,0.0,0.0,0.0,0.0,0.0,0.0,0.0,0.0,0.0,0.0,0.0,0.0,0.0,0.0,0.0,0.0,0.0,-0.5331,-0.6064,-0.66,-0.6482,-0.5743,-0.4806,-0.3783,0.0,0.0,0.0,0.0,0.0587,0.0738,0.0539,-0.0205,-0.1871,-0.2094,0.0,0.0,0.0,0.0,0.0,0.0,0.0,0.0,0.0,0.0,0.0,0.0,0.0,0.0,0.0,-1.3693,-1.3693,-1.3693,-1.3693,-1.3693,-1.3693,-1.3693,-1.3693,-1.3693,-1.4004,-1.4528,-1.468,0.0,0.0,0.0,0.0,0.0,-1.8704,-1.9541,-2.0801,-2.0752,-2.1956,-2.3609,-2.3827,-2.4159,-2.4384,0.0,0.0,0.0,0.0,0.0,0.0,0.0,0.0,0.0,0.0,0.0,0.0,0.0,0.0,0.0,0.0,0.0,0.0,0.0,0.0,0.0,0.0,0.0,0.0,0.0,0.0,0.0,0.0,0.0,0.0,0.0,0.0,0.0,0.0,0.0,0.0,0.0,0.0,0.0,0.0,0.0,0.0,-0.0495,0.0,0.0,0.0,0.0,0.0,0.0,0.0,0.0,0.0,0.0,0.0,0.0,0.0,0.0,0.0,0.0,-0.4436,-0.4828,-0.4776,-0.4317,0.0,0.0,0.0,0.0,0.0,0.0,0.0,0.0594,0.02,-0.0545,-0.1636,-0.2131,0.0,0.0,0.0,0.0,0.0,0.0,0.0,0.0,0.0,0.0,0.0,0.0,0.0,0.0,0.0,-1.3444,-1.3684,-1.3693,-1.3693,-1.3693,-1.3693,-1.3693,-1.3693,-1.3693,-1.3936,-1.4316,0.0,0.0,0.0,0.0,0.0,0.0,-1.8691,-1.9566,-2.0831,-2.129,-2.2474,-2.3997,-2.4299,-2.4659,-2.4865,0.0,0.0,0.0,0.0,0.0,0.0,0.0,0.0,0.0,0.0,0.0,0.0,0.0,0.0,0.0,0.0,0.0,0.0,0.0,0.0,0.0,0.0,0.0,0.0,0.0,0.0,0.0,0.0,-0.5528,-0.5211,-0.5042,0.0,0.0,0.0,0.0,0.0,0.0,0.0,-0.1253,0.0,-0.1359,-0.1153,0.0,0.0,0.0,0.0,0.0,0.0,0.0,0.0,0.0,0.0,0.0,0.0,0.0,0.0,0.0,0.0,0.0,0.0,0.0,0.0,0.0,0.0,0.0,0.0,0.0,0.0,0.0,0.0,0.0,0.0,-0.1295,-0.1476,0.0,0.0,0.0,0.0,0.0,0.0,0.0,0.0,0.0,0.0,0.0,0.0,0.0,0.0,0.0,0.0,0.0,-1.3665,-1.3665,-1.3674,-1.3693,-1.3693,-1.3693,-1.3693,-1.3794,-1.3907,-1.4286,0.0,0.0,0.0,0.0,0.0,0.0,-1.834,-1.9332,-2.0768,-2.1963,-2.3079,-2.4088,-2.4867,-2.5083,-2.4944,0.0,0.0,0.0,0.0,0.0,0.0,0.0,0.0,0.0,0.0,0.0,0.0,0.0,0.0,0.0,0.0,0.0,0.0,0.0,0.0,0.0,0.0,0.0,0.0,0.0,0.0,0.0,-0.5763,-0.5641,-0.5544,-0.5427,-0.4656,0.0,0.0,0.0,0.0,-0.1,-0.1221,-0.1462,-0.1661,-0.1613,-0.1548,0.0,0.0,0.0,0.0,-0.1269,-0.1814,0.0,0.0,0.0,0.0,0.0,0.0,0.0,0.0,0.0,0.0,0.0,0.0,0.0,0.0,0.0,0.0,0.0,0.0,0.0,0.0,0.0,0.0,0.0,0.0,0.0,0.0,0.0,0.0,0.0,0.0,0.0,0.0,0.0,0.0,0.0,0.0,0.0,0.0,0.0,0.0,0.0,0.0,0.0,-1.3466,-1.3457,-1.3532,-1.3684,-1.3933,-1.4052,-1.4052,-1.4114,-1.4275,-1.4406,0.0,0.0,0.0,0.0,0.0,0.0,-1.8384,-1.9533,-2.0742,-2.2338,-2.3528,-2.4374,-2.5383,-2.55,-2.5314,0.0,0.0,0.0,0.0,0.0,0.0,0.0,0.0,0.0,0.0,0.0,0.0,0.0,0.0,0.0,0.0,0.0,0.0,0.0,0.0,0.0,0.0,0.0,0.0,0.0,0.0,0.0,0.0,0.0,-0.5828,0.0,0.0,0.0,0.0,0.0,0.0,-0.1331,-0.1257,-0.1525,-0.1961,-0.1828,0.0,0.0,0.0,0.0,0.0,-0.1937,-0.219,0.0,-0.2632,-0.2579,-0.2338,0.0,0.0,0.0,0.0,0.0601,0.0505,0.0112,0.0,0.0,0.0,0.0,0.0,0.0,0.0,0.0,0.0,0.0,0.0,0.0,0.0,0.0,0.0,0.0,0.0,0.0,0.0,0.0,0.0,0.0,0.0,0.0,0.0,0.0,0.0,0.0,0.0,0.0,0.0,0.0,0.0,-1.3296,-1.3296,-1.34,-1.3849,-1.4015,-1.4015,-1.4249,-1.431,-1.4437,0.0,0.0,0.0,0.0,0.0,-1.7412,-1.8673,-1.9771,-2.0846,-2.2425,-2.3764,-2.4966,-2.5247,-2.5829,-2.6428,0.0,0.0,0.0,0.0,0.0,0.0,0.0,0.0,0.0,0.0,0.0,0.0,0.0,0.0,0.0,0.0,0.0,0.0,0.0,0.0,0.0,0.0,0.0,0.0,0.0,0.0,0.0,0.0,0.0,0.0,0.0,0.0,0.0,0.0,0.0,0.0,-0.1382,-0.1273,-0.1618,-0.2184,-0.1987,0.0,0.0,0.0,0.0,0.0,0.0,0.0,0.0,-0.2843,-0.2599,-0.2032,-0.1195,0.0,0.0,0.0,0.0,0.0,0.0282,-0.0651,-0.1415,0.0,0.0,0.0,0.0,0.0,0.0,0.0,0.0,0.0,0.0,0.0,0.0,0.0,0.0,0.0,0.0,0.0,0.0,0.0,0.0,0.0,0.0,0.0,0.0,0.0,0.0,0.0,0.0,0.0,0.0,0.0,-1.3192,-1.3203,-1.3136,-1.3722,-1.3976,-1.4122,-1.4286,-1.4395,-1.4437,-1.45,0.0,0.0,0.0,0.0,-1.7551,-1.8714,-1.9761,-2.0781,-2.2261,-2.3829,-2.5235,-2.4984,-2.6021,-2.7342,0.0,0.0,0.0,0.0,0.0,0.0,0.0,0.0,0.0,0.0,0.0,0.0,0.0,0.0,0.0,0.0,0.0,0.0,0.0,0.0,0.0,0.0,0.0,0.0,0.0,0.0,0.0,0.0,0.0,0.0,-0.5731,-0.5461,-0.4532,0.0,0.0,-0.1624,-0.1327,-0.1437,-0.1722,-0.218,0.0,0.0,0.0,0.0,0.0,0.0,0.0,0.0,0.0,-0.1761,-0.1455,-0.1202,0.0205,0.0,0.0,0.0,0.0,0.0,0.0,-0.0794,-0.1452,0.0,0.0,0.0,0.0,0.0,0.0,0.0,0.0,0.0,0.0,0.0,0.0,0.0,0.0,0.0,0.0,0.0,0.0,0.0,0.0,0.0,0.0,0.0,0.0,0.0,0.0,0.0,0.0,0.0,0.0,0.0,0.0,-1.3614,-1.3243,-1.3874,-1.4514,-1.4935,-1.4782,-1.481,-1.4869,-1.4866,-1.4968,0.0,0.0,0.0,-1.6932,-1.809,-1.9198,-2.0116,-2.1786,-2.3123,-2.4221,-2.508,-2.5836,-2.6267,0.0,0.0,0.0,0.0,0.0,0.0,0.0,0.0,0.0,0.0,0.0,0.0,0.0,0.0,0.0,0.0,0.0,0.0,0.0,0.0,0.0,0.0,0.0,0.0,0.0,0.0,0.0,0.0,0.0,-0.5095,-0.5378,-0.463,-0.3716,-0.2664,0.0,-0.1598,-0.1494,-0.1624,-0.1983,-0.2484,0.0,0.0,0.0,0.0,0.0,0.0,0.0,0.0,0.0,0.0,-0.1613,-0.1183,0.0102,0.0,0.0,0.0,0.0,0.0,0.0227,-0.066,-0.1617,0.0,0.0,0.0,0.0,0.0,0.0,0.0,0.0,0.0,0.0,0.0,0.0,0.0,0.0,0.0,0.0,0.0,0.0,0.0,0.0,0.0,0.0,0.0,0.0,0.0,0.0,0.0,0.0,0.0,0.0,0.0,0.0,0.0,-1.4002,-1.4551,-1.4877,-1.4972,-1.4982,-1.5098,-1.5423,-1.527,-1.5267,0.0,0.0,-1.6736,-1.708,-1.8438,-1.942,-2.0181,-2.138,-2.3026,-2.479,-2.6306,-2.6838,-2.6642,0.0,0.0,0.0,0.0,0.0,0.0,0.0,0.0,0.0,0.0,0.0,0.0,0.0,0.0,0.0,0.0,0.0,0.0,0.0,0.0,0.0,0.0,0.0,0.0,0.0,0.0,0.0,-0.4274,-0.4493,-0.4766,-0.508,-0.4095,-0.3233,0.0,0.0,-0.1765,-0.1758,-0.1923,-0.2258,-0.2781,0.0,0.0,0.0,0.0,0.0,0.0,0.0,0.0,0.0,0.0,0.0,0.0,0.0,0.0,0.0,0.0,0.129,0.0824,0.0284,-0.0653,-0.1834,0.0,0.0,0.0,0.0,0.0,0.0,0.0,0.0,0.0,0.0,0.0,0.0,0.0,0.0,0.0,0.0,0.0,0.0,0.0,0.0,0.0,0.0,0.0,0.0,0.0,0.0,0.0,0.0,0.0,0.0,0.0,0.0,0.0,-1.4782,-1.5182,-1.5232,-1.5167,-1.521,-1.5489,-1.5873,-1.5705,-1.5589,-1.5696,-1.6524,-1.6948,-1.7397,-1.8688,-1.9531,-2.0167,-2.0903,-2.2823,-2.5405,-2.6903,-2.7373,-2.7275,0.0,0.0,0.0,0.0,0.0,0.0,0.0,0.0,0.0,0.0,0.0,0.0,0.0,0.0,0.0,0.0,0.0,0.0,0.0,0.0,0.0,0.0,0.0,0.0,0.0,-0.2221,-0.2719,-0.3612,-0.3752,-0.401,-0.4376,-0.4253,-0.3785,-0.3003,0.0,-0.2853,-0.2159,-0.2363,-0.2594,-0.2876,-0.3025,0.0,0.0,0.0,0.0,0.0,0.0,0.0,0.0,0.0,0.0,0.0,0.0,0.0,0.0,0.0,0.0,0.053,-0.0303,-0.1164,0.0,0.0,0.0,0.0,0.0,0.0,0.0,0.0,0.0,0.0,0.0,0.0,0.0,0.0,0.0,0.0,0.0,0.0,0.0,0.0,0.0,0.0,0.0,0.0,0.0,0.0,0.0,0.0,0.0,0.0,0.0,0.0,0.0,0.0,-1.4782,-1.5134,-1.5588,-1.6031,-1.5875,-1.5873,-1.6109,-1.5922,-1.6004,-1.6324,-1.6855,-1.7279,-1.7582,-1.824,-1.8974,-1.9821,-2.0339,-2.2367,-2.5077,-2.5956,-2.6709,-2.7317,0.0,0.0,0.0,0.0,0.0,0.0,0.0,0.0,0.0,0.0,0.0,0.0,0.0,0.0,0.0,0.0,0.0,0.0,0.0,0.0,0.0,0.0,0.0,-0.0446,-0.0689,-0.1472,-0.2277,-0.2895,-0.3366,-0.3728,-0.3937,-0.3937,0.0,0.0,0.0,-0.3361,-0.3303,-0.3171,-0.329,-0.3532,-0.3512,-0.3846,0.0,0.0,0.0,0.0,0.0,0.0,0.0,0.0,0.0,0.0,0.0,0.0,0.0,0.0,0.0,0.0,-0.0168,-0.1528,0.0,0.0,0.0,0.0,0.0,0.0,0.0,0.0,0.0,0.0,0.0,0.0,0.0,0.0,0.0,0.0,0.0,0.0,0.0,0.0,0.0,0.0,0.0,0.0,0.0,0.0,0.0,0.0,0.0,0.0,0.0,0.0,0.0,0.0,0.0,-1.5418,-1.5841,-1.6414,-1.6081,-1.6136,-1.677,-1.6559,-1.633,-1.6285,-1.6989,-1.7384,-1.7639,-1.8142,-1.8978,-2.0071,-2.1361,-2.2751,-2.4178,-2.5019,-2.5732,-2.6166,0.0,0.0,0.0,0.0,0.0,0.0,0.0,0.0,0.0,0.0,0.0,0.0,0.0,0.0,0.0,0.0,0.0,0.0,0.0,0.0,0.0,0.0,0.0,0.0073,0.0,-0.0811,-0.1671,-0.2224,-0.2978,-0.3392,-0.3616,0.0,0.0,0.0,0.0,0.0,0.0,-0.3966,-0.3869,-0.4028,-0.4086,-0.4262,0.0,0.0,0.0,0.0,0.0,0.0,0.0,0.0,0.0,0.0,0.0,0.0,0.0,0.0,0.0,0.0,-0.0537,-0.2072,0.0,0.0,0.0,0.0,0.0,0.0,0.0,0.0,0.0,0.0,0.0,0.0,0.0,0.0,0.0,0.0,0.0,0.0,0.0,0.0,0.0,0.0,0.0,0.0,0.0,0.0,0.0,0.0,0.0,0.0,0.0,0.0,0.0,0.0,0.0,-1.5456,-1.5893,-1.6476,-1.6211,-1.6423,-1.7076,-1.6829,-1.6678,-1.6612,-1.7118,-1.7414,-1.7733,-1.8037,-1.892,-2.0327,-2.1877,-2.301,-2.3929,-2.4504,-2.5179,-2.5678,0.0,0.0,0.0,0.0,0.0,0.0,0.0,0.0,0.0,0.0,0.0,0.0,0.0,0.0,0.0,0.0,0.0,0.0,0.0,0.0,0.0,0.0,0.0,0.021,-0.0076,-0.0332,-0.0815,-0.1472,-0.2398,-0.3101,-0.34,0.0,0.0,0.0,0.0,0.0,0.0,0.0,-0.4435,-0.4353,-0.4581,-0.4518,-0.4264,0.0,0.0,0.0,0.0,0.0,0.0,0.0,0.0,0.0,0.0,0.0,0.0,0.0,0.0,-0.1174,-0.1623,0.0,0.0,0.0,0.0,0.0,0.0,0.0,0.0,0.0,0.0,0.0,0.0,0.0,0.0,0.0,0.0,0.0,0.0,0.0,0.0,0.0,0.0,0.0,0.0,0.0,0.0,0.0,0.0,0.0,0.0,0.0,0.0,0.0,0.0,0.0,0.0,-1.5074,-1.5383,-1.6174,-1.6268,-1.6561,-1.7041,-1.6764,-1.6814,-1.7114,-1.7399,-1.7612,-1.791,-1.7924,-1.8895,-2.0516,-2.1661,-2.3103,-2.4436,-2.4315,-2.5114,-2.6104,0.0,0.0,0.0,0.0,0.0,0.0,0.0,0.0,0.0,0.0,0.0,0.0,0.0,0.0,0.0,0.0,0.0,0.0,0.0,0.0,0.0,0.0,0.0,0.0,0.0,0.0,-0.0164,-0.1475,-0.2011,-0.2566,0.0,0.0,0.0,-0.5109,0.0,0.0,0.0,0.0,-0.5102,-0.4972,-0.4882,-0.4807,-0.467,0.0,0.0,0.0,0.0,0.0,0.0,0.0,0.0,0.0,0.0,0.0,0.0,0.0,-0.1231,-0.1902,-0.1958,0.0,0.0,0.0,0.0,0.0,0.0,0.0,0.0,0.0,0.0,0.0,0.0,0.0,0.0,0.0,0.0,0.0,0.0,0.0,0.0,0.0,0.0,0.0,0.0,0.0,0.0,0.0,0.0,0.0,0.0,0.0,0.0,0.0,0.0,0.0,0.0,0.0,-1.5223,-1.6221,-1.5896,-1.6188,-1.7054,-1.6988,-1.699,-1.7093,-1.7414,-1.7485,-1.7595,-1.8415,-1.931,-2.0246,-2.092,-2.1735,-2.2438,-2.2685,-2.318,-2.3775,0.0,0.0,0.0,0.0,0.0,0.0,0.0,0.0,0.0,0.0,0.0,0.0,0.0,0.0,0.0,0.0,0.0,0.0,0.0,0.0,0.0,0.0,0.0,0.0,0.0,0.1083,0.0225,0.0,0.0,0.0,0.0,0.0,0.0,-0.5286,0.0,-0.563,0.0,0.0,-0.5332,-0.551,-0.527,-0.5061,-0.4847,0.0,0.0,0.0,0.0,0.0,0.0,0.0,0.0,0.0,0.0,0.0,0.0,0.0,-0.1684,-0.2473,0.0,0.0,0.0,0.0,0.0,0.0,0.0,0.0,0.0,0.0,0.0,0.0,0.0,0.0,0.0,0.0,0.0,0.0,0.0,0.0,0.0,0.0,0.0,0.0,0.0,0.0,0.0,0.0,0.0,0.0,0.0,0.0,0.0,0.0,0.0,0.0,0.0,0.0,0.0,-1.5931,-1.5846,-1.6216,-1.6905,-1.6938,-1.6953,-1.6978,-1.7452,-1.752,-1.7567,-1.8758,-1.9542,-2.0201,-2.0917,-2.155,-2.2167,-2.2316,-2.2569,-2.2938,0.0,0.0,0.0,0.0,0.0,0.0,0.0,0.0,0.0,0.0,0.0,0.0,0.0,0.0,0.0,0.0,0.0,0.0,0.0,0.0,0.0,0.0,0.0,0.0,0.0,0.0,0.0,0.0,0.0,0.0,0.0,0.0,-0.4117,-0.4954,0.0,-0.5211,0.0,-0.5247,-0.5306,-0.5844,-0.5647,-0.5247,-0.4728,-0.4496,0.0,0.0,0.0,0.0,0.0,0.0,0.0,0.0,0.0,0.0,0.0,-0.1282,-0.2129,0.0,0.0,0.0,0.0,0.0,0.0,0.0,0.0,0.0,0.0,0.0,0.0,0.0,0.0,0.0,0.0,0.0,0.0,0.0,0.0,0.0,0.0,0.0,0.0,0.0,0.0,0.0,0.0,0.0,0.0,0.0,0.0,0.0,0.0,0.0,0.0,0.0,0.0,0.0,0.0,0.0,-1.6108,-1.6433,-1.6672,-1.6616,-1.6777,-1.7073,-1.7542,-1.7729,-1.7837,-1.8895,-1.9587,-2.0262,-2.1225,-2.2138,-2.2795,-2.2648,-2.2972,-2.3313,0.0,0.0,0.0,0.0,0.0,0.0,0.0,0.0,0.0,0.0,0.0,0.0,0.0,0.0,0.0,0.0,0.0,0.0,0.0,0.0,0.0,0.0,0.0,0.0,0.0,0.0,0.0,0.0,0.0,0.0,0.0,0.0,0.0,-0.4206,0.0,-0.4846,-0.4991,-0.4906,-0.5036,-0.5226,-0.5102,-0.4823,-0.4381,-0.3681,-0.3064,0.0,0.0,0.0,0.0,0.0,0.0,0.0,0.0,-0.1221,-0.1433,-0.1706,-0.2531,0.0,0.0,0.0,0.0,0.0,0.0,0.0,0.0,0.0,0.0,0.0,0.0,0.0,0.0,0.0,0.0,0.0,0.0,0.0,0.0,0.0,0.0,0.0,0.0,0.0,0.0,0.0,0.0,0.0,0.0,0.0,0.0,0.0,0.0,0.0,0.0,0.0,-1.4676,-1.478,-1.5234,0.0,-1.6276,-1.6534,-1.7007,-1.6717,-1.6965,-1.7542,-1.7636,-1.7994,-1.8566,-1.8814,-1.9402,-2.0303,-2.0622,-2.1356,-2.2311,-2.2233,-2.264,-2.3174,0.0,0.0,0.0,0.0,0.0,0.0,0.0,0.0,0.0,0.0,0.0,0.0,0.0,0.0,0.0,0.0,0.0,0.0,0.0,0.0,0.0,0.0,0.0,0.0,0.0,0.0,0.0,0.0,0.0,0.0,0.0,0.0,0.0,-0.3808,0.0,-0.4349,-0.4583,-0.4474,-0.4731,-0.5121,-0.4984,-0.4702,-0.4379,-0.3651,-0.2949,-0.228,-0.1681,0.0,0.0,0.0,0.0,0.0,0.0,0.0,-0.1369,-0.1749,-0.2454,-0.3204,0.0,0.0,0.0,0.0,0.0,0.0,0.0,0.0,0.0,0.0,0.0,0.0,0.0,0.0,0.0,0.0,0.0,0.0,0.0,0.0,0.0,0.0,0.0,0.0,0.0,0.0,0.0,0.0,0.0,0.0,0.0,0.0,0.0,0.0,0.0,0.0,-1.431,-1.4577,-1.5008,-1.5732,-1.5862,-1.6206,-1.6649,-1.6922,-1.7203,-1.7729,-1.7807,-1.8272,-1.8827,-1.912,-1.9654,-2.0546,-2.0855,-2.1618,-2.2422,-2.2717,-2.2949,-2.328,0.0,0.0,0.0,0.0,0.0,0.0,0.0,0.0,0.0,0.0,0.0,0.0,0.0,0.0,0.0,0.0,0.0,0.0,0.0,0.0,0.0,0.0,0.0,0.0,0.0,0.0,0.0,0.0,0.0,0.0,0.0,0.0,0.0,-0.3435,0.0,0.0,-0.4385,-0.4004,-0.4287,-0.5031,-0.4816,-0.4603,-0.4312,-0.3757,-0.2919,-0.1996,-0.1643,-0.1212,-0.0804,-0.0886,0.0,0.0,0.0,0.0,-0.1274,-0.163,-0.2148,-0.2777,0.0,0.0,0.0,0.0,0.0,0.0,0.0,0.0,0.0,0.0,0.0,0.0,0.0,0.0,0.0,0.0,0.0,0.0,0.0,0.0,0.0,0.0,0.0,0.0,0.0,0.0,0.0,0.0,0.0,0.0,0.0,0.0,0.0,0.0,0.0,-1.3446,-1.3883,-1.4362,-1.4764,-1.5083,-1.5452,-1.5792,-1.6317,-1.6876,-1.7326,-1.7732,-1.8056,-1.855,-1.9012,-1.9487,-2.0167,-2.0819,-2.1425,-2.2095,-2.2756,-2.3189,-2.3361,-2.3322,0.0,0.0,0.0,0.0,0.0,0.0,0.0,0.0,0.0,0.0,0.0,0.0,0.0,0.0,0.0,0.0,0.0,0.0,0.0,0.0,0.0,0.0,0.0,0.0,0.0,0.0,0.0,0.0,0.0,0.0,0.0,0.0,0.0,-0.2592,0.0,0.0,0.0,-0.3392,-0.369,-0.4497,-0.4082,-0.3914,-0.3823,-0.3261,-0.2658,-0.2087,-0.1519,-0.1119,-0.0823,-0.0803,-0.1016,0.0,0.0,0.0,0.0,0.0,0.0,0.0,0.0,0.0,0.0,0.0,0.0,0.0,0.0,0.0,0.0,0.0,0.0,0.0,0.0,0.0,0.0,0.0,0.0,0.0,0.0,0.0,0.0,0.0,0.0,0.0,0.0,0.0,0.0,0.0,0.0,0.0,0.0,0.0,-0.9716,-1.0304,-1.1931,0.0,-1.3531,-1.4014,-1.4584,-1.5083,-1.5547,-1.6197,-1.6908,-1.6429,-1.6776,-1.7659,-1.8425,-1.9104,-1.9745,-2.011,-2.0552,-2.1149,-2.1565,-2.2024,-2.2383,-2.2796,-2.2961,-2.2899,0.0,0.0,0.0,0.0,0.0,0.0,0.0,0.0,0.0,0.0,0.0,0.0,0.0,0.0,0.0,0.0,0.0,0.0,0.0,0.0,0.0,0.0,0.0,0.0,0.0,0.0,0.0,0.0,0.0,0.0,0.0,-0.1123,-0.1653,0.0,0.0,0.0,0.0,0.0,0.0,-0.3773,-0.3849,-0.3822,-0.3698,-0.3161,-0.2734,-0.2347,-0.1928,-0.1547,-0.1251,-0.1276,-0.1405,-0.1504,-0.138,0.0,0.0,0.0,0.0,0.0,0.0,0.0,0.0,0.0,0.0,0.0,0.0,0.0,0.0,0.0,0.0,0.0,0.0,0.0,0.0,0.0,0.0,0.0,0.0,0.0,0.0,0.0,0.0,0.0,0.0,0.0,0.0,0.0,0.0,0.0,0.0,-0.8291,-0.9526,-1.0371,-1.1671,0.0,-1.3309,-1.3622,-1.4138,-1.4785,-1.4995,-1.545,-1.6239,-1.6106,-1.6595,-1.7583,-1.8099,-1.8797,-1.9608,-1.9894,-2.0377,-2.0948,-2.1541,-2.2012,-2.2451,-2.3022,-2.3022,-2.2757,0.0,0.0,0.0,0.0,0.0,0.0,0.0,0.0,0.0,0.0,0.0,0.0,0.0,0.0,0.0,0.0,0.0,0.0,0.0,0.0,0.0,0.0,0.0,0.0,0.0,0.0,0.0,0.0,0.0,0.0,-0.04,-0.0599,-0.1212,0.0,-0.2281,0.0,0.0,0.0,0.0,0.0,0.0,0.0,0.0,0.0,0.0,-0.2642,-0.234,-0.2053,-0.1761,-0.1767,-0.1796,-0.1781,-0.162,-0.1612,0.0,0.0,0.0,0.0,0.0,0.0,0.0,0.0,0.0,0.0,0.0,0.0,0.0,0.0,0.0,0.0,0.0,0.0,0.0,0.0,0.0,0.0,0.0,0.0,0.0,0.0,0.0,0.0,0.0,0.0,0.0,0.0,0.0,0.0,-0.7028,-0.8117,-0.9264,-1.0405,-1.1504,-1.2316,-1.3123,-1.3461,-1.4025,-1.4665,-1.4636,-1.4897,-1.5613,-1.5734,-1.6413,-1.7412,-1.7951,-1.8588,-1.9397,-1.9677,-2.0229,-2.0855,-2.1714,-2.2108,-2.2432,-2.3036,-2.3016,-2.2551,0.0,0.0,0.0,0.0,0.0,0.0,0.0,0.0,0.0,0.0,0.0,0.0,0.0,0.0,0.0,0.0,0.0,0.0,0.0,0.0,0.0,0.0,0.0,0.0,0.0,0.0,0.0,0.0,0.0,0.0,0.0258,-0.0388,-0.1031,-0.1672,-0.1918,-0.1936,-0.1877,0.0,0.0,0.0,0.0,0.0,0.0,0.0,0.0,0.0,0.0,0.0,-0.2122,-0.2023,-0.2005,-0.2011,-0.179,-0.1697,-0.1631,0.0,0.0,0.0,0.0,0.0,0.0,0.0,0.0,0.0,0.0,0.0,0.0,0.0,0.0,0.0,0.0,0.0,0.0,0.0,0.0,0.0,0.0,0.0,0.0,0.0,0.0,0.0,0.0,0.0,0.0,0.0,0.0,0.0,-0.7061,-0.8032,-0.9087,-1.0241,-1.1197,-1.2146,-1.3101,-1.377,-1.4341,-1.4897,-1.4753,-1.5007,-1.5476,-1.5485,-1.595,-1.6978,-1.7997,-1.8835,-1.9521,-1.9965,-2.0486,-2.1028,-2.2026,-2.2249,-2.1921,-2.259,-2.2562,-2.215,0.0,0.0,0.0,0.0,0.0,0.0,0.0,0.0,0.0,0.0,0.0,0.0,0.0,0.0,0.0,0.0,0.0,0.0,0.0,0.0,0.0,0.0,0.0,0.0,0.0,0.0,0.0,0.0,0.0,0.1883,0.0625,0.0,-0.0449,-0.0668,-0.1481,-0.1898,-0.2036,-0.2671,0.0,0.0,0.0,0.0,0.0,0.0,0.0,0.0,0.0,0.0,0.0,-0.253,-0.2566,-0.2591,-0.2213,-0.2152,-0.2247,0.0,0.0,0.0,0.0,0.0,0.0,0.0,0.0,0.0,0.0,0.0,0.0,0.0,0.0,0.0,0.0,0.0,0.0,0.0,0.0,0.0,0.0,0.0,0.0,0.0,0.0,0.0,0.0,0.0,0.0,0.0,0.0,0.0,-0.7312,-0.8105,-0.9244,-1.0722,-1.1241,-1.21,-1.3476,-1.3913,-1.4399,-1.513,-1.519,-1.5533,-1.5977,-1.61,-1.6499,-1.7087,-1.7714,-1.8413,-1.912,-1.927,-1.9734,-2.0294,-2.0711,-2.1008,-2.1383,-2.1774,-2.1732,-2.1458,0.0,0.0,0.0,0.0,0.0,0.0,0.0,0.0,0.0,0.0,0.0,0.0,0.0,0.0,0.0,0.0,0.0,0.0,0.0,0.0,0.0,0.0,0.0,0.0,0.0,0.0,0.0,0.0,0.0,0.0,0.0,0.0425,0.0,-0.0124,-0.0934,-0.14,0.0,0.0,0.0,-0.2896,0.0,0.0,-0.4064,0.0,0.0,0.0,0.0,0.0,0.0,0.0,0.0,0.0,0.0,0.0,0.0,0.0,0.0,0.0,0.0,0.0,0.0,0.0,0.0,0.0,0.0,0.0,0.0,0.0,0.0,0.0,0.0,0.0,0.0,0.0,0.0,0.0,0.0,0.0,0.0,0.0,0.0,0.0,0.0,0.0,0.0,0.0,0.0,0.0,-0.7577,-0.8281,-0.9419,-1.1154,-1.1929,-1.2784,-1.3899,-1.4321,-1.4895,-1.5548,-1.5906,-1.6309,-1.6743,-1.6877,-1.7111,-1.7466,-1.7543,-1.806,-1.8788,-1.9047,-1.9444,-2.0053,-2.0434,-2.0925,-2.149,-2.1639,-2.1481,-2.1135,0.0,0.0,0.0,0.0,0.0,0.0,0.0,0.0,0.0,0.0,0.0,0.0,0.0,0.0,0.0,0.0,0.0,0.0,0.0,0.0,0.0,0.0,0.0,0.0,0.0,0.0,0.0,0.0,0.0,0.0,0.0,0.0,0.0239,0.0,-0.0239,-0.0359,-0.0553,0.0,-0.2155,-0.2393,0.0,-0.353,-0.3918,0.0,0.0,0.0,-0.397,-0.3931,0.0,0.0,0.0,0.0,0.0,0.0,0.0,0.0,0.0,0.0,0.0,0.0,0.0,0.0,0.0,0.0,0.0,0.0,0.0,0.0,0.0,0.0,0.0,0.0,0.0,0.0,0.0,0.0,0.0,0.0,0.0,0.0,0.0,0.0,0.0,0.0,0.0,0.0,0.0,-0.6987,-0.7841,-0.8368,-0.9593,-1.1671,-1.3307,-1.425,-1.4391,-1.5075,-1.5738,-1.6335,-1.6761,-1.736,-1.7937,-1.7669,-1.7844,-1.8196,-1.7695,-1.7761,-1.8416,-1.9187,-1.9812,-2.0297,-2.1343,-2.1832,-2.2059,-2.2306,-2.1881,-2.1114,0.0,0.0,0.0,0.0,0.0,0.0,0.0,0.0,0.0,0.0,0.0,0.0,0.0,0.0,0.0,0.0,0.0,0.0,0.0,0.0,0.0,0.0,0.0,0.0,0.0,0.0,0.0,0.0,0.0,0.0,0.0,0.0,0.0,0.0,0.0,-0.0228,-0.0461,-0.1197,0.0,0.0,-0.2817,-0.3273,0.0,0.0,0.0,0.0,0.0,-0.3781,-0.3622,0.0,-0.3516,-0.3561,0.0,0.0,0.0,0.0,0.0,0.0,-0.5168,0.0,0.0,0.0,0.0,0.0,0.0,0.0,0.0,0.0,0.0,0.0,0.0,0.0,0.0,0.0,0.0,0.0,0.0,0.0,0.0,0.0,0.0,0.0,0.0,0.0,0.0,0.0,0.0,-0.7368,-0.792,-0.977,-1.1241,-1.2186,-1.3548,-1.4489,-1.4908,-1.5643,-1.6329,-1.6846,-1.7525,-1.79,-1.7992,-1.8062,-1.7878,-1.7678,-1.7943,-1.7997,-1.7917,-1.8101,-1.8912,-1.9872,-1.9909,-2.0247,-2.0699,-2.1123,-2.0716,-1.9985,0.0,0.0,0.0,0.0,0.0,0.0,0.0,0.0,0.0,0.0,0.0,0.0,0.0,0.0,0.0,0.0,0.0,0.0,0.0,0.0,0.0,0.0,0.0,0.0,0.0,0.0,0.0,0.0,0.0,0.0,0.0,0.0,0.0,0.0,0.0,0.0,0.0,0.0,0.0,0.0,-0.2691,0.0,0.0,-0.3699,-0.375,0.0,0.0,0.0,-0.3785,-0.3712,-0.3799,0.0,0.0,0.0,0.0,0.0,0.0,0.0,0.0,0.0,0.0,0.0,0.0,0.0,0.0,-0.5713,0.0,0.0,0.0,0.0,0.0,0.0,0.0,0.0,0.0,0.0,0.0,0.0,0.0,0.0,0.0,0.0,0.0,0.0,0.0,0.0,-0.6887,-0.7545,-0.8522,-1.0254,-1.1657,-1.2528,-1.3516,-1.4518,-1.5325,-1.6154,-1.6931,-1.7524,-1.837,-1.8765,-1.8752,-1.892,-1.8737,-1.8145,-1.829,-1.8416,-1.8438,-1.7953,-1.8402,-1.9453,-1.9788,-1.999,-2.0159,-2.0569,-2.0166,-1.933,0.0,0.0,0.0,0.0,0.0,0.0,0.0,0.0,0.0,0.0,0.0,0.0,0.0,0.0,0.0,0.0,0.0,0.0,0.0,0.0,0.0,0.0,0.0,0.0,0.0,0.0,0.0,0.0,0.0,0.0,0.0,0.0,0.0,0.0,0.0,0.0,0.0,0.0,0.0,-0.1976,-0.2488,-0.31,0.0,0.0,-0.3869,0.0,-0.3964,-0.3936,-0.4064,-0.4126,-0.4239,0.0,0.0,0.0,0.0,0.0,-0.5148,0.0,0.0,0.0,0.0,0.0,0.0,0.0,-0.6533,-0.6024,-0.5528,0.0,0.0,0.0,0.0,0.0,0.0,0.0,0.0,0.0,0.0,0.0,0.0,0.0,0.0,0.0,0.0,0.0,0.0,-0.6734,-0.6864,-0.7659,-0.9154,-1.0104,-1.1204,-1.2602,-1.3322,-1.4405,-1.5764,-1.6645,-1.7508,-1.8447,-1.9368,-1.9765,-1.9791,-2.0009,-1.9789,-1.9146,-1.8638,-1.8893,-1.9429,-1.8251,-1.8311,-1.9153,-2.0151,-2.038,-2.0064,-2.0346,-1.9738,-1.8816,0.0,0.0,0.0,0.0,0.0,0.0,0.0,0.0,0.0,0.0,0.0,0.0,0.0,0.0,0.0,0.0,0.0,0.0,0.0,0.0,0.0,0.0,0.0,0.0,0.0,0.0,0.0,0.0,0.0,0.0,0.0,0.0,0.0,0.0,0.0,0.0,0.0,0.0,0.0,-0.1398,-0.1598,0.0,-0.2778,-0.3093,-0.3366,-0.3542,-0.3765,-0.3959,-0.4117,0.0,-0.4632,-0.461,0.0,0.0,0.0,0.0,0.0,0.0,0.0,0.0,0.0,0.0,0.0,0.0,-0.7458,-0.6801,-0.6249,0.0,0.0,0.0,0.0,0.0,0.0,0.0,0.0,0.0,0.0,0.0,0.0,0.0,0.0,0.0,0.0,0.0,-0.6103,-0.64,-0.7274,-0.8167,-0.9046,-1.0121,-1.1109,-1.2047,-1.3277,-1.4631,-1.6061,-1.7169,-1.8163,-1.9011,-1.9401,-1.9686,-1.988,-1.9795,-1.9344,-1.877,-1.8969,-1.9082,-1.9083,-1.8566,-1.8743,-1.9373,-1.9203,-1.9049,-1.8926,-1.9185,-1.8759,-1.8056,0.0,0.0,0.0,0.0,0.0,0.0,0.0,0.0,0.0,0.0,0.0,0.0,0.0,0.0,0.0,0.0,0.0,0.0,0.0,0.0,0.0,0.0,0.0,0.0,0.0,0.0,0.0,0.0,0.0,0.0,0.0,0.0,0.0,0.0,0.0,0.0,0.0,0.0,-0.0473,-0.1047,-0.161,0.0,-0.2476,-0.2927,-0.316,-0.328,-0.3739,-0.4047,-0.4373,-0.4688,-0.4867,0.0,0.0,-0.5224,-0.5352,0.0,-0.6017,-0.667,0.0,0.0,0.0,-0.8396,0.0,0.0,0.0,-0.7142,-0.653,0.0,0.0,0.0,0.0,0.0,0.0,0.0,0.0,0.0,0.0,0.0,0.0,0.0,0.0,0.0,0.0,0.0,-0.6201,-0.6565,-0.7401,-0.8258,-0.9006,-0.9622,-1.0717,-1.2276,-1.3026,-1.435,-1.6523,-1.7367,-1.8305,-1.9282,-1.9761,-2.0008,-1.9925,-1.9976,-1.964,-1.8966,-1.9115,-1.9203,-1.9193,-1.8814,-1.8943,-1.9283,-1.8863,-1.844,-1.8247,-1.8385,-1.8112,-1.762,0.0,0.0,0.0,0.0,0.0,0.0,0.0,0.0,0.0,0.0,0.0,0.0,0.0,0.0,0.0,0.0,0.0,0.0,0.0,0.0,0.0,0.0,0.0,0.7709,0.0,0.0,0.0,0.0,0.0,0.0,0.0,0.0,0.0,0.0,0.0,0.0,0.0,0.0,0.0,-0.0715,0.0,-0.2138,-0.2313,-0.2917,-0.3134,-0.3285,-0.3778,-0.4249,-0.4649,-0.4768,0.0,-0.5299,-0.5234,-0.5397,0.0,0.0,0.0,0.0,0.0,0.0,0.0,0.0,0.0,-0.8113,0.0,0.0,0.0,-0.6628,0.0,0.0,0.0,0.0,0.0,0.0,0.0,0.0,0.0,0.0,0.0,0.0,0.0,0.0,0.0,0.0,-0.6036,-0.6722,-0.7233,-0.787,-0.8738,-0.8998,-1.0125,-1.2338,-1.2628,-1.4007,-1.6702,-1.7372,-1.8152,-1.9104,-2.0016,-2.0223,-1.975,-2.0294,-2.0056,-1.9265,-1.9233,-1.9323,-1.9614,-1.9094,-1.9083,-1.9242,-1.8809,-1.8285,-1.789,-1.7821,-1.7641,-1.7387,0.0,0.0,0.0,0.0,0.0,0.0,0.0,0.0,0.0,0.0,0.0,0.0,0.0,0.0,0.0,0.0,0.0,0.0,0.9647,0.0,0.0,0.0,0.0,0.0,0.7842,0.0,0.0,0.0,0.0,0.0,0.0,0.0,0.0,0.0,0.1467,0.0,0.0,0.0,0.0,0.0,-0.1067,-0.1562,0.0,-0.2729,-0.3134,-0.327,-0.405,-0.4505,-0.4791,0.0,-0.5324,-0.5738,0.0,-0.5693,0.0,0.0,0.0,0.0,0.0,0.0,0.0,0.0,-0.8822,0.0,0.0,0.0,-0.75,-0.7257,0.0,0.0,0.0,0.0,0.0,0.0,0.0,0.0,0.0,0.0,0.0,0.0,0.0,0.0,0.0,0.0,0.0,-0.6186,-0.6325,-0.6713,-0.7605,-0.8393,-0.9493,-1.1121,-1.2195,-1.3785,-1.6161,-1.7269,-1.8004,-1.8529,-1.9709,-2.0003,-1.9316,-2.0151,-2.0119,-1.9483,-1.9303,-1.9505,-1.9971,-1.9213,-1.9154,-1.9616,-1.8915,-1.8461,-1.8052,-1.8064,-1.7679,-1.7225,0.0,0.0,0.0,0.0,0.0,0.0,0.0,0.0,0.0,0.0,0.0,0.0,0.0,0.0,0.0,0.0,0.0,0.9247,0.0,0.0,0.0,0.0,0.0,0.0,0.0,0.0,0.0,0.0,0.5905,0.0,0.0,0.0,0.0,0.0,0.1781,0.0,0.122,0.0,0.0,0.0,0.0,0.0,0.0,-0.2576,-0.3315,-0.3829,-0.434,-0.4694,-0.4835,0.0,-0.5206,0.0,0.0,0.0,0.0,0.0,0.0,0.0,0.0,0.0,0.0,0.0,0.0,0.0,0.0,0.0,-0.8062,0.0,0.0,0.0,0.0,0.0,0.0,0.0,0.0,0.0,0.0,0.0,0.0,0.0,0.0,0.0,0.0,0.0,0.0,0.0,0.0,-0.608,-0.7283,-0.8011,-0.9239,-1.1142,-1.2178,-1.3721,-1.5812,-1.6485,-1.722,-1.7961,-1.837,-1.858,-1.8639,-1.8931,-1.9056,-1.8844,-1.8518,-1.8775,-1.9545,-1.9108,-1.9154,-1.9383,-1.9235,-1.8731,-1.8081,-1.7715,-1.7442,-1.7117,1.0417,0.0,0.0,0.0,0.0,0.0,0.0,0.0,0.0,0.0,0.0,0.0,1.1104,1.0612,0.0,0.0,0.9771,0.974,0.0,0.0,0.9872,0.0,0.0,0.0,0.0,0.0,0.0,0.0,0.0,0.0,0.0,0.0,0.0,0.0,0.0,0.1801,0.1519,0.0,0.0,0.0323,-0.0198,-0.0935,-0.1886,-0.2588,-0.3406,-0.4115,-0.4322,-0.4601,-0.4833,-0.4895,-0.5111,0.0,-0.5061,0.0,0.0,0.0,0.0,0.0,-0.7148,0.0,0.0,0.0,0.0,0.0,0.0,0.0,0.0,0.0,0.0,0.0,0.0,0.0,0.0,0.0,0.0,0.0,0.0,0.0,0.0,0.0,0.0,0.0,0.0,0.0,0.0,0.0,-0.4762,0.0,-0.6992,-0.7811,-0.9184,-1.1288,-1.2292,-1.366,-1.5576,-1.5858,-1.6399,-1.7121,-1.7283,-1.7507,-1.7788,-1.7984,-1.8151,-1.8088,-1.7712,-1.8016,-1.8723,-1.872,-1.872,-1.8744,-1.9033,-1.8598,-1.7854,-1.7605,-1.7388,-1.7115,1.1511,1.0569,0.0,0.0,0.0,0.0,0.0,0.0,0.0,0.0,0.0,0.0,0.0,0.0,0.0,0.0,0.0,1.0223,1.1423,0.0,0.9972,0.0,0.0,0.9856,0.0,0.0,0.0,0.0,0.0,0.0,0.0,0.0,0.0,0.0,0.0,0.2172,0.2029,0.1447,0.107,0.0775,-0.0194,-0.1314,-0.2415,0.0,-0.3362,-0.3763,-0.394,0.0,0.0,-0.4824,-0.5107,0.0,0.0,0.0,0.0,0.0,0.0,0.0,0.0,0.0,0.0,-0.8289,0.0,0.0,0.0,0.0,-0.8676,0.0,0.0,0.0,0.0,0.0,0.0,0.0,0.0,0.0,0.0,0.0,0.0,0.0,0.0,0.0,0.0,0.0,0.0,0.0,-0.3783,0.0,-0.6686,-0.7812,-0.9329,-1.1421,-1.2372,-1.3713,-1.5488,-1.5713,-1.5896,-1.6077,-1.7068,-1.7291,-1.6663,-1.7692,-1.7839,-1.7392,-1.7304,-1.7339,-1.7604,-1.799,-1.7859,-1.7428,-1.7929,-1.7761,-1.7303,-1.8079,-1.7859,-1.7133,1.1586,1.1324,1.0944,0.0,0.0,0.0,0.0,1.1445,0.0,0.0,0.0,0.0,0.0,1.1234,1.1238,0.0,0.0,1.093,1.1365,1.1146,0.0,0.0,0.0,1.0844,0.0,0.0,0.0,0.0,0.0,0.0,0.0,0.0,0.0,0.0,0.0,0.2671,0.0,0.0,0.0,0.0,0.0,-0.1338,-0.2283,0.0,0.0,-0.39,-0.4165,-0.4314,0.0,-0.4537,-0.471,-0.4824,-0.4743,-0.5272,-0.5872,-0.556,-0.6004,0.0,0.0,0.0,-0.7355,-0.7883,0.0,0.0,0.0,0.0,0.0,0.0,0.0,0.0,0.0,0.0,0.0,0.0,0.0,0.0,0.0,0.0,0.0,0.0,0.0,0.0,0.0,0.0,0.0,-0.3462,-0.3946,-0.4931,0.0,-0.8244,-0.9774,-1.1284,-1.2592,-1.3671,-1.4563,-1.4763,-1.4942,-1.5114,-1.5342,-1.5627,-1.5905,-1.6528,-1.6668,-1.656,-1.6759,-1.6795,-1.6794,-1.7578,-1.7489,-1.692,-1.7507,-1.7301,-1.675,-1.6935,-1.6733,-1.6287,1.1856,1.1911,1.1672,1.0513,0.0,0.0,0.0,0.0,0.0,0.0,1.1468,0.0,1.1505,0.0,1.1596,0.0,1.1579,1.169,1.1899,1.1824,0.0,1.1939,1.1774,0.0,0.0,0.0,0.0,0.0,0.0,0.7775,0.0,0.0,0.0,0.0,0.0,0.0,0.0,0.0,0.1845,0.0,0.0,-0.0994,0.0,0.0,-0.3075,0.0,0.0,-0.4001,-0.4069,-0.4341,-0.4473,-0.4521,-0.4583,-0.5147,-0.5688,-0.5432,-0.5809,-0.6306,-0.6643,-0.6738,0.0,0.0,-0.7881,0.0,-0.8348,0.0,0.0,0.0,0.0,0.0,0.0,0.0,0.0,0.0,0.0,0.0,0.0,0.0,0.0,0.0,0.0,0.0,0.0,0.0,-0.2399,-0.352,-0.3915,-0.5003,0.0,0.0,-1.0147,-1.1541,-1.2845,-1.3797,-1.4299,-1.4245,-1.4356,-1.4561,-1.4481,-1.4709,-1.5292,-1.5783,-1.5977,-1.6082,-1.6251,-1.6199,-1.6154,-1.6914,-1.6707,-1.5964,-1.6586,-1.6471,-1.5929,-1.6154,-1.5945,-1.5336,1.2321,1.2305,1.1887,1.0443,1.0155,0.0,0.0,0.0,1.1393,0.0,1.1504,1.132,1.1354,1.1485,1.1721,1.2015,1.2015,0.0,1.3053,1.2411,0.0,0.0,1.1916,1.1569,1.1243,0.0,0.0,0.0,0.0,0.0,0.0,0.0,0.0,0.0,0.3961,0.0,0.2686,0.2163,0.1804,0.1466,0.0466,-0.0427,-0.1092,-0.1546,0.0,-0.2763,-0.2993,-0.321,-0.3494,-0.4213,-0.4355,-0.4375,-0.4825,-0.4978,-0.5029,-0.5023,-0.5339,-0.5821,-0.6253,-0.6761,-0.7188,-0.7709,0.0,0.0,0.0,0.0,-0.8154,0.0,0.0,0.0,0.0,0.0,0.0,0.0,0.0,0.0,0.0,0.0,0.0,0.0,0.0,0.0,0.0,-0.2211,-0.2267,-0.3993,-0.3786,-0.4847,0.0,0.0,0.0,-1.2243,-1.3271,-1.4042,-1.4561,-1.4057,-1.4057,-1.4577,-1.4402,-1.4561,-1.4912,-1.5454,-1.5839,-1.611,-1.5856,-1.5782,-1.5766,-1.602,-1.5495,-1.4681,-1.5471,-1.5396,-1.4934,-1.5806,-1.5438,-1.4425,1.2916,1.2232,1.1868,0.0,1.1631,1.1218,0.0,0.0,0.0,0.0,1.1869,1.1619,1.1758,1.1754,1.186,1.2216,1.2319,0.0,0.0,0.0,0.0,1.2409,1.2557,1.2192,1.1381,1.1009,0.0,0.9558,0.0,0.0,0.8245,0.0,0.0,0.0,0.0,0.0,0.2894,0.2408,0.1845,0.122,0.0587,0.0,0.0,0.0,-0.1242,-0.1655,-0.257,-0.3035,-0.3296,-0.3609,-0.3934,-0.4277,-0.4425,-0.4742,-0.5097,-0.5286,-0.5569,-0.5943,-0.6256,-0.667,-0.6988,-0.7261,-0.7555,-0.7751,0.0,0.0,0.0,0.0,0.0,0.0,0.0,0.0,0.0,0.0,0.0,0.0,0.0,0.0,0.0,0.0,0.0,0.0,-0.3095,-0.2794,-0.3146,-0.422,-0.4642,-0.5656,0.0,0.0,0.0,-1.1944,-1.3365,-1.4235,-1.4418,-1.4324,-1.4183,-1.4,-1.3955,-1.4379,-1.512,-1.5421,-1.5749,-1.601,-1.6103,-1.5863,-1.5428,-1.5837,-1.5577,-1.4824,-1.5193,-1.5099,-1.4785,-1.4934,-1.4636,-1.4081,1.3384,1.308,0.0,1.3575,0.0,0.0,1.2305,0.0,0.0,1.2431,1.1952,0.0,1.1882,1.1728,1.1847,1.2057,1.2158,0.0,1.2517,0.0,0.0,1.2334,1.2272,1.2003,1.1497,1.0956,0.0,0.9755,0.0,0.0,0.8259,0.0,0.0,0.0,0.0,0.3983,0.0,0.263,0.1983,0.133,0.0965,0.0,0.0,-0.0194,-0.0468,-0.0888,-0.168,-0.2296,-0.2747,-0.3307,-0.3723,-0.4157,-0.4463,-0.4822,-0.5149,-0.5514,-0.5693,-0.5867,-0.6331,-0.6641,-0.6919,-0.7131,-0.7484,-0.7724,-0.7593,-0.7778,-0.7868,0.0,0.0,0.0,0.0,0.0,0.0,0.0,0.0,0.0,0.0,0.0,0.0,0.0,0.0,0.0,-0.3918,-0.3413,-0.3539,-0.4403,-0.4852,-0.5785,0.0,0.0,0.0,0.0,-1.3346,-1.4033,-1.3915,-1.395,-1.381,-1.3637,-1.381,-1.4267,-1.4965,-1.5339,-1.565,-1.5774,-1.5851,-1.5659,-1.5247,-1.5444,-1.5292,-1.4896,-1.5017,-1.4951,-1.4788,-1.4568,-1.4364,-1.4081,0.0,0.0,0.0,0.0,0.0,0.0,0.0,1.2866,0.0,1.2443,0.0,1.178,1.1693,1.1707,1.1739,1.1739,0.0,1.2034,1.2237,1.198,1.1966,1.2106,1.169,1.1489,1.1592,1.0717,0.0,0.0,0.0,0.0,0.0,0.0,0.0,0.0,0.0,0.0,0.0,0.2671,0.2126,0.0,0.1426,0.1138,0.0812,0.0462,0.0137,-0.0211,-0.0704,-0.1342,-0.2138,-0.3127,-0.3634,-0.398,-0.4629,-0.4862,-0.5034,-0.561,-0.5726,-0.5712,-0.6409,-0.671,-0.6942,-0.718,-0.7718,-0.8049,-0.755,-0.7744,-0.7888,-0.7547,-0.6903,0.0,0.0,0.0,0.0,0.0,0.0,0.0,0.0,0.0,0.0,0.0,0.0,0.0,0.0,0.0,-0.3797,-0.4587,-0.4718,0.0,0.0,0.0,0.0,0.0,-1.3215,0.0,-1.3353,0.0,-1.3351,-1.3476,-1.3708,-1.417,-1.4638,-1.5184,-1.5464,-1.5451,-1.5358,-1.5216,-1.5125,-1.4937,-1.4864,-1.4864,-1.4864,-1.4864,-1.4792,-1.4505,-1.4402,-1.4231,0.0,0.0,0.0,0.0,0.0,1.3899,1.3878,1.3163,1.2624,1.2674,1.2454,1.2198,1.1952,1.1824,1.1673,1.1673,1.1571,0.0,0.0,0.0,0.0,1.1849,1.18,1.1602,1.1377,1.0695,1.0136,0.0,0.9106,0.8732,0.0,0.0,0.0,0.0,0.0,0.0,0.2768,0.243,0.0,0.2167,0.1771,0.1572,0.1477,0.0929,0.0624,0.0362,-0.0434,-0.1174,-0.1942,-0.264,-0.3293,-0.39,-0.4321,-0.4638,-0.4862,-0.543,-0.5652,-0.5712,-0.6409,-0.671,-0.7019,-0.7326,-0.7872,-0.8353,-0.8439,-0.8656,-0.8709,-0.8318,-0.7728,-0.7133,-0.6642,0.0,0.0,0.0,0.0,0.0,0.0,0.0,0.0,0.0,0.0,0.0,0.0,0.0,0.0,0.0,0.0,0.0,0.0,0.0,0.0,0.0,0.0,0.0,0.0,0.0,0.0,-1.3402,-1.3209,-1.3775,-1.4844,-1.4683,-1.4978,-1.5541,-1.4973,-1.4847,-1.4918,-1.4647,-1.4577,-1.4649,-1.4864,-1.4792,-1.4649,-1.4577,-1.4464,-1.4367,0.0,0.0,0.0,0.0,0.0,0.0,0.0,1.3361,0.0,1.2954,1.2711,1.2454,1.2037,1.1791,1.1607,1.1521,1.1376,1.1483,1.1732,1.1537,1.1504,1.1617,1.1548,0.0,1.1162,1.0542,1.0064,0.9676,0.9032,0.8526,0.0,0.0,0.0,0.0,0.0,0.3691,0.0,0.0,0.0,0.2236,0.1995,0.1908,0.1875,0.1397,0.1034,0.0785,0.0143,-0.0581,-0.134,-0.2292,-0.295,-0.3534,-0.413,-0.4506,-0.4867,-0.5477,-0.5689,-0.5712,-0.6409,-0.671,-0.7019,-0.7557,-0.7947,-0.843,-0.9226,-0.9041,-0.8847,-0.8939,-0.8018,-0.7006,-0.6231,-0.6277,0.0,0.0,0.0,0.0,0.0,0.0,0.0,0.0,0.0,0.0,0.0,0.0,0.0,0.0,0.0,0.0,0.0,0.0,0.0,0.0,0.0,0.0,0.0,0.0,0.0,-1.3107,-1.3279,-1.368,-1.436,-1.4617,-1.4874,-1.5072,-1.4894,-1.4729,-1.4561,-1.4501,-1.4577,-1.4792,-1.4864,-1.4864,-1.4721,-1.4577,-1.4433,-1.4361,0.0,1.6831,0.0,0.0,1.5187,0.0,1.3899,1.3646,1.3489,1.3222,1.2966,1.2625,1.2209,1.1952,1.1693,1.1435,1.1292,1.1377,1.1404,1.1238,1.1194,1.1366,1.1151,1.1009,1.0948,1.0422,0.9952,0.0,0.8944,0.8248,0.0,0.0,0.0,0.0,0.0,0.0,0.0,0.0,0.2083,0.2102,0.1975,0.2006,0.2087,0.1678,0.138,0.106,0.0632,0.0,-0.074,-0.1844,-0.2568,-0.3119,-0.3972,-0.4432,-0.4794,-0.5518,-0.572,-0.5867,-0.6486,-0.6865,-0.7165,-0.766,-0.7992,-0.8403,-0.9514,-0.9186,-0.8744,-0.9199,-0.8078,-0.6713,-0.5794,-0.6084,0.0,0.0,0.0,0.0,0.0,0.0,0.0,0.0,0.0,0.0,0.0,0.0,0.0,0.0,0.0,0.0,-0.8636,-0.9219,0.0,0.0,0.0,0.0,-1.2412,0.0,-1.2763,0.0,-1.3316,-1.3667,-1.3967,-1.4573,-1.4764,-1.4508,-1.4732,-1.4652,-1.4336,-1.4429,-1.4577,-1.4721,-1.4721,-1.4792,-1.4792,-1.4433,-1.4361,-1.4346,0.0,0.0,0.0,0.0,0.0,0.0,0.0,1.4166,1.3913,1.3392,1.3222,1.2966,1.2711,1.2454,1.2112,1.1693,1.146,1.1216,1.1006,1.075,1.0727,1.0865,1.083,1.0807,1.0858,1.0349,0.9881,0.0,0.0,0.805,0.0,0.0,0.0,0.0,0.0,0.0,0.0,0.1823,0.1689,0.1729,0.1591,0.1768,0.2016,0.1589,0.1348,0.1086,0.0495,0.0,-0.0453,-0.1137,-0.1897,-0.2731,-0.3726,-0.4241,-0.4618,-0.5419,-0.5879,-0.6338,-0.6788,-0.7173,-0.7516,-0.7724,-0.819,-0.8719,-0.9,-0.8957,-0.8836,-0.8768,-0.7634,-0.6456,-0.5866,-0.5612,-0.5722,0.0,0.0,0.0,0.0,0.0,0.0,0.0,0.0,0.0,0.0,0.0,0.0,0.0,0.0,0.0,-0.916,-0.8776,-0.979,-1.277,0.0,-1.1999,-1.2184,-1.2043,0.0,-1.3062,-1.3086,-1.3444,-1.4112,-1.4049,-1.4158,-1.4346,-1.4194,-1.419,-1.4261,-1.421,-1.4129,-1.4201,-1.4201,-1.4274,-1.4433,-1.4201,-1.4129,-1.4083,0.0,0.0,0.0,0.0,0.0,0.0,0.0,1.3997,1.3828,1.3561,1.3392,1.3137,1.2711,1.2528,1.2283,1.1866,1.1545,1.1355,1.1348,1.0976,1.0861,1.1065,1.0901,1.0748,1.0595,1.0172,0.9648,0.0,0.0,0.7866,0.7196,0.0,0.0,0.0,0.0,0.285,0.2176,0.1463,0.1393,0.1757,0.1381,0.1412,0.1796,0.1535,0.1327,0.104,0.0549,0.0139,-0.0212,-0.0777,-0.1472,-0.2317,-0.3322,-0.3887,-0.4389,-0.5323,-0.5718,-0.6022,-0.6563,-0.6942,-0.731,-0.7845,-0.8123,-0.8513,-0.9435,-0.9083,-0.8571,-0.8751,-0.7541,-0.6204,-0.5566,-0.5382,-0.5487,0.0,0.0,0.0,0.0,0.0,0.0,0.0,0.0,0.0,0.0,0.0,0.0,0.0,0.0,0.0,-0.8584,-0.877,-0.9882,-1.2135,0.0,-1.1919,-1.1825,-1.2107,-1.2326,-1.2711,-1.294,-1.329,-1.3646,-1.3794,-1.3966,-1.4265,-1.4233,-1.4324,-1.4483,-1.4141,-1.4141,-1.4436,-1.4436,-1.4387,-1.4408,-1.459,-1.4605,-1.4494,1.6817,0.0,1.5231,0.0,1.4679,1.4082,1.3997,1.3828,1.3646,1.3646,1.3476,1.3222,1.2881,1.2711,1.2454,1.2123,1.1697,1.1562,1.1577,1.1156,1.1022,1.11,1.0916,0.0,1.0444,1.0053,0.9497,0.8846,0.8245,0.0,0.0,0.0,0.0,0.0,0.2915,0.2403,0.1935,0.11,0.1012,0.128,0.1096,0.1115,0.1277,0.1288,0.1129,0.0895,0.0551,0.0277,-0.007,-0.0558,-0.1178,-0.1875,-0.2905,-0.3587,-0.4227,-0.5106,-0.5579,-0.5893,-0.6472,-0.6865,-0.7234,-0.788,-0.8027,-0.8309,-0.9236,-0.8842,-0.8282,-0.8286,-0.7222,-0.6033,-0.5443,-0.5225,-0.5147,0.0,0.0,0.0,0.0,0.0,0.0,0.0,-0.7095,-0.7273,-0.7089,0.0,0.0,0.0,0.0,0.0,0.0,-0.8944,0.0,0.0,0.0,0.0,0.0,0.0,-1.2369,-1.2454,-1.2881,-1.3137,-1.3307,-1.3476,-1.3864,-1.4241,-1.4158,-1.4247,-1.456,-1.3983,-1.396,-1.4336,-1.4336,-1.4349,-1.4433,-1.4774,-1.4835,-1.4758,1.6512,1.5356,1.4616,1.491,1.4469,1.3997,1.3743,1.373,1.3646,1.3392,1.3222,1.3137,1.3137,1.3052,1.2881,1.2454,1.2112,1.1838,1.1327,1.1138,1.0957,0.0,0.0,1.0748,1.0339,1.0016,0.9446,0.8399,0.0,0.0,0.5793,0.0,0.37,0.3205,0.2507,0.1914,0.1352,0.0773,0.0394,0.0271,0.0713,0.0728,0.0511,0.0824,0.0745,0.0509,0.0364,0.0148,-0.0076,-0.0454,-0.0923,-0.1475,-0.2587,-0.3355,-0.3953,-0.4726,-0.5439,-0.6139,-0.6521,-0.7019,-0.7516,-0.7781,-0.8027,-0.8214,-0.8031,-0.812,-0.7957,-0.7155,-0.6557,-0.6067,-0.5551,-0.5119,-0.4874,-0.5062,0.0,0.0,0.0,0.0,0.0,0.0,-0.7522,-0.7634,-0.7788,0.0,0.0,0.0,0.0,0.0,0.0,0.0,0.0,-1.1563,-1.1626,0.0,-1.1502,-1.2099,-1.2369,-1.2454,-1.2881,-1.3137,-1.3137,-1.3307,-1.3815,-1.4378,-1.3843,-1.3886,-1.4223,-1.3607,-1.3431,-1.3582,-1.3672,-1.3975,-1.4321,-1.4712,-1.4754,-1.4679,1.5865,1.5264,1.479,1.4683,1.4163,1.3828,1.373,1.3476,1.3307,1.3222,1.3137,1.3052,1.2881,1.2796,1.2711,0.0,1.2035,1.1573,0.0,1.0996,1.0719,1.0232,1.0379,1.0194,0.9576,0.9182,0.8616,0.7872,0.0,0.0,0.0,0.4283,0.3538,0.2797,0.2141,0.1671,0.1297,0.0707,0.0649,0.0901,0.1143,0.1302,0.1457,0.1779,0.1513,0.0949,0.0743,0.0376,-0.0076,-0.0454,-0.0913,-0.1369,-0.2044,-0.2965,-0.3899,-0.4468,-0.5196,-0.5867,-0.6194,-0.671,-0.7336,-0.768,-0.804,-0.8302,-0.8181,-0.7805,-0.7162,-0.6304,-0.5946,-0.5486,-0.4775,-0.4524,-0.4393,-0.427,0.0,0.0,0.0,0.0,0.0,0.0,0.0,-0.7472,0.0,-0.6614,0.0,0.0,0.0,0.0,0.0,0.0,0.0,0.0,-1.1111,0.0,-1.1272,-1.1691,-1.1952,-1.2123,-1.2454,-1.2614,-1.2612,-1.3134,-1.3374,-1.3278,-1.3548,-1.3767,-1.3895,-1.3763,-1.3636,-1.3613,-1.4152,-1.4214,-1.4153,-1.4918,-1.5131,-1.5023,1.5828,1.5345,1.4945,1.4576,1.4097,1.3646,1.3561,1.3307,1.3052,1.2881,1.2881,1.2711,1.2454,1.2454,0.0,1.2369,1.1878,0.0,1.1112,1.0888,1.0574,1.0101,1.0182,0.9908,0.9142,0.0,0.0,0.7454,0.6753,0.577,0.4743,0.4047,0.3346,0.2575,0.1965,0.1478,0.1167,0.0919,0.0929,0.1117,0.162,0.1777,0.175,0.2187,0.1822,0.1068,0.1016,0.0555,-0.008,-0.0475,-0.0873,-0.1353,-0.1864,-0.2832,-0.3834,-0.4208,-0.4806,-0.5472,-0.5898,-0.6479,-0.7115,-0.766,-0.7975,-0.8057,-0.7858,-0.7289,-0.6557,-0.6005,-0.5536,-0.5041,-0.4435,-0.4234,-0.4086,-0.3793,0.0,-0.4313,0.0,0.0,0.0,0.0,0.0,0.0,0.0,-0.6549,0.0,0.0,0.0,0.0,0.0,0.0,0.0,-1.0569,-1.1257,0.0,-1.131,-1.1623,-1.1866,-1.2037,-1.2209,-1.2287,-1.2469,-1.2893,-1.2965,-1.2983,-1.3315,-1.3561,-1.3717,-1.3678,-1.3696,-1.3694,-1.4289,-1.4374,-1.435,-1.516,-1.5374,-1.522,1.6104,1.5527,0.0,0.0,1.4051,0.0,1.343,1.3259,1.2906,1.2478,1.2381,1.2283,1.2037,1.1952,1.2037,1.2272,0.0,0.0,0.0,1.0916,1.0559,1.0269,1.0289,0.0,0.8878,0.8896,0.8319,0.7333,0.6074,0.5119,0.4606,0.384,0.3043,0.2363,0.19,0.1474,0.0984,0.1228,0.123,0.099,0.2144,0.221,0.156,0.2401,0.2034,0.1063,0.1174,0.0687,0.0,-0.0511,-0.0943,-0.1388,-0.1863,-0.2773,-0.365,-0.3801,-0.4483,-0.5191,-0.5764,-0.6359,-0.7032,-0.7597,-0.769,-0.7575,-0.7095,-0.6631,-0.6227,-0.5904,-0.5354,-0.4733,-0.4467,-0.4101,-0.3805,-0.3733,-0.4285,-0.4663,-0.4405,0.0,0.0,0.0,0.0,0.0,0.0,-0.6866,-0.6949,0.0,0.0,0.0,0.0,0.0,0.0,-1.1215,-1.1711,-1.1893,-1.1693,-1.1888,-1.1986,-1.1986,-1.1963,-1.2209,-1.2625,-1.2454,-1.2699,-1.3281,-1.3137,-1.3307,-1.3633,-1.3457,-1.3503,-1.3886,-1.4225,-1.4469,-1.4646,-1.5345,-1.556,-1.5379,0.0,0.0,1.5124,1.4427,1.4203,1.3951,1.3573,1.3112,1.285,1.2674,1.2325,1.2037,1.2037,1.1682,1.1499,1.1585,1.1413,1.1154,1.0895,1.0896,1.0494,0.9563,0.9866,0.9588,0.8709,0.8645,0.8232,0.7389,0.6317,0.5473,0.4886,0.4222,0.3406,0.2475,0.2022,0.1492,0.1051,0.1122,0.1396,0.1973,0.2675,0.3096,0.3341,0.3789,0.3459,0.2578,0.214,0.1543,0.0727,-0.0356,-0.0886,-0.115,-0.1787,-0.2519,-0.3253,-0.3549,-0.4362,-0.5306,-0.5565,-0.6267,-0.6944,-0.7315,-0.7361,-0.7231,-0.6575,-0.6207,-0.5842,-0.5102,-0.4793,-0.449,-0.4053,-0.3807,-0.3646,-0.3725,-0.4026,-0.4419,-0.5177,0.0,0.0,0.0,-0.6822,-0.6836,-0.6812,-0.6482,-0.6606,0.0,0.0,0.0,0.0,0.0,-1.1409,-1.1378,-1.1798,-1.2001,-1.1963,-1.1794,-1.1883,-1.196,-1.1956,-1.2037,-1.2123,-1.2123,-1.2178,-1.2338,-1.2626,-1.2881,-1.2954,-1.3412,-1.3425,-1.3339,-1.4213,-1.4489,-1.4455,-1.4932,-1.5218,-1.535,1.5828,1.5497,1.5166,1.4523,1.4027,1.3634,1.3397,1.2945,1.2591,1.2414,1.2215,1.1938,1.1849,1.1572,1.1253,1.1159,1.0958,1.0722,1.0549,1.0494,1.024,0.9593,0.9767,0.9506,0.879,0.8632,0.8159,0.7265,0.6667,0.5985,0.528,0.4618,0.3892,0.3007,0.2573,0.2112,0.1638,0.1726,0.2102,0.2682,0.3167,0.3605,0.4014,0.4418,0.3985,0.323,0.287,0.2073,0.1043,0.0279,-0.0464,-0.1117,-0.1803,-0.2497,-0.3197,-0.3476,-0.4342,-0.5183,-0.5372,-0.608,-0.6781,-0.7007,-0.7028,-0.6728,-0.6264,-0.5758,-0.5251,-0.4731,-0.435,-0.396,-0.3774,-0.3622,-0.3551,-0.3614,-0.4277,-0.5005,-0.5597,-0.6286,0.0,-0.7024,-0.6829,-0.6642,-0.6634,-0.6558,-0.6859,-0.7493,0.0,0.0,-0.938,-1.046,-1.12,-1.133,-1.1918,-1.2113,-1.1877,-1.1739,-1.1772,-1.196,-1.1815,-1.1749,-1.2034,-1.1922,-1.1884,-1.2001,-1.2395,-1.2625,-1.2711,-1.3222,-1.3387,-1.3342,-1.3937,-1.4352,-1.4461,-1.4583,-1.4845,-1.5049,1.5896,1.5471,1.5193,1.467,1.3935,1.3363,1.3273,1.2878,1.2406,1.2125,1.2053,1.1854,1.1681,1.1395,1.1131,1.092,1.0543,1.0328,1.0299,1.0154,0.9976,0.9858,0.973,0.9456,0.896,0.8746,0.8174,0.7334,0.7118,0.6641,0.5779,0.5073,0.4356,0.3814,0.3311,0.2833,0.2328,0.2555,0.2836,0.3181,0.3675,0.4035,0.4212,0.4566,0.4238,0.3555,0.3528,0.2622,0.1474,0.106,0.0097,-0.1076,-0.1727,-0.2573,-0.3417,-0.3628,-0.436,-0.5019,-0.5278,-0.5964,-0.6555,-0.6703,-0.6584,-0.6295,-0.5921,-0.5174,-0.461,-0.4498,-0.3978,-0.3512,-0.354,-0.3506,-0.3537,-0.3553,-0.4762,-0.5693,-0.5813,0.0,-0.735,-0.7218,-0.6932,-0.6763,-0.6709,-0.6949,-0.7332,-0.7895,-0.8484,0.0,0.0,-1.0076,-1.0642,-1.107,-1.1839,-1.1971,-1.1685,-1.1565,-1.1751,-1.207,-1.1564,-1.1575,-1.2059,-1.1915,-1.1891,-1.2065,-1.2279,-1.2514,-1.2673,-1.2979,-1.3222,-1.362,-1.3635,-1.402,-1.4587,-1.4294,-1.4424,-1.4801,1.5222,1.521,1.5102,1.4766,1.4533,1.4376,1.4169,1.3499,1.2885,1.2693,1.2088,1.1681,1.1395,1.1119,1.0856,1.0641,1.0423,1.0327,1.0309,1.0298,1.007,0.9657,0.9794,0.9625,0.9218,0.8893,0.8651,0.8379,0.7849,0.7209,0.6403,0.5686,0.4919,0.4171,0.3423,0.2949,0.2657,0.2664,0.2978,0.3503,0.3814,0.4201,0.4578,0.4777,0.4654,0.4384,0.3772,0.3302,0.27,0.1374,0.0391,-0.0391,-0.1535,-0.2478,-0.3133,-0.3536,-0.4314,-0.5184,-0.537,-0.6093,-0.6665,-0.6233,-0.6149,-0.6042,-0.5076,-0.4839,-0.4575,-0.3821,-0.3625,-0.3512,-0.354,-0.3506,-0.3625,-0.3894,-0.4748,-0.5506,0.0,0.0,-0.6889,-0.7242,-0.7075,-0.6837,-0.6892,-0.7201,-0.7422,-0.7527,-0.8159,-0.8649,-0.871,-0.9298,-0.9849,-1.0232,-1.0743,-1.1224,-1.1568,-1.0925,-1.1313,-1.2681,-1.1957,-1.1886,-1.2296,-1.2323,-1.2304,-1.2293,-1.2171,-1.2258,-1.2686,-1.2721,-1.2966,-1.3222,-1.3776,-1.4126,-1.4183,-1.3975,-1.4172,-1.4531,1.5274,1.5088,1.4833,1.468,1.428,1.3846,1.3693,1.3224,1.2953,1.2759,1.248,1.2182,1.1877,1.1667,1.1397,1.1179,1.0958,1.0839,1.092,1.0435,1.0102,0.9944,0.9935,0.9757,0.942,0.9242,0.8863,0.8452,0.8243,0.7621,0.6655,0.6074,0.541,0.4739,0.4107,0.3616,0.3388,0.3424,0.3632,0.4023,0.4164,0.448,0.4781,0.4818,0.481,0.4682,0.4318,0.3904,0.3273,0.2386,0.1285,0.0,-0.0983,-0.2163,-0.3231,-0.3649,-0.4414,-0.5184,-0.5521,-0.5994,-0.6198,-0.5679,-0.5532,-0.5273,-0.4678,-0.4343,-0.4002,-0.3581,-0.3352,-0.3225,-0.3193,-0.3386,-0.3551,-0.3785,-0.4854,0.0,0.0,-0.6514,-0.6987,-0.74,-0.7133,-0.6959,-0.7034,-0.7354,-0.7562,-0.7542,-0.8102,-0.8452,-0.8419,-0.8816,-0.9051,-0.9045,-1.0059,-1.0848,-1.1153,-1.0576,-1.0772,-1.1931,-1.1228,-1.1052,-1.1552,-1.1414,-1.1395,-1.1385,-1.1261,-1.141,-1.1663,-1.1739,-1.2095,-1.2719,-1.2868,-1.3432,-1.4028,-1.3506,-1.375,-1.4303,1.5158,1.4985,1.4667,1.4636,1.3958,1.3397,1.3446,1.3237,1.2985,1.2833,1.273,1.2642,1.2376,1.2109,1.191,1.1748,1.1526,1.1364,1.1405,1.0721,1.0327,1.0362,1.02,0.9972,0.9775,0.9596,0.9212,0.8642,0.851,0.8014,0.7037,0.658,0.6022,0.5424,0.4931,0.4529,0.4274,0.4336,0.4429,0.4476,0.4541,0.4657,0.4834,0.4834,0.4834,0.4834,0.4834,0.4193,0.3358,0.3194,0.1889,0.0099,-0.0599,-0.191,-0.3218,-0.3647,-0.4415,-0.5073,-0.5536,-0.5731,-0.564,-0.5222,-0.4939,-0.4638,-0.434,-0.3834,-0.3451,-0.3436,-0.319,-0.2954,-0.294,-0.3264,-0.3561,-0.366,0.0,0.0,0.0,-0.6634,-0.7155,-0.731,-0.7125,-0.7034,-0.7177,-0.7479,-0.7654,-0.7689,-0.7987,-0.8168,-0.8204,-0.8328,-0.8319,-0.816,-0.9378,-1.0216,-1.0646,-1.0026,-1.0319,-1.125,-1.0508,-1.0423,-1.0857,-1.0792,-1.0716,-1.0697,-1.0683,-1.0774,-1.0891,-1.1049,-1.1519,-1.2093,-1.206,-1.2674,-1.3553,-1.2987,-1.3195,-1.3667,1.4406,1.4583,1.4718,1.4665,1.4376,1.4223,1.4456,1.409,1.3559,1.3141,1.2829,1.2604,1.2304,1.2112,1.197,1.196,1.1758,1.164,1.1415,1.1375,1.1091,1.0731,1.0442,1.0342,1.0459,1.021,0.9824,0.9485,0.9015,0.852,0.7912,0.7566,0.7053,0.6326,0.594,0.5578,0.5265,0.527,0.5167,0.4953,0.527,0.5116,0.4834,0.4834,0.4834,0.4834,0.4834,0.4124,0.321,0.3161,0.1689,-0.01,-0.0691,-0.179,-0.2917,-0.3355,-0.3915,-0.4493,-0.528,-0.5353,-0.5231,-0.4935,-0.4638,-0.434,-0.3736,-0.358,-0.3412,-0.3155,-0.3094,-0.2943,-0.2891,-0.3323,-0.365,-0.3747,0.0,0.0,-0.5371,-0.6376,-0.7069,-0.6748,-0.6954,-0.7183,-0.7339,-0.7366,-0.7428,-0.757,-0.759,-0.7753,-0.7787,-0.7807,-0.7875,-0.8018,-0.8407,-0.9091,-1.0075,-0.928,-0.978,-1.156,-1.0769,-1.0672,-1.117,-1.1453,-1.1346,-1.1142,-1.0934,-1.0944,-1.1133,-1.1169,-1.1354,-1.1731,-1.2155,-1.2204,-1.2192,-1.2533,-1.2533,-1.2336,1.4796,1.4612,1.4488,1.4387,1.4227,1.3997,1.4134,1.3984,1.3793,1.3591,1.3506,1.3286,1.3057,1.2951,1.2846,1.2688,1.2467,1.2299,1.231,1.23,1.1848,1.0938,1.0779,1.0547,1.0227,1.0149,0.9912,0.9485,0.9076,0.8628,0.8316,0.7769,0.7256,0.697,0.6426,0.6112,0.5901,0.5625,0.5394,0.509,0.5196,0.5069,0.4834,0.4834,0.4834,0.4834,0.4834,0.4503,0.4058,0.3344,0.2152,0.0682,-0.0489,-0.1773,-0.2877,-0.3387,-0.3663,-0.3925,-0.402,-0.4373,-0.4537,-0.3934,-0.3833,-0.3723,-0.3183,-0.3128,-0.326,-0.3099,-0.2946,-0.2899,-0.2877,-0.332,-0.3578,-0.3639,0.0,-0.5124,-0.515,-0.582,-0.6436,-0.643,-0.6757,-0.7025,-0.736,-0.7455,-0.7577,-0.7719,-0.7821,-0.7896,-0.795,-0.795,-0.7977,-0.8038,-0.8237,-0.8627,-0.9213,-0.8924,-0.932,-1.0314,-0.992,-0.9821,-1.0216,-1.0314,-1.0314,-1.0207,-1.0009,-1.0,-1.0184,-1.0332,-1.065,-1.113,-1.1549,-1.1893,-1.2202,-1.2356,-1.253,-1.2626,1.4844,1.4581,1.4366,1.4294,1.4008,1.3871,1.39,1.3943,1.3911,1.3836,1.3814,1.376,1.3599,1.3523,1.3539,1.3442,1.3314,1.3183,1.3183,1.3084,1.2639,1.1748,1.1365,1.1019,1.0697,1.0476,1.0211,0.9892,0.9361,0.9048,0.8696,0.8223,0.7909,0.7533,0.7072,0.6824,0.6676,0.6282,0.592,0.5588,0.5592,0.5367,0.5035,0.5035,0.5035,0.4935,0.4935,0.4698,0.4245,0.3613,0.2417,0.0961,-0.0097,-0.1462,-0.275,-0.3065,-0.3144,-0.3115,-0.2918,-0.324,-0.3669,-0.3174,-0.3174,-0.3164,-0.2828,-0.2872,-0.3102,-0.2967,-0.2913,-0.2875,-0.2875,-0.332,-0.3588,-0.3588,-0.4339,-0.4932,-0.4999,-0.5566,-0.6069,-0.6245,-0.6523,-0.6847,-0.7171,-0.7237,-0.733,-0.7469,-0.7574,-0.7674,-0.7865,-0.7819,-0.7939,-0.8038,-0.8137,-0.8428,-0.8627,-0.8726,-0.9023,-0.9434,-0.9335,-0.9335,-0.9624,-0.9525,-0.9533,-0.9624,-0.9397,-0.9413,-0.9608,-0.974,-1.0192,-1.0683,-1.101,-1.1475,-1.1899,-1.2057,-1.2277,-1.2422,1.4366,1.4537,1.4571,1.4245,1.393,1.39,1.4159,1.4191,1.4105,1.3857,1.3825,1.3825,1.3825,1.362,1.3681,1.4234,1.4012,1.3868,1.3868,1.3685,1.3378,1.3172,1.2422,1.1993,1.1922,1.1411,1.1005,1.072,1.0196,0.9674,0.9332,0.9282,0.8842,0.8072,0.822,0.7987,0.7539,0.7323,0.6934,0.6616,0.6313,0.5935,0.5636,0.5636,0.5436,0.524,0.524,0.4533,0.3607,0.3864,0.2314,0.039,0.0191,-0.0965,-0.2345,-0.2304,-0.2292,-0.229,-0.2004,-0.2099,-0.2385,-0.2668,-0.2666,-0.2666,-0.2666,-0.2813,-0.2959,-0.2956,-0.2913,-0.2875,-0.2875,-0.332,-0.3588,-0.3588,-0.4389,-0.5013,-0.5013,-0.5636,-0.6086,-0.6086,-0.6257,-0.6483,-0.6715,-0.6514,-0.649,-0.6721,-0.6734,-0.6945,-0.7511,-0.7563,-0.7739,-0.7939,-0.8038,-0.8137,-0.8428,-0.8627,-0.8931,-0.9236,-0.9236,-0.9335,-0.9624,-0.9335,-0.9335,-0.9624,-0.9335,-0.9335,-0.9624,-0.992,-1.0117,-1.0413,-1.0708,-1.0882,-1.0924,-1.1414,-1.1453,-1.1342,1.4997,1.4769,1.4571,1.4245,1.393,1.39,1.4159,1.4191,1.4062,1.3762,1.3751,1.3751,1.3751,1.3698,1.3827,1.4256,1.397,1.3991,1.4484,1.4234,1.4184,1.4407,1.3392,1.2588,1.2138,1.1875,1.1634,1.1413,1.0621,1.0141,1.002,0.9746,0.9271,0.8703,0.8533,0.8256,0.7808,0.74,0.703,0.6698,0.6491,0.6168,0.5842,0.5636,0.5536,0.5436,0.524,0.4997,0.4528,0.384,0.2555,0.0942,-0.076,-0.1834,-0.2357,-0.1883,-0.1754,-0.1622,-0.124,-0.1322,-0.15,-0.1805,-0.2288,-0.2657,-0.2436,-0.2695,-0.2946,-0.2907,-0.2886,-0.2964,-0.3051,-0.3448,-0.3758,-0.3937,-0.4631,-0.5208,-0.5041,-0.5577,-0.6003,-0.6091,-0.6169,-0.6311,-0.6624,-0.669,-0.663,-0.6864,-0.6876,-0.6951,-0.7221,-0.7183,-0.7298,-0.7589,-0.7589,-0.7784,-0.7973,-0.8379,-0.8733,-0.9236,-0.9236,-0.9335,-0.9624,-0.9335,-0.9335,-0.9624,-0.9335,-0.9335,-0.9624,-0.992,-1.0117,-1.0413,-1.0708,-1.0965,-1.1113,-1.1463,-1.1551,-1.1579,1.5176,1.4893,1.4759,1.4534,1.4212,1.418,1.4428,1.4471,1.435,1.424,1.4046,1.3993,1.3993,1.3919,1.4019,1.44,1.4478,1.4633,1.5096,1.4973,1.4984,1.4955,1.4321,1.3583,1.2571,1.2274,1.203,1.17,1.115,1.0766,1.0517,1.0206,0.9701,0.9005,0.8892,0.8563,0.8051,0.7655,0.729,0.7042,0.6836,0.6637,0.6442,0.6137,0.6037,0.5832,0.5494,0.5246,0.4975,0.408,0.2704,0.1202,-0.0465,-0.1329,-0.165,-0.1366,-0.1166,-0.0963,-0.0669,-0.0666,-0.0854,-0.1238,-0.18,-0.2259,-0.2157,-0.2434,-0.2798,-0.2764,-0.2851,-0.3035,-0.3124,-0.3436,-0.3828,-0.3889,-0.4576,-0.5139,-0.5031,-0.5471,-0.5716,-0.5913,-0.5997,-0.6204,-0.646,-0.6557,-0.6593,-0.6587,-0.6596,-0.6661,-0.6969,-0.6905,-0.6936,-0.7343,-0.7298,-0.7427,-0.7717,-0.7902,-0.8273,-0.8931,-0.9137,-0.9335,-0.9434,-0.913,-0.9229,-0.9434,-0.913,-0.9229,-0.9426,-0.9723,-1.0019,-1.0413,-1.0609,-1.0904,-1.1198,-1.1394,-1.159,-1.1785,1.5132,1.5063,1.5011,1.4878,1.4646,1.4611,1.4848,1.488,1.488,1.488,1.4585,1.4457,1.4457,1.4275,1.4256,1.4592,1.5142,1.5589,1.5795,1.5818,1.5603,1.5033,1.5233,1.47,1.3179,1.285,1.2421,1.187,1.1736,1.1362,1.0757,1.0757,1.0217,0.9183,0.9197,0.8829,0.8248,0.8037,0.7769,0.7666,0.7359,0.726,0.7272,0.6977,0.667,0.6353,0.5758,0.5424,0.509,0.4328,0.2973,0.1391,0.0636,-0.0093,-0.0667,-0.0656,-0.0478,-0.0293,-0.0288,-0.0291,-0.0391,-0.0672,-0.1226,-0.1776,-0.1902,-0.2288,-0.2571,-0.2571,-0.2859,-0.3141,-0.3136,-0.3521,-0.3789,-0.3711,-0.4354,-0.4876,-0.4952,-0.5295,-0.5473,-0.5735,-0.5997,-0.608,-0.6086,-0.6257,-0.6257,-0.608,-0.6115,-0.6293,-0.6642,-0.6667,-0.684,-0.7101,-0.7127,-0.7196,-0.7491,-0.7408,-0.768,-0.8435,-0.8924,-0.9122,-0.9236,-0.8924,-0.8931,-0.9236,-0.8931,-0.9031,-0.9236,-0.9533,-0.9929,-1.0439,-1.0422,-1.0717,-1.1227,-1.1198,-1.1492,-1.198,1.5452,1.5322,1.521,1.49,1.4646,1.4611,1.4848,1.488,1.4767,1.4654,1.4282,1.4138,1.4138,1.3871,1.4025,1.4999,1.5803,1.6113,1.5747,1.5736,1.5713,1.5543,1.5183,1.4703,1.4207,1.3758,1.3446,1.3277,1.2402,1.176,1.1221,1.1011,1.0414,0.9501,0.9233,0.8867,0.8385,0.8085,0.8039,0.8119,0.7808,0.7769,0.7871,0.7345,0.7032,0.6922,0.638,0.6107,0.58,0.4313,0.3289,0.2417,0.0867,0.029,0.0098,-0.0099,-0.0099,0.0,0.0391,0.0196,-0.0098,-0.0195,-0.0778,-0.1451,-0.1816,-0.2288,-0.2571,-0.2571,-0.2859,-0.313,-0.3269,-0.3584,-0.3884,-0.3985,-0.4585,-0.4975,-0.5055,-0.5501,-0.5833,-0.6008,-0.6169,-0.6257,-0.608,-0.5908,-0.5819,-0.5819,-0.5958,-0.6105,-0.6082,-0.6139,-0.6418,-0.6679,-0.6802,-0.6913,-0.7105,-0.7208,-0.7671,-0.8428,-0.8412,-0.8713,-0.9236,-0.8924,-0.9023,-0.9525,-0.9236,-0.9229,-0.9533,-0.9533,-1.0012,-1.0632,-1.0474,-1.0807,-1.1425,-1.1255,-1.1394,-1.1688,1.5691,1.5484,1.5423,1.5292,1.5156,1.497,1.4972,1.4993,1.4877,1.4645,1.432,1.4144,1.4144,1.3814,1.4114,1.5035,1.5979,1.6362,1.622,1.6351,1.6239,1.5653,1.5631,1.5289,1.4719,1.4148,1.375,1.3416,1.276,1.2224,1.169,1.1372,1.0749,0.9884,0.9384,0.8881,0.8428,0.8137,0.8085,0.816,0.7951,0.8044,0.817,0.7473,0.7285,0.7217,0.6481,0.6062,0.5758,0.4865,0.4153,0.3475,0.2413,0.1847,0.1472,0.0893,0.0901,0.1006,0.0798,0.0702,0.0503,0.0299,-0.0199,-0.0796,-0.1492,-0.2072,-0.2547,-0.2547,-0.282,-0.3074,-0.3202,-0.3503,-0.3789,-0.3896,-0.4378,-0.4749,-0.5017,-0.5275,-0.5615,-0.5913,-0.6169,-0.6428,-0.6523,-0.6292,-0.6198,-0.6257,-0.6317,-0.6262,-0.6178,-0.6178,-0.6268,-0.6538,-0.6418,-0.6453,-0.6825,-0.6802,-0.7032,-0.7731,-0.7918,-0.825,-0.8728,-0.8795,-0.8924,-0.9229,-0.9229,-0.9236,-0.9434,-0.9525,-0.988,-1.0362,-1.0358,-1.0672,-1.1151,-1.1236,-1.1394,-1.1688,1.5774,1.5655,1.5655,1.5655,1.5623,1.5483,1.5235,1.5116,1.4997,1.4769,1.4488,1.4249,1.4249,1.4159,1.4356,1.496,1.5846,1.6429,1.6538,1.6841,1.6541,1.5622,1.6024,1.5828,1.4969,1.4467,1.3972,1.3364,1.2961,1.2487,1.2064,1.1738,1.1104,1.0215,0.9548,0.8981,0.8428,0.8137,0.8052,0.8079,0.8079,0.8174,0.8289,0.7554,0.7382,0.7346,0.6426,0.5791,0.5509,0.5509,0.5106,0.4415,0.4131,0.3594,0.2951,0.2068,0.2014,0.1955,0.1318,0.1226,0.1134,0.0713,0.0304,-0.0203,-0.0935,-0.1744,-0.2322,-0.2431,-0.2797,-0.3136,-0.3076,-0.3439,-0.3789,-0.3714,-0.4055,-0.4476,-0.4933,-0.4994,-0.526,-0.573,-0.6151,-0.6574,-0.7014,-0.6734,-0.6541,-0.6662,-0.6526,-0.646,-0.6257,-0.6184,-0.6195,-0.6257,-0.5998,-0.6054,-0.6515,-0.6333,-0.6391,-0.6777,-0.7406,-0.7794,-0.8118,-0.8561,-0.8825,-0.8924,-0.913,-0.9236,-0.9236,-0.9533,-0.9739,-0.9962,-1.0224,-1.0529,-1.0852,-1.1208,-1.1394,-1.1688,1.6024,1.5903,1.5903,1.5903,1.5731,1.5601,1.5601,1.5235,1.5116,1.4997,1.45,1.4252,1.4252,1.4436,1.4661,1.4844,1.56,1.5936,1.5576,1.5741,1.573,1.535,1.5742,1.5855,1.5669,1.5251,1.4707,1.3942,1.2885,1.238,1.2075,1.1861,1.1326,1.0645,1.0002,0.9384,0.8726,0.8435,0.8313,0.8241,0.8241,0.8323,0.8452,0.7811,0.7602,0.7509,0.6846,0.6448,0.6042,0.6042,0.5775,0.5291,0.4595,0.4303,0.4011,0.321,0.272,0.2328,0.2221,0.1719,0.1221,0.1134,0.0614,0.0,-0.0106,-0.1138,-0.2127,-0.2472,-0.2852,-0.3199,-0.3139,-0.3472,-0.3789,-0.3714,-0.4006,-0.4401,-0.4661,-0.5112,-0.561,-0.598,-0.6331,-0.6602,-0.6688,-0.6417,-0.6159,-0.5999,-0.6122,-0.6014,-0.5552,-0.5563,-0.5568,-0.5552,-0.5646,-0.5746,-0.5836,-0.6019,-0.612,-0.6227,-0.656,-0.7114,-0.7918,-0.8259,-0.8733,-0.9137,-0.9137,-0.9236,-0.9236,-0.9533,-0.9713,-0.9936,-0.9979,-1.0518,-1.1052,-1.1461,-1.159,-1.1688,1.6517,1.6431,1.6387,1.6517,1.6237,1.5878,1.5746,1.5519,1.5193,1.4821,1.459,1.4397,1.4269,1.4683,1.4993,1.4993,1.5663,1.6022,1.5946,1.6028,1.5987,1.5509,1.5867,1.5805,1.5556,1.5237,1.497,1.4893,1.3621,1.2736,1.2304,1.199,1.162,1.1028,1.0397,0.9792,0.9312,0.9108,0.8794,0.8575,0.8575,0.8564,0.8472,0.7975,0.7836,0.7955,0.738,0.7084,0.6918,0.6749,0.6687,0.6326,0.5669,0.5452,0.5241,0.4212,0.3713,0.3427,0.2674,0.2284,0.1897,0.1527,0.1017,0.0611,0.0313,-0.0618,-0.1517,-0.2141,-0.2718,-0.3161,-0.3101,-0.3451,-0.3803,-0.3769,-0.4066,-0.4447,-0.467,-0.501,-0.5567,-0.6318,-0.627,-0.6263,-0.6511,-0.6109,-0.5837,-0.5813,-0.5869,-0.5725,-0.5463,-0.543,-0.5435,-0.5374,-0.5491,-0.5496,-0.5547,-0.5705,-0.5705,-0.573,-0.6247,-0.6868,-0.7502,-0.7929,-0.8435,-0.8733,-0.9038,-0.9236,-0.9236,-0.9533,-0.9673,-0.9738,-0.9954,-1.0367,-1.0934,-1.1138,-1.1296,-1.1394]}]]